Time,TemperatureF,DewpointF,PressureIn,WindDirection,WindDirectionDegrees,WindSpeedMPH,WindSpeedGustMPH,Humidity,HourlyPrecipIn,Conditions,Clouds,dailyrainin,SoftwareType,DateUTC
2013-03-18 00:00:00,34.3,25.9,28.73,SW,232,10.5,13.0,71,0.00,,---,0.00,VWS V14.01,2013-03-18 04:00:00,
2013-03-18 00:01:00,34.2,25.8,28.73,West,260,13.0,15.9,71,0.00,,---,0.00,VWS V14.01,2013-03-18 04:01:00,
2013-03-18 00:02:00,34.0,25.6,28.73,NW,309,12.1,13.0,71,0.00,,---,0.00,VWS V14.01,2013-03-18 04:02:00,
2013-03-18 00:03:00,34.2,25.8,28.73,NW,318,11.0,15.4,71,0.00,,---,0.00,VWS V14.01,2013-03-18 04:03:00,
2013-03-18 00:04:00,34.0,25.6,28.73,NW,315,10.5,14.8,71,0.00,,---,0.00,VWS V14.01,2013-03-18 04:04:00,
2013-03-18 00:05:00,34.0,25.6,28.73,WNW,294,10.1,19.9,71,0.00,,---,0.00,VWS V14.01,2013-03-18 04:05:00,
2013-03-18 00:06:00,34.0,25.6,28.73,WNW,301,13.0,19.0,71,0.00,,---,0.00,VWS V14.01,2013-03-18 04:06:00,
2013-03-18 00:07:00,34.0,25.6,28.73,WNW,302,3.6,13.0,71,0.00,,---,0.00,VWS V14.01,2013-03-18 04:07:00,
2013-03-18 00:08:00,34.0,25.6,28.73,NW,311,15.2,15.2,71,0.00,,---,0.00,VWS V14.01,2013-03-18 04:08:00,
2013-03-18 00:09:00,33.8,25.4,28.73,NW,313,10.1,15.2,71,0.00,,---,0.00,VWS V14.01,2013-03-18 04:09:00,
2013-03-18 00:11:00,33.8,25.7,28.73,WNW,294,12.5,13.4,72,0.00,,---,0.00,VWS V14.01,2013-03-18 04:11:00,
2013-03-18 00:12:00,33.6,25.6,28.73,WNW,298,10.5,13.4,72,0.00,,---,0.00,VWS V14.01,2013-03-18 04:12:00,
2013-03-18 00:13:00,33.6,25.6,28.73,NW,310,5.4,11.2,72,0.00,,---,0.00,VWS V14.01,2013-03-18 04:13:00,
2013-03-18 00:14:00,33.6,25.6,28.73,NW,308,18.1,18.1,72,0.00,,---,0.00,VWS V14.01,2013-03-18 04:14:00,
2013-03-18 00:15:00,33.4,25.1,28.73,West,259,10.1,18.1,71,0.00,,---,0.00,VWS V14.01,2013-03-18 04:15:00,
2013-03-18 00:16:00,33.4,25.1,28.73,NW,308,6.3,11.6,71,0.00,,---,0.00,VWS V14.01,2013-03-18 04:16:00,
2013-03-18 00:17:00,33.3,24.9,28.73,West,265,12.1,14.8,71,0.00,,---,0.00,VWS V14.01,2013-03-18 04:17:00,
2013-03-18 00:18:00,33.3,24.9,28.73,WNW,300,12.5,13.9,71,0.00,,---,0.00,VWS V14.01,2013-03-18 04:18:00,
2013-03-18 00:19:00,33.3,24.9,28.73,WNW,291,8.3,13.4,71,0.00,,---,0.00,VWS V14.01,2013-03-18 04:19:00,
2013-03-18 00:20:00,33.3,24.5,28.73,WNW,300,10.1,15.4,70,0.00,,---,0.00,VWS V14.01,2013-03-18 04:20:00,
2013-03-18 00:21:00,33.1,24.4,28.73,NW,316,8.7,12.5,70,0.00,,---,0.00,VWS V14.01,2013-03-18 04:21:00,
2013-03-18 00:22:00,33.1,24.4,28.73,WNW,302,5.4,8.7,70,0.00,,---,0.00,VWS V14.01,2013-03-18 04:22:00,
2013-03-18 00:23:00,33.1,24.4,28.73,NNW,328,8.7,9.2,70,0.00,,---,0.00,VWS V14.01,2013-03-18 04:23:00,
2013-03-18 00:24:00,33.1,24.4,28.73,NNW,347,7.8,10.1,70,0.00,,---,0.00,VWS V14.01,2013-03-18 04:24:00,
2013-03-18 00:25:00,33.1,24.4,28.73,NNW,332,6.9,8.7,70,0.00,,---,0.00,VWS V14.01,2013-03-18 04:25:00,
2013-03-18 00:26:00,33.1,24.4,28.73,WNW,299,4.5,8.3,70,0.00,,---,0.00,VWS V14.01,2013-03-18 04:26:00,
2013-03-18 00:27:00,30.2,20.6,28.94,East,89,6.9,9.2,67,0.00,,---,0.00,VWS V14.01,2013-03-18 04:27:00,
2013-03-18 00:28:00,32.9,24.2,28.73,West,271,7.8,11.6,70,0.00,,---,0.00,VWS V14.01,2013-03-18 04:28:00,
2013-03-18 00:30:00,32.5,23.2,28.73,NW,304,7.4,13.4,68,0.00,,---,0.00,VWS V14.01,2013-03-18 04:30:00,
2013-03-18 00:31:00,32.4,22.3,28.73,NW,309,10.1,17.7,66,0.00,,---,0.00,VWS V14.01,2013-03-18 04:31:00,
2013-03-18 00:32:00,30.2,20.9,28.94,East,87,9.6,10.1,68,0.00,,---,0.00,VWS V14.01,2013-03-18 04:32:00,
2013-03-18 00:34:00,32.2,20.3,28.73,NW,310,7.4,7.4,61,0.00,,---,0.00,VWS V14.01,2013-03-18 04:34:00,
2013-03-18 00:36:00,32.0,19.3,28.73,North,351,9.6,16.8,59,0.00,,---,0.00,VWS V14.01,2013-03-18 04:36:00,
2013-03-18 00:39:00,30.2,20.9,28.94,ESE,105,10.1,13.4,68,0.00,,---,0.00,VWS V14.01,2013-03-18 04:39:00,
2013-03-18 00:41:00,31.5,18.0,28.73,NW,315,9.2,20.1,57,0.00,,---,0.00,VWS V14.01,2013-03-18 04:41:00,
2013-03-18 00:42:00,31.5,18.0,28.73,WNW,287,18.6,18.6,57,0.00,,---,0.00,VWS V14.01,2013-03-18 04:42:00,
2013-03-18 00:44:00,31.3,17.8,28.73,North,351,10.5,15.4,57,0.00,,---,0.00,VWS V14.01,2013-03-18 04:44:00,
2013-03-18 00:47:00,30.2,20.9,28.94,East,101,6.3,11.0,68,0.00,,---,0.00,VWS V14.01,2013-03-18 04:47:00,
2013-03-18 00:49:00,30.9,17.9,28.73,West,262,9.6,13.4,58,0.00,,---,0.00,VWS V14.01,2013-03-18 04:49:00,
2013-03-18 00:50:00,30.9,17.9,28.73,NW,326,11.2,15.2,58,0.00,,---,0.00,VWS V14.01,2013-03-18 04:50:00,
2013-03-18 00:51:00,30.7,18.1,28.73,WNW,296,5.4,12.5,59,0.00,,---,0.00,VWS V14.01,2013-03-18 04:51:00,
2013-03-18 00:53:00,30.2,20.9,28.94,East,98,8.3,9.6,68,0.00,,---,0.00,VWS V14.01,2013-03-18 04:53:00,
2013-03-18 00:54:00,30.4,17.8,28.73,WNW,292,13.9,17.7,59,0.00,,---,0.00,VWS V14.01,2013-03-18 04:54:00,
2013-03-18 00:55:00,30.4,17.4,28.73,NW,315,6.3,17.2,58,0.00,,---,0.00,VWS V14.01,2013-03-18 04:55:00,
2013-03-18 00:56:00,30.4,17.4,28.73,WSW,257,13.4,13.4,58,0.00,,---,0.00,VWS V14.01,2013-03-18 04:56:00,
2013-03-18 00:57:00,30.2,17.2,28.73,WNW,298,12.5,16.3,58,0.00,,---,0.00,VWS V14.01,2013-03-18 04:57:00,
2013-03-18 00:58:00,30.2,20.9,28.94,ENE,78,6.9,10.5,68,0.00,,---,0.00,VWS V14.01,2013-03-18 04:58:00,
2013-03-18 01:00:00,30.2,17.2,28.73,WNW,299,13.0,13.0,58,0.00,,---,0.00,VWS V14.01,2013-03-18 05:00:00,
2013-03-18 01:02:00,30.0,16.6,28.73,WNW,298,9.6,18.6,57,0.00,,---,0.00,VWS V14.01,2013-03-18 05:02:00,
2013-03-18 01:04:00,30.0,20.8,28.94,ESE,108,9.6,10.5,68,0.00,,---,0.00,VWS V14.01,2013-03-18 05:04:00,
2013-03-18 01:05:00,29.8,16.5,28.73,NW,318,11.2,14.3,57,0.00,,---,0.00,VWS V14.01,2013-03-18 05:05:00,
2013-03-18 01:06:00,29.8,16.1,28.73,NW,304,6.3,13.0,56,0.00,,---,0.00,VWS V14.01,2013-03-18 05:06:00,
2013-03-18 01:07:00,29.7,15.5,28.73,NW,307,16.8,16.8,55,0.00,,---,0.00,VWS V14.01,2013-03-18 05:07:00,
2013-03-18 01:08:00,29.7,15.5,28.73,WNW,297,9.6,16.8,55,0.00,,---,0.00,VWS V14.01,2013-03-18 05:08:00,
2013-03-18 01:09:00,29.5,14.9,28.73,WNW,294,15.4,20.6,54,0.00,,---,0.00,VWS V14.01,2013-03-18 05:09:00,
2013-03-18 01:10:00,30.0,20.8,28.94,East,82,10.1,11.2,68,0.00,,---,0.00,VWS V14.01,2013-03-18 05:10:00,
2013-03-18 01:12:00,29.3,14.3,28.73,WNW,292,15.9,18.1,53,0.00,,---,0.00,VWS V14.01,2013-03-18 05:12:00,
2013-03-18 01:13:00,29.3,14.3,28.73,WNW,285,14.3,20.6,53,0.00,,---,0.00,VWS V14.01,2013-03-18 05:13:00,
2013-03-18 01:14:00,29.3,14.3,28.73,WSW,246,6.3,15.2,53,0.00,,---,0.00,VWS V14.01,2013-03-18 05:14:00,
2013-03-18 01:15:00,30.2,20.9,28.91,ENE,64,8.7,11.0,68,0.00,,---,0.00,VWS V14.01,2013-03-18 05:15:00,
2013-03-18 01:17:00,29.1,15.0,28.73,WNW,283,8.7,11.0,55,0.00,,---,0.00,VWS V14.01,2013-03-18 05:17:00,
2013-03-18 01:18:00,29.1,15.0,28.73,WNW,299,7.4,9.6,55,0.00,,---,0.00,VWS V14.01,2013-03-18 05:18:00,
2013-03-18 01:19:00,28.9,14.8,28.73,West,278,11.6,11.6,55,0.00,,---,0.00,VWS V14.01,2013-03-18 05:19:00,
2013-03-18 01:21:00,28.9,14.8,28.73,NW,310,12.5,13.0,55,0.00,,---,0.00,VWS V14.01,2013-03-18 05:21:00,
2013-03-18 01:22:00,30.0,21.1,28.91,ESE,112,7.8,11.6,69,0.00,,---,0.00,VWS V14.01,2013-03-18 05:22:00,
2013-03-18 01:24:00,28.9,14.8,28.73,NNW,332,10.5,16.8,55,0.00,,---,0.00,VWS V14.01,2013-03-18 05:24:00,
2013-03-18 01:27:00,28.8,14.2,28.73,NW,309,12.5,15.2,54,0.00,,---,0.00,VWS V14.01,2013-03-18 05:27:00,
2013-03-18 01:28:00,30.2,21.3,28.91,SE,126,11.6,12.1,69,0.00,,---,0.00,VWS V14.01,2013-03-18 05:28:00,
2013-03-18 01:33:00,30.2,21.3,28.91,ENE,67,7.8,9.2,69,0.00,,---,0.00,VWS V14.01,2013-03-18 05:33:00,
2013-03-18 01:34:00,28.2,13.3,28.73,WNW,283,13.0,13.4,53,0.00,,---,0.00,VWS V14.01,2013-03-18 05:34:00,
2013-03-18 01:36:00,28.2,13.3,28.73,NW,321,18.6,18.6,53,0.00,,---,0.00,VWS V14.01,2013-03-18 05:36:00,
2013-03-18 01:37:00,28.2,12.9,28.73,WNW,282,15.9,20.1,52,0.00,,---,0.00,VWS V14.01,2013-03-18 05:37:00,
2013-03-18 01:38:00,30.2,21.3,28.91,East,84,11.6,13.4,69,0.00,,---,0.00,VWS V14.01,2013-03-18 05:38:00,
2013-03-18 01:41:00,28.2,12.9,28.73,WSW,238,11.0,17.2,52,0.00,,---,0.00,VWS V14.01,2013-03-18 05:41:00,
2013-03-18 01:42:00,28.0,12.7,28.73,West,262,10.5,20.1,52,0.00,,---,0.00,VWS V14.01,2013-03-18 05:42:00,
2013-03-18 01:43:00,28.2,12.9,28.73,NW,306,10.5,16.3,52,0.00,,---,0.00,VWS V14.01,2013-03-18 05:43:00,
2013-03-18 01:44:00,30.0,21.1,28.91,East,98,11.2,12.5,69,0.00,,---,0.00,VWS V14.01,2013-03-18 05:44:00,
2013-03-18 01:45:00,28.0,12.7,28.73,WSW,237,11.2,16.3,52,0.00,,---,0.00,VWS V14.01,2013-03-18 05:45:00,
2013-03-18 01:48:00,28.0,12.7,28.73,NW,319,17.7,17.7,52,0.00,,---,0.00,VWS V14.01,2013-03-18 05:48:00,
2013-03-18 01:49:00,30.0,21.4,28.91,ESE,111,11.6,12.5,70,0.00,,---,0.00,VWS V14.01,2013-03-18 05:49:00,
2013-03-18 01:52:00,28.2,13.3,28.73,WNW,302,10.1,13.9,53,0.00,,---,0.00,VWS V14.01,2013-03-18 05:52:00,
2013-03-18 01:53:00,28.0,13.1,28.73,WNW,293,8.7,14.3,53,0.00,,---,0.00,VWS V14.01,2013-03-18 05:53:00,
2013-03-18 01:54:00,30.0,21.8,28.91,ESE,103,11.0,11.6,71,0.00,,---,0.00,VWS V14.01,2013-03-18 05:54:00,
2013-03-18 01:59:00,30.0,22.1,28.88,ENE,71,6.3,10.1,72,0.00,,---,0.00,VWS V14.01,2013-03-18 05:59:00,
2013-03-18 02:00:00,28.0,13.1,28.73,West,269,9.6,17.2,53,0.00,,---,0.00,VWS V14.01,2013-03-18 06:00:00,
2013-03-18 02:01:00,28.0,13.1,28.73,WNW,302,10.1,14.8,53,0.00,,---,0.00,VWS V14.01,2013-03-18 06:01:00,
2013-03-18 02:02:00,28.0,13.1,28.73,WNW,293,15.9,18.1,53,0.00,,---,0.00,VWS V14.01,2013-03-18 06:02:00,
2013-03-18 02:05:00,29.8,22.6,28.88,ESE,103,11.0,11.0,74,0.00,,---,0.00,VWS V14.01,2013-03-18 06:05:00,
2013-03-18 02:06:00,28.0,13.6,28.73,WNW,299,15.9,16.8,54,0.00,,---,0.00,VWS V14.01,2013-03-18 06:06:00,
2013-03-18 02:10:00,29.8,22.9,28.88,East,101,10.5,12.5,75,0.00,,---,0.00,VWS V14.01,2013-03-18 06:10:00,
2013-03-18 02:15:00,29.8,22.9,28.88,East,84,6.7,9.2,75,0.00,,---,0.00,VWS V14.01,2013-03-18 06:15:00,
2013-03-18 02:20:00,29.8,23.2,28.88,ENE,65,8.3,9.2,76,0.00,,---,0.00,VWS V14.01,2013-03-18 06:20:00,
2013-03-18 02:25:00,29.8,23.5,28.88,East,95,7.4,16.3,77,0.00,,---,0.00,VWS V14.01,2013-03-18 06:25:00,
2013-03-18 02:30:00,29.8,23.8,28.88,ENE,65,9.6,10.1,78,0.00,,---,0.00,VWS V14.01,2013-03-18 06:30:00,
2013-03-18 02:35:00,29.7,24.0,28.88,East,98,7.4,11.2,79,0.00,,---,0.00,VWS V14.01,2013-03-18 06:35:00,
2013-03-18 02:40:00,29.7,24.3,28.88,East,95,7.8,11.2,80,0.00,,---,0.00,VWS V14.01,2013-03-18 06:40:00,
2013-03-18 02:45:00,29.7,24.6,28.85,ENE,73,8.7,10.1,81,0.00,,---,0.00,VWS V14.01,2013-03-18 06:45:00,
2013-03-18 02:50:00,29.8,25.0,28.85,ESE,121,10.5,10.5,82,0.00,,---,0.00,VWS V14.01,2013-03-18 06:50:00,
2013-03-18 02:55:00,29.8,25.3,28.85,East,100,9.2,12.5,83,0.00,,---,0.00,VWS V14.01,2013-03-18 06:55:00,
2013-03-18 03:00:00,30.0,25.8,28.85,East,83,6.9,10.5,84,0.00,,---,0.00,VWS V14.01,2013-03-18 07:00:00,
2013-03-18 03:05:00,30.2,26.5,28.85,East,94,6.9,12.1,86,0.00,,---,0.00,VWS V14.01,2013-03-18 07:05:00,
2013-03-18 03:10:00,30.4,26.7,28.85,ENE,65,12.5,12.5,86,0.00,,---,0.00,VWS V14.01,2013-03-18 07:10:00,
2013-03-18 03:15:00,30.4,27.0,28.85,ENE,62,8.7,9.6,87,0.00,,---,0.00,VWS V14.01,2013-03-18 07:15:00,
2013-03-18 03:20:00,30.4,27.3,28.85,NE,51,9.2,10.1,88,0.00,,---,0.00,VWS V14.01,2013-03-18 07:20:00,
2013-03-18 03:25:00,30.6,27.4,28.85,East,88,5.4,6.7,88,0.00,,---,0.00,VWS V14.01,2013-03-18 07:25:00,
2013-03-18 03:30:00,30.7,27.9,28.85,East,85,4.5,8.3,89,0.00,,---,0.00,VWS V14.01,2013-03-18 07:30:00,
2013-03-18 03:35:00,30.9,28.1,28.85,East,83,5.8,7.4,89,0.00,,---,0.00,VWS V14.01,2013-03-18 07:35:00,
2013-03-18 03:40:00,30.7,27.9,28.85,East,95,9.2,10.5,89,0.00,,---,0.00,VWS V14.01,2013-03-18 07:40:00,
2013-03-18 03:45:00,31.1,28.2,28.85,ENE,74,8.3,9.6,89,0.00,,---,0.00,VWS V14.01,2013-03-18 07:45:00,
2013-03-18 03:50:00,31.5,28.9,28.85,ENE,61,6.3,7.4,90,0.00,,---,0.00,VWS V14.01,2013-03-18 07:50:00,
2013-03-18 03:55:00,31.5,29.1,28.85,East,81,6.3,9.6,91,0.00,,---,0.00,VWS V14.01,2013-03-18 07:55:00,
2013-03-18 04:00:00,31.6,29.3,28.82,NE,48,0.0,0.0,91,0.00,,---,0.00,VWS V14.01,2013-03-18 08:00:00,
2013-03-18 04:05:00,31.6,29.3,28.82,East,80,0.0,0.0,91,0.00,,---,0.00,VWS V14.01,2013-03-18 08:05:00,
2013-03-18 04:10:00,31.6,29.6,28.82,East,94,0.0,0.0,92,0.00,,---,0.00,VWS V14.01,2013-03-18 08:10:00,
2013-03-18 04:15:00,31.5,29.4,28.79,East,95,0.0,0.0,92,0.00,,---,0.00,VWS V14.01,2013-03-18 08:15:00,
2013-03-18 04:20:00,31.3,29.2,28.79,ESE,119,0.0,0.0,92,0.00,,---,0.00,VWS V14.01,2013-03-18 08:20:00,
2013-03-18 04:25:00,31.3,29.2,28.79,East,94,0.0,0.0,92,0.00,,---,0.00,VWS V14.01,2013-03-18 08:25:00,
2013-03-18 04:30:00,31.3,29.2,28.79,ESE,103,0.0,0.0,92,0.04,,---,0.04,VWS V14.01,2013-03-18 08:30:00,
2013-03-18 04:35:00,31.3,29.5,28.79,ENE,67,0.0,0.0,93,0.04,,---,0.04,VWS V14.01,2013-03-18 08:35:00,
2013-03-18 04:40:00,31.5,29.7,28.79,East,101,0.0,0.0,93,0.04,,---,0.04,VWS V14.01,2013-03-18 08:40:00,
2013-03-18 04:45:00,31.5,29.9,28.79,ENE,66,0.0,0.0,94,0.04,,---,0.04,VWS V14.01,2013-03-18 08:45:00,
2013-03-18 04:50:00,31.6,30.1,28.79,East,91,0.0,0.0,94,0.04,,---,0.04,VWS V14.01,2013-03-18 08:50:00,
2013-03-18 04:55:00,31.5,30.2,28.79,ESE,111,0.0,0.0,95,0.04,,---,0.04,VWS V14.01,2013-03-18 08:55:00,
2013-03-18 05:01:00,31.5,30.2,28.76,East,89,0.0,0.0,95,0.04,,---,0.04,VWS V14.01,2013-03-18 09:01:00,
2013-03-18 05:06:00,31.6,30.4,28.76,ESE,106,0.0,0.0,95,0.04,,---,0.04,VWS V14.01,2013-03-18 09:06:00,
2013-03-18 05:11:00,31.6,30.6,28.76,East,94,0.0,0.0,96,0.04,,---,0.04,VWS V14.01,2013-03-18 09:11:00,
2013-03-18 05:16:00,31.6,30.6,28.76,NE,56,0.0,0.0,96,0.04,,---,0.04,VWS V14.01,2013-03-18 09:16:00,
2013-03-18 05:21:00,31.8,30.8,28.76,East,94,0.0,0.0,96,0.04,,---,0.04,VWS V14.01,2013-03-18 09:21:00,
2013-03-18 05:27:00,31.8,30.8,28.76,ENE,75,0.0,0.0,96,0.04,,---,0.04,VWS V14.01,2013-03-18 09:27:00,
2013-03-18 05:32:00,31.8,31.1,28.73,ESE,106,0.0,0.0,97,0.00,,---,0.04,VWS V14.01,2013-03-18 09:32:00,
2013-03-18 05:37:00,31.8,31.1,28.73,ESE,115,0.0,0.0,97,0.00,,---,0.04,VWS V14.01,2013-03-18 09:37:00,
2013-03-18 05:43:00,31.8,31.1,28.73,ESE,108,0.0,0.0,97,0.00,,---,0.04,VWS V14.01,2013-03-18 09:43:00,
2013-03-18 05:48:00,32.0,31.2,28.73,East,90,0.0,0.0,97,0.00,,---,0.04,VWS V14.01,2013-03-18 09:48:00,
2013-03-18 05:53:00,32.0,31.2,28.73,East,96,0.0,0.0,97,0.00,,---,0.04,VWS V14.01,2013-03-18 09:53:00,
2013-03-18 05:58:00,32.0,31.2,28.73,East,94,0.0,0.0,97,0.00,,---,0.04,VWS V14.01,2013-03-18 09:58:00,
2013-03-18 06:03:00,32.0,31.2,28.73,East,93,0.0,0.0,97,0.00,,---,0.04,VWS V14.01,2013-03-18 10:03:00,
2013-03-18 06:08:00,32.0,31.2,28.73,ESE,108,0.0,0.0,97,0.00,,---,0.04,VWS V14.01,2013-03-18 10:08:00,
2013-03-18 06:13:00,32.2,31.4,28.73,ESE,106,0.0,0.0,97,0.00,,---,0.04,VWS V14.01,2013-03-18 10:13:00,
2013-03-18 06:14:00,24.6,5.3,28.82,WNW,288,9.6,17.2,43,0.00,,---,0.00,VWS V14.01,2013-03-18 10:14:00,
2013-03-18 06:15:00,24.6,5.8,28.82,WSW,239,12.1,19.5,44,0.00,,---,0.00,VWS V14.01,2013-03-18 10:15:00,
2013-03-18 06:16:00,24.6,5.8,28.82,WNW,294,15.4,24.8,44,0.00,,---,0.00,VWS V14.01,2013-03-18 10:16:00,
2013-03-18 06:17:00,24.6,5.8,28.82,WNW,293,11.0,19.0,44,0.00,,---,0.00,VWS V14.01,2013-03-18 10:17:00,
2013-03-18 06:18:00,24.6,5.8,28.82,West,274,10.1,16.8,44,0.00,,---,0.00,VWS V14.01,2013-03-18 10:18:00,
2013-03-18 06:19:00,32.2,31.4,28.73,ESE,104,0.0,0.0,97,0.00,,---,0.04,VWS V14.01,2013-03-18 10:19:00,
2013-03-18 06:20:00,24.6,6.3,28.82,West,280,13.9,19.9,45,0.00,,---,0.00,VWS V14.01,2013-03-18 10:20:00,
2013-03-18 06:21:00,24.6,6.3,28.82,WNW,287,11.2,15.9,45,0.00,,---,0.00,VWS V14.01,2013-03-18 10:21:00,
2013-03-18 06:22:00,24.6,6.3,28.82,West,262,10.5,15.4,45,0.00,,---,0.00,VWS V14.01,2013-03-18 10:22:00,
2013-03-18 06:23:00,24.6,6.8,28.82,WSW,239,9.6,15.4,46,0.00,,---,0.00,VWS V14.01,2013-03-18 10:23:00,
2013-03-18 06:24:00,32.2,31.4,28.73,East,87,0.0,0.0,97,0.00,,---,0.04,VWS V14.01,2013-03-18 10:24:00,
2013-03-18 06:25:00,24.6,6.8,28.82,West,267,8.7,16.8,46,0.00,,---,0.00,VWS V14.01,2013-03-18 10:25:00,
2013-03-18 06:26:00,24.6,6.8,28.82,NNW,330,12.5,17.2,46,0.00,,---,0.00,VWS V14.01,2013-03-18 10:26:00,
2013-03-18 06:27:00,24.6,7.3,28.82,WSW,238,7.4,14.3,47,0.00,,---,0.00,VWS V14.01,2013-03-18 10:27:00,
2013-03-18 06:28:00,24.6,7.3,28.82,WSW,244,8.7,17.2,47,0.00,,---,0.00,VWS V14.01,2013-03-18 10:28:00,
2013-03-18 06:29:00,32.2,31.4,28.73,SE,125,0.0,0.0,97,0.00,,---,0.04,VWS V14.01,2013-03-18 10:29:00,
2013-03-18 06:30:00,24.6,7.7,28.82,WSW,249,16.3,17.2,48,0.00,,---,0.00,VWS V14.01,2013-03-18 10:30:00,
2013-03-18 06:31:00,24.6,7.3,28.82,WSW,255,11.6,16.3,47,0.00,,---,0.00,VWS V14.01,2013-03-18 10:31:00,
2013-03-18 06:32:00,24.6,7.7,28.82,WNW,303,11.0,17.7,48,0.00,,---,0.00,VWS V14.01,2013-03-18 10:32:00,
2013-03-18 06:33:00,24.6,7.7,28.82,WNW,303,15.2,15.2,48,0.00,,---,0.00,VWS V14.01,2013-03-18 10:33:00,
2013-03-18 06:34:00,32.2,31.4,28.73,SE,131,0.0,0.0,97,0.00,,---,0.04,VWS V14.01,2013-03-18 10:34:00,
2013-03-18 06:35:00,24.6,8.2,28.82,NW,315,9.6,11.6,49,0.00,,---,0.00,VWS V14.01,2013-03-18 10:35:00,
2013-03-18 06:36:00,24.6,8.6,28.82,SW,234,13.0,13.9,50,0.00,,---,0.00,VWS V14.01,2013-03-18 10:36:00,
2013-03-18 06:37:00,24.6,8.2,28.82,SSW,213,13.0,19.9,49,0.00,,---,0.00,VWS V14.01,2013-03-18 10:37:00,
2013-03-18 06:38:00,24.4,7.1,28.82,WSW,250,13.9,23.3,47,0.00,,---,0.00,VWS V14.01,2013-03-18 10:38:00,
2013-03-18 06:39:00,32.4,31.6,28.73,ESE,117,0.0,0.0,97,0.00,,---,0.04,VWS V14.01,2013-03-18 10:39:00,
2013-03-18 06:40:00,24.6,6.3,28.82,West,271,12.5,21.0,45,0.00,,---,0.00,VWS V14.01,2013-03-18 10:40:00,
2013-03-18 06:41:00,24.6,5.8,28.82,WSW,253,8.7,18.6,44,0.00,,---,0.00,VWS V14.01,2013-03-18 10:41:00,
2013-03-18 06:42:00,24.6,5.8,28.82,West,266,11.0,16.3,44,0.00,,---,0.00,VWS V14.01,2013-03-18 10:42:00,
2013-03-18 06:43:00,24.6,5.8,28.82,West,275,16.3,16.3,44,0.00,,---,0.00,VWS V14.01,2013-03-18 10:43:00,
2013-03-18 06:44:00,32.4,31.6,28.70,ESE,108,0.0,0.0,97,0.00,,---,0.04,VWS V14.01,2013-03-18 10:44:00,
2013-03-18 06:45:00,24.6,5.8,28.82,WNW,282,13.4,18.1,44,0.00,,---,0.00,VWS V14.01,2013-03-18 10:45:00,
2013-03-18 06:46:00,24.6,5.8,28.82,WNW,296,12.5,13.4,44,0.00,,---,0.00,VWS V14.01,2013-03-18 10:46:00,
2013-03-18 06:47:00,24.6,5.8,28.82,West,272,13.0,14.8,44,0.00,,---,0.00,VWS V14.01,2013-03-18 10:47:00,
2013-03-18 06:48:00,24.6,6.3,28.82,NNW,340,11.0,13.9,45,0.00,,---,0.00,VWS V14.01,2013-03-18 10:48:00,
2013-03-18 06:49:00,32.4,31.6,28.70,ESE,116,0.0,0.0,97,0.00,,---,0.04,VWS V14.01,2013-03-18 10:49:00,
2013-03-18 06:50:00,24.6,6.3,28.82,West,280,11.2,14.8,45,0.00,,---,0.00,VWS V14.01,2013-03-18 10:50:00,
2013-03-18 06:51:00,24.6,6.3,28.82,West,277,11.2,15.2,45,0.00,,---,0.00,VWS V14.01,2013-03-18 10:51:00,
2013-03-18 06:52:00,24.6,6.3,28.82,West,267,12.5,12.5,45,0.00,,---,0.00,VWS V14.01,2013-03-18 10:52:00,
2013-03-18 06:53:00,24.6,6.8,28.82,WNW,297,8.7,12.5,46,0.00,,---,0.00,VWS V14.01,2013-03-18 10:53:00,
2013-03-18 06:54:00,32.4,31.6,28.70,ESE,103,0.0,0.0,97,0.00,,---,0.04,VWS V14.01,2013-03-18 10:54:00,
2013-03-18 06:55:00,24.6,6.8,28.82,WSW,245,7.8,16.3,46,0.00,,---,0.00,VWS V14.01,2013-03-18 10:55:00,
2013-03-18 06:56:00,24.6,7.3,28.82,SSW,208,8.7,18.6,47,0.00,,---,0.00,VWS V14.01,2013-03-18 10:56:00,
2013-03-18 06:57:00,24.6,7.3,28.82,SW,221,6.9,10.5,47,0.00,,---,0.00,VWS V14.01,2013-03-18 10:57:00,
2013-03-18 06:58:00,24.6,6.8,28.82,West,279,11.6,15.9,46,0.00,,---,0.00,VWS V14.01,2013-03-18 10:58:00,
2013-03-18 06:59:00,32.5,31.8,28.70,East,93,0.0,0.0,97,0.00,,---,0.04,VWS V14.01,2013-03-18 10:59:00,
2013-03-18 07:00:00,24.6,6.8,28.82,West,267,11.0,15.4,46,0.00,,---,0.00,VWS V14.01,2013-03-18 11:00:00,
2013-03-18 07:01:00,24.6,6.8,28.82,WSW,238,14.3,19.9,46,0.00,,---,0.00,VWS V14.01,2013-03-18 11:01:00,
2013-03-18 07:02:00,24.6,6.3,28.82,West,266,7.8,17.2,45,0.00,,---,0.00,VWS V14.01,2013-03-18 11:02:00,
2013-03-18 07:03:00,24.6,6.3,28.82,NW,319,7.8,15.4,45,0.00,,---,0.00,VWS V14.01,2013-03-18 11:03:00,
2013-03-18 07:04:00,32.5,31.8,28.70,ESE,116,0.0,0.0,97,0.00,,---,0.04,VWS V14.01,2013-03-18 11:04:00,
2013-03-18 07:05:00,24.6,6.3,28.82,WNW,285,9.6,14.8,45,0.00,,---,0.00,VWS V14.01,2013-03-18 11:05:00,
2013-03-18 07:06:00,24.4,6.2,28.82,WNW,291,8.7,16.8,45,0.00,,---,0.00,VWS V14.01,2013-03-18 11:06:00,
2013-03-18 07:07:00,24.4,5.7,28.82,WNW,301,8.7,22.8,44,0.00,,---,0.00,VWS V14.01,2013-03-18 11:07:00,
2013-03-18 07:08:00,24.4,5.2,28.82,West,276,12.1,17.2,43,0.00,,---,0.00,VWS V14.01,2013-03-18 11:08:00,
2013-03-18 07:09:00,32.5,31.8,28.70,ESE,111,0.0,0.0,97,0.00,,---,0.04,VWS V14.01,2013-03-18 11:09:00,
2013-03-18 07:10:00,24.4,5.2,28.82,West,269,13.4,19.0,43,0.00,,---,0.00,VWS V14.01,2013-03-18 11:10:00,
2013-03-18 07:11:00,24.4,5.2,28.82,West,279,7.4,18.6,43,0.00,,---,0.00,VWS V14.01,2013-03-18 11:11:00,
2013-03-18 07:12:00,24.4,5.2,28.82,West,281,11.2,18.1,43,0.00,,---,0.00,VWS V14.01,2013-03-18 11:12:00,
2013-03-18 07:13:00,24.3,5.0,28.82,NW,319,9.2,24.2,43,0.00,,---,0.00,VWS V14.01,2013-03-18 11:13:00,
2013-03-18 07:14:00,32.5,31.8,28.70,ESE,118,0.0,0.0,97,0.00,,---,0.04,VWS V14.01,2013-03-18 11:14:00,
2013-03-18 07:15:00,24.3,5.0,28.82,WNW,284,6.3,15.2,43,0.00,,---,0.00,VWS V14.01,2013-03-18 11:15:00,
2013-03-18 07:16:00,24.3,5.0,28.82,WSW,254,9.2,23.7,43,0.00,,---,0.00,VWS V14.01,2013-03-18 11:16:00,
2013-03-18 07:17:00,24.3,5.0,28.82,West,272,11.2,19.0,43,0.00,,---,0.00,VWS V14.01,2013-03-18 11:17:00,
2013-03-18 07:18:00,24.3,5.0,28.82,West,262,7.8,16.8,43,0.00,,---,0.00,VWS V14.01,2013-03-18 11:18:00,
2013-03-18 07:19:00,32.5,31.8,28.70,ENE,64,0.0,0.0,97,0.00,,---,0.04,VWS V14.01,2013-03-18 11:19:00,
2013-03-18 07:20:00,24.3,5.0,28.82,West,280,11.2,12.1,43,0.00,,---,0.00,VWS V14.01,2013-03-18 11:20:00,
2013-03-18 07:21:00,24.3,5.5,28.82,WNW,286,8.7,14.3,44,0.00,,---,0.00,VWS V14.01,2013-03-18 11:21:00,
2013-03-18 07:22:00,24.1,5.3,28.82,West,275,5.8,10.5,44,0.00,,---,0.00,VWS V14.01,2013-03-18 11:22:00,
2013-03-18 07:23:00,24.1,5.3,28.82,West,271,8.3,14.8,44,0.00,,---,0.00,VWS V14.01,2013-03-18 11:23:00,
2013-03-18 07:24:00,32.5,31.8,28.70,East,100,0.0,0.0,97,0.00,,---,0.04,VWS V14.01,2013-03-18 11:24:00,
2013-03-18 07:25:00,24.1,5.8,28.82,West,281,12.1,12.1,45,0.00,,---,0.00,VWS V14.01,2013-03-18 11:25:00,
2013-03-18 07:26:00,24.1,5.8,28.82,West,277,6.7,15.4,45,0.00,,---,0.00,VWS V14.01,2013-03-18 11:26:00,
2013-03-18 07:27:00,24.1,5.8,28.82,WNW,296,9.2,16.8,45,0.00,,---,0.00,VWS V14.01,2013-03-18 11:27:00,
2013-03-18 07:28:00,24.1,5.3,28.82,WNW,282,13.9,19.5,44,0.00,,---,0.00,VWS V14.01,2013-03-18 11:28:00,
2013-03-18 07:29:00,32.5,31.8,28.70,ESE,108,0.0,0.0,97,0.00,,---,0.04,VWS V14.01,2013-03-18 11:29:00,
2013-03-18 07:30:00,24.1,5.3,28.82,WNW,284,15.2,18.6,44,0.00,,---,0.00,VWS V14.01,2013-03-18 11:30:00,
2013-03-18 07:31:00,24.1,5.3,28.82,WNW,289,8.3,17.2,44,0.00,,---,0.00,VWS V14.01,2013-03-18 11:31:00,
2013-03-18 07:32:00,24.1,5.3,28.82,West,272,14.8,17.7,44,0.00,,---,0.00,VWS V14.01,2013-03-18 11:32:00,
2013-03-18 07:33:00,24.1,5.3,28.82,WSW,243,12.5,14.8,44,0.00,,---,0.00,VWS V14.01,2013-03-18 11:33:00,
2013-03-18 07:34:00,32.7,32.0,28.70,ESE,102,0.0,0.0,97,0.00,,---,0.04,VWS V14.01,2013-03-18 11:34:00,
2013-03-18 07:35:00,24.1,5.3,28.82,NW,319,21.0,21.0,44,0.00,,---,0.00,VWS V14.01,2013-03-18 11:35:00,
2013-03-18 07:36:00,24.1,4.8,28.82,WNW,290,15.2,24.4,43,0.00,,---,0.00,VWS V14.01,2013-03-18 11:36:00,
2013-03-18 07:37:00,24.1,4.8,28.82,WSW,250,15.4,19.9,43,0.00,,---,0.00,VWS V14.01,2013-03-18 11:37:00,
2013-03-18 07:38:00,24.1,4.8,28.82,NW,316,6.9,16.8,43,0.00,,---,0.00,VWS V14.01,2013-03-18 11:38:00,
2013-03-18 07:39:00,32.7,32.0,28.70,East,93,0.0,0.0,97,0.00,,---,0.04,VWS V14.01,2013-03-18 11:39:00,
2013-03-18 07:40:00,24.1,4.8,28.82,WSW,257,10.5,16.8,43,0.00,,---,0.00,VWS V14.01,2013-03-18 11:40:00,
2013-03-18 07:41:00,23.9,4.7,28.82,West,271,16.8,16.8,43,0.00,,---,0.00,VWS V14.01,2013-03-18 11:41:00,
2013-03-18 07:42:00,23.9,5.2,28.82,West,268,9.6,17.2,44,0.00,,---,0.00,VWS V14.01,2013-03-18 11:42:00,
2013-03-18 07:43:00,23.9,5.2,28.82,West,278,20.6,20.6,44,0.00,,---,0.00,VWS V14.01,2013-03-18 11:43:00,
2013-03-18 07:44:00,32.7,32.0,28.70,East,88,0.0,0.0,97,0.00,,---,0.04,VWS V14.01,2013-03-18 11:44:00,
2013-03-18 07:45:00,23.7,5.0,28.82,West,269,14.3,19.5,44,0.00,,---,0.00,VWS V14.01,2013-03-18 11:45:00,
2013-03-18 07:46:00,23.7,5.0,28.82,WNW,285,8.3,14.3,44,0.00,,---,0.00,VWS V14.01,2013-03-18 11:46:00,
2013-03-18 07:47:00,23.7,5.0,28.82,WNW,286,16.3,18.6,44,0.00,,---,0.00,VWS V14.01,2013-03-18 11:47:00,
2013-03-18 07:48:00,23.7,5.0,28.82,WNW,295,10.5,19.0,44,0.00,,---,0.00,VWS V14.01,2013-03-18 11:48:00,
2013-03-18 07:49:00,32.9,32.1,28.70,SE,126,0.0,0.0,97,0.00,,---,0.04,VWS V14.01,2013-03-18 11:49:00,
2013-03-18 07:50:00,23.5,5.3,28.82,NW,320,8.7,16.8,45,0.00,,---,0.00,VWS V14.01,2013-03-18 11:50:00,
2013-03-18 07:51:00,23.5,5.3,28.82,NW,309,14.3,14.3,45,0.00,,---,0.00,VWS V14.01,2013-03-18 11:51:00,
2013-03-18 07:52:00,23.5,5.3,28.82,WNW,282,10.1,14.3,45,0.00,,---,0.00,VWS V14.01,2013-03-18 11:52:00,
2013-03-18 07:53:00,23.5,5.8,28.82,WNW,285,8.7,12.5,46,0.00,,---,0.00,VWS V14.01,2013-03-18 11:53:00,
2013-03-18 07:54:00,32.9,32.1,28.70,East,89,0.0,0.0,97,0.00,,---,0.04,VWS V14.01,2013-03-18 11:54:00,
2013-03-18 07:55:00,23.5,5.8,28.82,West,266,13.9,14.8,46,0.00,,---,0.00,VWS V14.01,2013-03-18 11:55:00,
2013-03-18 07:56:00,23.7,6.0,28.82,WSW,258,8.3,15.4,46,0.00,,---,0.00,VWS V14.01,2013-03-18 11:56:00,
2013-03-18 07:57:00,23.7,6.0,28.82,West,271,14.8,14.8,46,0.00,,---,0.00,VWS V14.01,2013-03-18 11:57:00,
2013-03-18 07:58:00,23.7,6.0,28.82,West,271,9.6,14.8,46,0.00,,---,0.00,VWS V14.01,2013-03-18 11:58:00,
2013-03-18 07:59:00,33.1,32.3,28.70,ESE,103,0.0,0.0,97,0.00,,---,0.04,VWS V14.01,2013-03-18 11:59:00,
2013-03-18 08:00:00,23.7,6.4,28.82,NW,307,10.1,13.4,47,0.00,,---,0.00,VWS V14.01,2013-03-18 12:00:00,
2013-03-18 08:01:00,23.7,6.4,28.82,WSW,247,10.5,14.3,47,0.00,,---,0.00,VWS V14.01,2013-03-18 12:01:00,
2013-03-18 08:02:00,23.7,6.9,28.82,WNW,300,12.5,14.8,48,0.00,,---,0.00,VWS V14.01,2013-03-18 12:02:00,
2013-03-18 08:03:00,23.7,6.9,28.82,WNW,283,8.7,13.0,48,0.00,,---,0.00,VWS V14.01,2013-03-18 12:03:00,
2013-03-18 08:04:00,33.1,32.3,28.70,NE,51,0.0,0.0,97,0.00,,---,0.04,VWS V14.01,2013-03-18 12:04:00,
2013-03-18 08:05:00,23.9,6.6,28.82,WNW,301,11.2,13.9,47,0.00,,---,0.00,VWS V14.01,2013-03-18 12:05:00,
2013-03-18 08:06:00,23.9,6.6,28.82,WSW,256,14.8,15.9,47,0.00,,---,0.00,VWS V14.01,2013-03-18 12:06:00,
2013-03-18 08:07:00,23.9,6.6,28.82,NNW,330,10.5,14.8,47,0.00,,---,0.00,VWS V14.01,2013-03-18 12:07:00,
2013-03-18 08:08:00,23.9,7.1,28.82,WNW,293,11.2,18.1,48,0.00,,---,0.00,VWS V14.01,2013-03-18 12:08:00,
2013-03-18 08:09:00,33.1,32.3,28.70,East,92,0.0,0.0,97,0.00,,---,0.04,VWS V14.01,2013-03-18 12:09:00,
2013-03-18 08:10:00,23.9,6.6,28.82,West,274,9.6,13.0,47,0.00,,---,0.00,VWS V14.01,2013-03-18 12:10:00,
2013-03-18 08:11:00,23.9,7.1,28.82,West,278,8.7,15.9,48,0.00,,---,0.00,VWS V14.01,2013-03-18 12:11:00,
2013-03-18 08:12:00,23.9,7.1,28.82,West,272,9.6,13.4,48,0.00,,---,0.00,VWS V14.01,2013-03-18 12:12:00,
2013-03-18 08:13:00,24.1,7.2,28.82,WSW,248,8.7,12.5,48,0.00,,---,0.00,VWS V14.01,2013-03-18 12:13:00,
2013-03-18 08:14:00,33.1,32.3,28.67,SE,129,0.0,0.0,97,0.00,,---,0.04,VWS V14.01,2013-03-18 12:14:00,
2013-03-18 08:15:00,24.1,7.7,28.82,WNW,286,9.6,17.2,49,0.00,,---,0.00,VWS V14.01,2013-03-18 12:15:00,
2013-03-18 08:16:00,24.1,7.7,28.82,WNW,286,5.4,13.4,49,0.00,,---,0.00,VWS V14.01,2013-03-18 12:16:00,
2013-03-18 08:17:00,24.1,7.7,28.82,WNW,284,7.8,19.0,49,0.00,,---,0.00,VWS V14.01,2013-03-18 12:17:00,
2013-03-18 08:18:00,24.1,8.1,28.82,WSW,246,6.7,10.5,50,0.00,,---,0.00,VWS V14.01,2013-03-18 12:18:00,
2013-03-18 08:19:00,33.3,32.5,28.67,ESE,105,0.0,0.0,97,0.00,,---,0.04,VWS V14.01,2013-03-18 12:19:00,
2013-03-18 08:20:00,24.1,8.1,28.82,WNW,301,16.8,16.8,50,0.00,,---,0.00,VWS V14.01,2013-03-18 12:20:00,
2013-03-18 08:21:00,24.1,7.7,28.82,WNW,293,12.1,16.8,49,0.00,,---,0.00,VWS V14.01,2013-03-18 12:21:00,
2013-03-18 08:22:00,24.1,7.2,28.82,WNW,293,6.7,12.1,48,0.00,,---,0.00,VWS V14.01,2013-03-18 12:22:00,
2013-03-18 08:23:00,24.1,7.2,28.82,West,277,18.1,18.1,48,0.00,,---,0.00,VWS V14.01,2013-03-18 12:23:00,
2013-03-18 08:24:00,33.3,32.5,28.67,ESE,112,0.0,0.0,97,0.00,,---,0.04,VWS V14.01,2013-03-18 12:24:00,
2013-03-18 08:25:00,24.1,6.8,28.82,WSW,237,7.8,17.7,47,0.00,,---,0.00,VWS V14.01,2013-03-18 12:25:00,
2013-03-18 08:26:00,24.1,6.8,28.82,WNW,302,7.8,11.6,47,0.00,,---,0.00,VWS V14.01,2013-03-18 12:26:00,
2013-03-18 08:27:00,24.1,6.8,28.82,WNW,295,13.0,15.4,47,0.00,,---,0.00,VWS V14.01,2013-03-18 12:27:00,
2013-03-18 08:28:00,24.1,6.8,28.82,NW,305,9.6,14.8,47,0.00,,---,0.00,VWS V14.01,2013-03-18 12:28:00,
2013-03-18 08:29:00,33.3,32.5,28.67,ESE,106,0.0,0.0,97,0.00,,---,0.04,VWS V14.01,2013-03-18 12:29:00,
2013-03-18 08:30:00,23.9,6.6,28.82,SW,234,12.1,17.2,47,0.00,,---,0.00,VWS V14.01,2013-03-18 12:30:00,
2013-03-18 08:31:00,23.9,6.1,28.82,NW,325,9.2,22.8,46,0.00,,---,0.00,VWS V14.01,2013-03-18 12:31:00,
2013-03-18 08:32:00,24.1,6.3,28.82,WSW,258,9.2,11.6,46,0.00,,---,0.00,VWS V14.01,2013-03-18 12:32:00,
2013-03-18 08:33:00,24.1,6.3,28.82,West,264,13.0,15.9,46,0.00,,---,0.00,VWS V14.01,2013-03-18 12:33:00,
2013-03-18 08:34:00,33.3,32.5,28.67,ESE,118,0.0,0.0,97,0.00,,---,0.04,VWS V14.01,2013-03-18 12:34:00,
2013-03-18 08:35:00,24.3,6.5,28.82,WNW,293,9.6,12.1,46,0.00,,---,0.00,VWS V14.01,2013-03-18 12:35:00,
2013-03-18 08:36:00,24.3,6.5,28.82,West,278,13.4,14.8,46,0.00,,---,0.00,VWS V14.01,2013-03-18 12:36:00,
2013-03-18 08:37:00,24.4,6.6,28.82,NW,322,6.9,16.3,46,0.00,,---,0.00,VWS V14.01,2013-03-18 12:37:00,
2013-03-18 08:38:00,24.4,6.6,28.82,West,275,5.8,11.2,46,0.00,,---,0.00,VWS V14.01,2013-03-18 12:38:00,
2013-03-18 08:39:00,33.3,32.5,28.67,ENE,70,0.0,0.0,97,0.00,,---,0.04,VWS V14.01,2013-03-18 12:39:00,
2013-03-18 08:40:00,24.6,6.8,28.82,WNW,284,11.6,17.2,46,0.00,,---,0.00,VWS V14.01,2013-03-18 12:40:00,
2013-03-18 08:41:00,24.6,6.8,28.82,WNW,303,7.8,14.3,46,0.00,,---,0.00,VWS V14.01,2013-03-18 12:41:00,
2013-03-18 08:42:00,24.6,6.8,28.82,West,269,6.7,9.6,46,0.00,,---,0.00,VWS V14.01,2013-03-18 12:42:00,
2013-03-18 08:43:00,24.6,6.8,28.82,WSW,257,14.3,14.3,46,0.00,,---,0.00,VWS V14.01,2013-03-18 12:43:00,
2013-03-18 08:44:00,33.3,32.5,28.67,East,90,0.0,0.0,97,0.00,,---,0.04,VWS V14.01,2013-03-18 12:44:00,
2013-03-18 08:45:00,24.6,6.8,28.82,SW,234,13.9,15.4,46,0.00,,---,0.00,VWS V14.01,2013-03-18 12:45:00,
2013-03-18 08:46:00,24.8,7.4,28.82,WNW,288,11.2,13.9,47,0.00,,---,0.00,VWS V14.01,2013-03-18 12:46:00,
2013-03-18 08:47:00,24.8,7.0,28.82,WSW,246,9.6,16.3,46,0.00,,---,0.00,VWS V14.01,2013-03-18 12:47:00,
2013-03-18 08:48:00,24.6,6.8,28.82,WNW,293,11.6,16.8,46,0.00,,---,0.00,VWS V14.01,2013-03-18 12:48:00,
2013-03-18 08:49:00,33.4,32.7,28.67,ENE,75,0.0,0.0,97,0.00,,---,0.04,VWS V14.01,2013-03-18 12:49:00,
2013-03-18 08:50:00,24.6,7.3,28.82,West,266,11.0,11.0,47,0.00,,---,0.00,VWS V14.01,2013-03-18 12:50:00,
2013-03-18 08:51:00,24.6,7.3,28.82,WSW,242,8.7,11.0,47,0.00,,---,0.00,VWS V14.01,2013-03-18 12:51:00,
2013-03-18 08:52:00,24.8,7.4,28.82,West,279,4.9,13.0,47,0.00,,---,0.00,VWS V14.01,2013-03-18 12:52:00,
2013-03-18 08:53:00,24.8,7.9,28.82,West,259,10.1,13.4,48,0.00,,---,0.00,VWS V14.01,2013-03-18 12:53:00,
2013-03-18 08:54:00,33.4,32.7,28.67,ESE,115,0.0,0.0,97,0.00,,---,0.04,VWS V14.01,2013-03-18 12:54:00,
2013-03-18 08:55:00,25.0,8.1,28.82,WNW,286,7.8,13.0,48,0.00,,---,0.00,VWS V14.01,2013-03-18 12:55:00,
2013-03-18 08:56:00,25.2,8.2,28.82,West,279,10.5,12.1,48,0.00,,---,0.00,VWS V14.01,2013-03-18 12:56:00,
2013-03-18 08:57:00,25.2,8.2,28.82,NW,318,10.1,10.5,48,0.00,,---,0.00,VWS V14.01,2013-03-18 12:57:00,
2013-03-18 08:58:00,25.2,8.2,28.82,WNW,297,11.2,12.1,48,0.00,,---,0.00,VWS V14.01,2013-03-18 12:58:00,
2013-03-18 08:59:00,33.4,32.7,28.67,ENE,68,0.0,0.0,97,0.00,,---,0.04,VWS V14.01,2013-03-18 12:59:00,
2013-03-18 09:00:00,25.2,8.2,28.82,WSW,241,9.2,14.3,48,0.00,,---,0.00,VWS V14.01,2013-03-18 13:00:00,
2013-03-18 09:01:00,25.2,7.8,28.82,WNW,287,6.7,16.8,47,0.00,,---,0.00,VWS V14.01,2013-03-18 13:01:00,
2013-03-18 09:02:00,25.3,7.9,28.82,West,273,9.2,14.8,47,0.00,,---,0.00,VWS V14.01,2013-03-18 13:02:00,
2013-03-18 09:03:00,25.3,7.9,28.82,WSW,258,11.2,18.6,47,0.00,,---,0.00,VWS V14.01,2013-03-18 13:03:00,
2013-03-18 09:04:00,33.4,32.7,28.67,East,91,0.0,0.0,97,0.00,,---,0.04,VWS V14.01,2013-03-18 13:04:00,
2013-03-18 09:05:00,25.5,8.1,28.82,West,262,12.5,17.2,47,0.00,,---,0.00,VWS V14.01,2013-03-18 13:05:00,
2013-03-18 09:06:00,26.2,8.3,28.82,West,271,9.6,16.3,46,0.00,,---,0.00,VWS V14.01,2013-03-18 13:06:00,
2013-03-18 09:07:00,25.5,8.1,28.82,West,262,6.9,14.3,47,0.00,,---,0.00,VWS V14.01,2013-03-18 13:07:00,
2013-03-18 09:08:00,25.5,8.1,28.82,WSW,246,6.7,10.5,47,0.00,,---,0.00,VWS V14.01,2013-03-18 13:08:00,
2013-03-18 09:09:00,33.4,32.7,28.67,ESE,106,0.0,0.0,97,0.00,,---,0.04,VWS V14.01,2013-03-18 13:09:00,
2013-03-18 09:10:00,25.5,8.1,28.82,WSW,255,9.2,14.8,47,0.00,,---,0.00,VWS V14.01,2013-03-18 13:10:00,
2013-03-18 09:11:00,25.3,7.5,28.82,SW,231,16.3,21.9,46,0.00,,---,0.00,VWS V14.01,2013-03-18 13:11:00,
2013-03-18 09:12:00,25.2,6.8,28.82,West,279,11.6,19.5,45,0.00,,---,0.00,VWS V14.01,2013-03-18 13:12:00,
2013-03-18 09:13:00,25.0,6.7,28.82,WSW,239,14.3,19.9,45,0.00,,---,0.00,VWS V14.01,2013-03-18 13:13:00,
2013-03-18 09:14:00,33.4,32.7,28.64,ESE,110,0.0,0.0,97,0.00,,---,0.04,VWS V14.01,2013-03-18 13:14:00,
2013-03-18 09:15:00,25.2,6.8,28.82,WSW,253,11.2,17.7,45,0.00,,---,0.00,VWS V14.01,2013-03-18 13:15:00,
2013-03-18 09:16:00,25.2,7.3,28.82,West,276,7.4,13.0,46,0.00,,---,0.00,VWS V14.01,2013-03-18 13:16:00,
2013-03-18 09:17:00,25.3,7.5,28.82,West,277,14.8,14.8,46,0.00,,---,0.00,VWS V14.01,2013-03-18 13:17:00,
2013-03-18 09:18:00,25.3,7.9,28.82,West,278,8.3,14.8,47,0.00,,---,0.00,VWS V14.01,2013-03-18 13:18:00,
2013-03-18 09:19:00,33.4,32.7,28.64,East,90,0.0,0.0,97,0.00,,---,0.04,VWS V14.01,2013-03-18 13:19:00,
2013-03-18 09:20:00,25.5,8.1,28.82,West,266,13.9,17.2,47,0.00,,---,0.00,VWS V14.01,2013-03-18 13:20:00,
2013-03-18 09:21:00,25.5,8.1,28.82,WNW,283,11.6,15.9,47,0.00,,---,0.00,VWS V14.01,2013-03-18 13:21:00,
2013-03-18 09:22:00,25.5,7.6,28.82,SW,230,17.7,23.3,46,0.00,,---,0.00,VWS V14.01,2013-03-18 13:22:00,
2013-03-18 09:23:00,25.5,7.2,28.82,WNW,296,12.5,17.7,45,0.00,,---,0.00,VWS V14.01,2013-03-18 13:23:00,
2013-03-18 09:24:00,33.6,32.9,28.64,East,99,0.0,0.0,97,0.00,,---,0.04,VWS V14.01,2013-03-18 13:24:00,
2013-03-18 09:25:00,25.5,6.2,28.82,WSW,254,12.1,16.3,43,0.00,,---,0.00,VWS V14.01,2013-03-18 13:25:00,
2013-03-18 09:26:00,25.5,5.6,28.82,West,259,14.8,15.9,42,0.00,,---,0.00,VWS V14.01,2013-03-18 13:26:00,
2013-03-18 09:27:00,25.3,4.9,28.82,West,272,10.1,19.0,41,0.00,,---,0.00,VWS V14.01,2013-03-18 13:27:00,
2013-03-18 09:28:00,25.3,4.4,28.82,WNW,291,10.5,15.4,40,0.00,,---,0.00,VWS V14.01,2013-03-18 13:28:00,
2013-03-18 09:29:00,33.6,32.9,28.64,East,86,0.0,0.0,97,0.00,,---,0.04,VWS V14.01,2013-03-18 13:29:00,
2013-03-18 09:30:00,25.3,2.7,28.82,West,270,15.4,21.9,37,0.00,,---,0.00,VWS V14.01,2013-03-18 13:30:00,
2013-03-18 09:31:00,25.3,2.7,28.82,WSW,256,12.5,15.4,37,0.00,,---,0.00,VWS V14.01,2013-03-18 13:31:00,
2013-03-18 09:32:00,25.5,2.9,28.82,WSW,252,9.2,16.3,37,0.00,,---,0.00,VWS V14.01,2013-03-18 13:32:00,
2013-03-18 09:33:00,25.5,2.9,28.82,WSW,250,13.0,13.0,37,0.00,,---,0.00,VWS V14.01,2013-03-18 13:33:00,
2013-03-18 09:34:00,33.6,32.9,28.64,SE,134,0.0,0.0,97,0.00,,---,0.04,VWS V14.01,2013-03-18 13:34:00,
2013-03-18 09:35:00,25.5,2.3,28.82,West,275,20.6,21.5,36,0.00,,---,0.00,VWS V14.01,2013-03-18 13:35:00,
2013-03-18 09:36:00,25.3,1.5,28.82,WSW,248,11.2,20.6,35,0.00,,---,0.00,VWS V14.01,2013-03-18 13:36:00,
2013-03-18 09:37:00,25.5,2.3,28.82,West,264,13.4,13.4,36,0.00,,---,0.00,VWS V14.01,2013-03-18 13:37:00,
2013-03-18 09:38:00,25.5,2.9,28.82,WSW,248,13.0,16.8,37,0.00,,---,0.00,VWS V14.01,2013-03-18 13:38:00,
2013-03-18 09:39:00,33.6,32.9,28.64,East,85,0.0,0.0,97,0.00,,---,0.04,VWS V14.01,2013-03-18 13:39:00,
2013-03-18 09:40:00,25.5,2.9,28.82,West,259,11.6,15.4,37,0.00,,---,0.00,VWS V14.01,2013-03-18 13:40:00,
2013-03-18 09:41:00,25.5,2.9,28.82,WSW,237,16.8,22.4,37,0.00,,---,0.00,VWS V14.01,2013-03-18 13:41:00,
2013-03-18 09:42:00,25.5,2.3,28.82,WNW,297,12.1,20.6,36,0.00,,---,0.00,VWS V14.01,2013-03-18 13:42:00,
2013-03-18 09:43:00,25.5,1.7,28.82,WSW,245,13.9,16.8,35,0.00,,---,0.00,VWS V14.01,2013-03-18 13:43:00,
2013-03-18 09:44:00,33.6,32.9,28.64,ESE,114,0.0,0.0,97,0.00,,---,0.04,VWS V14.01,2013-03-18 13:44:00,
2013-03-18 09:45:00,25.3,1.5,28.82,NNW,328,15.4,22.4,35,0.00,,---,0.00,VWS V14.01,2013-03-18 13:45:00,
2013-03-18 09:46:00,25.3,1.5,28.82,WNW,300,6.7,15.4,35,0.00,,---,0.00,VWS V14.01,2013-03-18 13:46:00,
2013-03-18 09:47:00,25.2,1.4,28.82,WNW,296,14.8,21.0,35,0.00,,---,0.00,VWS V14.01,2013-03-18 13:47:00,
2013-03-18 09:48:00,25.0,1.2,28.82,NNE,13,11.6,14.8,35,0.00,,---,0.00,VWS V14.01,2013-03-18 13:48:00,
2013-03-18 09:49:00,33.6,32.9,28.64,East,99,0.0,0.0,97,0.00,,---,0.04,VWS V14.01,2013-03-18 13:49:00,
2013-03-18 09:50:00,25.2,2.0,28.82,NW,322,8.3,10.1,36,0.00,,---,0.00,VWS V14.01,2013-03-18 13:50:00,
2013-03-18 09:51:00,25.2,2.6,28.82,WNW,302,6.9,20.1,37,0.00,,---,0.00,VWS V14.01,2013-03-18 13:51:00,
2013-03-18 09:52:00,25.5,3.5,28.85,SW,231,11.6,20.1,38,0.00,,---,0.00,VWS V14.01,2013-03-18 13:52:00,
2013-03-18 09:53:00,25.5,2.9,28.85,WNW,285,11.0,16.8,37,0.00,,---,0.00,VWS V14.01,2013-03-18 13:53:00,
2013-03-18 09:54:00,33.6,32.9,28.64,ESE,118,0.0,0.0,97,0.00,,---,0.04,VWS V14.01,2013-03-18 13:54:00,
2013-03-18 09:55:00,25.7,3.6,28.85,WSW,238,9.6,15.9,38,0.00,,---,0.00,VWS V14.01,2013-03-18 13:55:00,
2013-03-18 09:56:00,26.1,4.5,28.85,West,259,6.3,13.0,39,0.00,,---,0.00,VWS V14.01,2013-03-18 13:56:00,
2013-03-18 09:57:00,26.2,5.2,28.85,SW,214,14.8,14.8,40,0.00,,---,0.00,VWS V14.01,2013-03-18 13:57:00,
2013-03-18 09:58:00,26.2,3.5,28.85,West,269,15.4,17.7,37,0.00,,---,0.00,VWS V14.01,2013-03-18 13:58:00,
2013-03-18 09:59:00,33.8,33.0,28.64,ESE,111,0.0,0.0,97,0.00,,---,0.04,VWS V14.01,2013-03-18 13:59:00,
2013-03-18 10:00:00,26.1,2.2,28.85,WNW,283,10.1,19.0,35,0.00,,---,0.00,VWS V14.01,2013-03-18 14:00:00,
2013-03-18 10:01:00,26.1,1.5,28.85,West,267,13.4,17.2,34,0.00,,---,0.00,VWS V14.01,2013-03-18 14:01:00,
2013-03-18 10:02:00,26.2,1.7,28.85,West,279,8.7,19.9,34,0.00,,---,0.00,VWS V14.01,2013-03-18 14:02:00,
2013-03-18 10:03:00,26.2,1.7,28.85,WNW,282,15.9,22.4,34,0.00,,---,0.00,VWS V14.01,2013-03-18 14:03:00,
2013-03-18 10:04:00,33.8,33.0,28.64,East,96,0.0,0.0,97,0.00,,---,0.04,VWS V14.01,2013-03-18 14:04:00,
2013-03-18 10:05:00,26.2,1.7,28.85,WSW,250,12.1,13.0,34,0.00,,---,0.00,VWS V14.01,2013-03-18 14:05:00,
2013-03-18 10:06:00,26.2,1.7,28.85,SSW,208,10.5,15.2,34,0.00,,---,0.00,VWS V14.01,2013-03-18 14:06:00,
2013-03-18 10:07:00,26.2,1.7,28.85,WSW,240,10.5,17.2,34,0.00,,---,0.00,VWS V14.01,2013-03-18 14:07:00,
2013-03-18 10:08:00,26.4,1.9,28.85,WNW,303,21.9,21.9,34,0.00,,---,0.00,VWS V14.01,2013-03-18 14:08:00,
2013-03-18 10:09:00,33.8,33.0,28.64,ESE,112,0.0,0.0,97,0.00,,---,0.04,VWS V14.01,2013-03-18 14:09:00,
2013-03-18 10:10:00,26.4,1.9,28.85,WSW,246,9.2,19.0,34,0.00,,---,0.00,VWS V14.01,2013-03-18 14:10:00,
2013-03-18 10:11:00,26.6,2.0,28.85,WNW,288,5.8,10.5,34,0.00,,---,0.00,VWS V14.01,2013-03-18 14:11:00,
2013-03-18 10:12:00,26.8,2.2,28.85,WNW,298,16.3,16.8,34,0.00,,---,0.00,VWS V14.01,2013-03-18 14:12:00,
2013-03-18 10:13:00,26.6,2.0,28.85,NW,308,8.7,16.3,34,0.00,,---,0.00,VWS V14.01,2013-03-18 14:13:00,
2013-03-18 10:14:00,33.8,33.0,28.64,ESE,111,0.0,0.0,97,0.00,,---,0.04,VWS V14.01,2013-03-18 14:14:00,
2013-03-18 10:15:00,26.8,2.2,28.85,West,268,16.8,16.8,34,0.00,,---,0.00,VWS V14.01,2013-03-18 14:15:00,
2013-03-18 10:16:00,26.6,1.4,28.85,NNW,339,8.3,18.6,33,0.00,,---,0.00,VWS V14.01,2013-03-18 14:16:00,
2013-03-18 10:17:00,26.8,2.2,28.85,WSW,249,13.9,16.8,34,0.00,,---,0.00,VWS V14.01,2013-03-18 14:17:00,
2013-03-18 10:18:00,26.6,2.0,28.85,WNW,288,10.1,16.3,34,0.00,,---,0.00,VWS V14.01,2013-03-18 14:18:00,
2013-03-18 10:19:00,33.8,33.0,28.64,ESE,106,0.0,0.0,97,0.00,,---,0.04,VWS V14.01,2013-03-18 14:19:00,
2013-03-18 10:20:00,26.6,2.7,28.85,WSW,244,8.7,16.3,35,0.00,,---,0.00,VWS V14.01,2013-03-18 14:20:00,
2013-03-18 10:21:00,26.4,2.5,28.85,West,269,7.8,16.3,35,0.00,,---,0.00,VWS V14.01,2013-03-18 14:21:00,
2013-03-18 10:22:00,26.2,2.9,28.85,WNW,302,8.3,17.2,36,0.00,,---,0.00,VWS V14.01,2013-03-18 14:22:00,
2013-03-18 10:23:00,26.2,2.9,28.85,West,261,6.9,15.9,36,0.00,,---,0.00,VWS V14.01,2013-03-18 14:23:00,
2013-03-18 10:24:00,33.8,33.0,28.64,ESE,111,0.0,0.0,97,0.00,,---,0.04,VWS V14.01,2013-03-18 14:24:00,
2013-03-18 10:25:00,26.6,4.4,28.85,West,270,11.2,13.9,38,0.00,,---,0.00,VWS V14.01,2013-03-18 14:25:00,
2013-03-18 10:26:00,26.8,5.2,28.85,NW,314,10.1,15.2,39,0.00,,---,0.00,VWS V14.01,2013-03-18 14:26:00,
2013-03-18 10:27:00,26.6,5.0,28.85,West,273,12.5,15.4,39,0.00,,---,0.00,VWS V14.01,2013-03-18 14:27:00,
2013-03-18 10:28:00,26.8,5.2,28.85,WSW,244,7.4,12.5,39,0.00,,---,0.00,VWS V14.01,2013-03-18 14:28:00,
2013-03-18 10:29:00,34.0,33.2,28.61,East,101,0.0,0.0,97,0.00,,---,0.04,VWS V14.01,2013-03-18 14:29:00,
2013-03-18 10:30:00,27.0,5.3,28.85,WSW,248,13.4,18.6,39,0.00,,---,0.00,VWS V14.01,2013-03-18 14:30:00,
2013-03-18 10:31:00,27.1,5.5,28.85,WNW,295,19.0,19.0,39,0.00,,---,0.00,VWS V14.01,2013-03-18 14:31:00,
2013-03-18 10:32:00,27.1,4.9,28.85,WNW,291,19.5,24.4,38,0.00,,---,0.00,VWS V14.01,2013-03-18 14:32:00,
2013-03-18 10:33:00,27.0,3.6,28.85,WNW,291,16.8,19.5,36,0.00,,---,0.00,VWS V14.01,2013-03-18 14:33:00,
2013-03-18 10:34:00,34.0,33.2,28.61,East,101,0.0,0.0,97,0.00,,---,0.04,VWS V14.01,2013-03-18 14:34:00,
2013-03-18 10:35:00,26.8,3.4,28.85,WNW,289,24.2,24.2,36,0.00,,---,0.00,VWS V14.01,2013-03-18 14:35:00,
2013-03-18 10:36:00,26.8,3.4,28.85,West,279,8.7,24.2,36,0.00,,---,0.00,VWS V14.01,2013-03-18 14:36:00,
2013-03-18 10:37:00,27.1,4.3,28.85,WSW,246,10.5,18.6,37,0.00,,---,0.00,VWS V14.01,2013-03-18 14:37:00,
2013-03-18 10:38:00,27.1,3.7,28.85,WSW,244,11.6,19.9,36,0.00,,---,0.00,VWS V14.01,2013-03-18 14:38:00,
2013-03-18 10:39:00,34.0,33.2,28.61,ESE,107,0.0,0.0,97,0.00,,---,0.04,VWS V14.01,2013-03-18 14:39:00,
2013-03-18 10:40:00,26.4,3.1,28.85,WNW,290,12.1,19.5,36,0.00,,---,0.00,VWS V14.01,2013-03-18 14:40:00,
2013-03-18 10:41:00,26.2,2.3,28.85,WSW,248,19.0,20.1,35,0.00,,---,0.00,VWS V14.01,2013-03-18 14:41:00,
2013-03-18 10:42:00,26.1,1.5,28.85,West,262,11.6,22.8,34,0.00,,---,0.00,VWS V14.01,2013-03-18 14:42:00,
2013-03-18 10:43:00,26.2,2.9,28.85,NW,306,16.3,16.3,36,0.00,,---,0.00,VWS V14.01,2013-03-18 14:43:00,
2013-03-18 10:44:00,34.0,33.2,28.61,ESE,121,0.0,0.0,97,0.00,,---,0.04,VWS V14.01,2013-03-18 14:44:00,
2013-03-18 10:45:00,26.2,3.5,28.85,West,259,11.6,18.6,37,0.00,,---,0.00,VWS V14.01,2013-03-18 14:45:00,
2013-03-18 10:46:00,26.2,3.5,28.85,West,280,10.5,24.8,37,0.00,,---,0.00,VWS V14.01,2013-03-18 14:46:00,
2013-03-18 10:47:00,26.4,3.7,28.85,West,266,14.3,16.8,37,0.00,,---,0.00,VWS V14.01,2013-03-18 14:47:00,
2013-03-18 10:48:00,26.6,3.8,28.85,West,272,11.6,18.1,37,0.00,,---,0.00,VWS V14.01,2013-03-18 14:48:00,
2013-03-18 10:49:00,34.0,33.2,28.61,ESE,109,0.0,0.0,97,0.00,,---,0.04,VWS V14.01,2013-03-18 14:49:00,
2013-03-18 10:50:00,27.0,4.8,28.85,WNW,301,13.9,19.0,38,0.00,,---,0.00,VWS V14.01,2013-03-18 14:50:00,
2013-03-18 10:51:00,26.6,3.3,28.85,WNW,283,11.0,19.5,36,0.00,,---,0.00,VWS V14.01,2013-03-18 14:51:00,
2013-03-18 10:52:00,26.6,2.7,28.85,WSW,258,9.2,14.8,35,0.00,,---,0.00,VWS V14.01,2013-03-18 14:52:00,
2013-03-18 10:53:00,26.6,2.7,28.85,WNW,288,9.6,19.5,35,0.00,,---,0.00,VWS V14.01,2013-03-18 14:53:00,
2013-03-18 10:54:00,34.2,33.4,28.61,ESE,111,0.0,0.0,97,0.00,,---,0.04,VWS V14.01,2013-03-18 14:54:00,
2013-03-18 10:55:00,27.0,2.3,28.85,WNW,299,9.6,19.0,34,0.00,,---,0.00,VWS V14.01,2013-03-18 14:55:00,
2013-03-18 10:56:00,26.8,1.5,28.85,WSW,240,9.2,20.6,33,0.00,,---,0.00,VWS V14.01,2013-03-18 14:56:00,
2013-03-18 10:57:00,26.8,1.5,28.85,WNW,292,19.9,21.5,33,0.00,,---,0.00,VWS V14.01,2013-03-18 14:57:00,
2013-03-18 10:58:00,26.4,0.6,28.85,NW,309,18.6,19.9,32,0.00,,---,0.00,VWS V14.01,2013-03-18 14:58:00,
2013-03-18 10:59:00,34.2,33.4,28.61,ESE,112,0.0,0.0,97,0.00,,---,0.04,VWS V14.01,2013-03-18 14:59:00,
2013-03-18 11:00:00,26.4,0.6,28.85,NW,307,11.0,16.8,32,0.00,,---,0.00,VWS V14.01,2013-03-18 15:00:00,
2013-03-18 11:01:00,26.8,0.9,28.85,West,265,12.5,15.9,32,0.00,,---,0.00,VWS V14.01,2013-03-18 15:01:00,
2013-03-18 11:02:00,27.0,1.0,28.85,West,262,14.8,18.1,32,0.00,,---,0.00,VWS V14.01,2013-03-18 15:02:00,
2013-03-18 11:03:00,27.1,1.2,28.85,West,264,16.3,19.5,32,0.00,,---,0.00,VWS V14.01,2013-03-18 15:03:00,
2013-03-18 11:04:00,34.3,33.6,28.61,East,92,0.0,0.0,97,0.00,,---,0.04,VWS V14.01,2013-03-18 15:04:00,
2013-03-18 11:05:00,27.1,0.5,28.85,WSW,258,11.2,21.0,31,0.00,,---,0.00,VWS V14.01,2013-03-18 15:05:00,
2013-03-18 11:06:00,27.1,0.5,28.85,WNW,301,11.0,17.7,31,0.00,,---,0.00,VWS V14.01,2013-03-18 15:06:00,
2013-03-18 11:07:00,27.3,0.7,28.85,NNW,331,8.7,12.1,31,0.00,,---,0.00,VWS V14.01,2013-03-18 15:07:00,
2013-03-18 11:08:00,27.5,0.8,28.85,West,267,12.5,21.9,31,0.00,,---,0.00,VWS V14.01,2013-03-18 15:08:00,
2013-03-18 11:09:00,34.3,33.6,28.61,East,92,0.0,0.0,97,0.00,,---,0.04,VWS V14.01,2013-03-18 15:09:00,
2013-03-18 11:10:00,27.9,1.2,28.85,NW,312,15.2,20.1,31,0.00,,---,0.00,VWS V14.01,2013-03-18 15:10:00,
2013-03-18 11:11:00,27.9,1.2,28.85,West,270,16.3,19.5,31,0.00,,---,0.00,VWS V14.01,2013-03-18 15:11:00,
2013-03-18 11:12:00,27.7,1.0,28.85,WNW,290,25.3,25.3,31,0.00,,---,0.00,VWS V14.01,2013-03-18 15:12:00,
2013-03-18 11:13:00,27.7,1.7,28.85,WNW,285,15.9,25.3,32,0.00,,---,0.00,VWS V14.01,2013-03-18 15:13:00,
2013-03-18 11:14:00,34.3,33.6,28.61,ENE,69,0.0,0.0,97,0.00,,---,0.04,VWS V14.01,2013-03-18 15:14:00,
2013-03-18 11:15:00,28.0,2.7,28.85,WNW,285,8.7,15.9,33,0.00,,---,0.00,VWS V14.01,2013-03-18 15:15:00,
2013-03-18 11:16:00,28.0,2.7,28.85,NNW,327,11.6,14.8,33,0.00,,---,0.00,VWS V14.01,2013-03-18 15:16:00,
2013-03-18 11:17:00,27.9,3.2,28.85,NW,325,12.5,19.0,34,0.00,,---,0.00,VWS V14.01,2013-03-18 15:17:00,
2013-03-18 11:18:00,27.3,2.7,28.85,WNW,301,19.0,20.6,34,0.00,,---,0.00,VWS V14.01,2013-03-18 15:18:00,
2013-03-18 11:19:00,34.3,33.6,28.61,SE,126,0.0,0.0,97,0.00,,---,0.04,VWS V14.01,2013-03-18 15:19:00,
2013-03-18 11:20:00,26.4,1.2,28.85,WNW,295,12.5,23.7,33,0.00,,---,0.00,VWS V14.01,2013-03-18 15:20:00,
2013-03-18 11:21:00,26.4,1.2,28.85,SW,226,18.6,21.9,33,0.00,,---,0.00,VWS V14.01,2013-03-18 15:21:00,
2013-03-18 11:22:00,26.4,0.6,28.85,West,265,14.8,19.0,32,0.00,,---,0.00,VWS V14.01,2013-03-18 15:22:00,
2013-03-18 11:23:00,26.8,1.5,28.85,West,270,14.8,23.7,33,0.00,,---,0.00,VWS V14.01,2013-03-18 15:23:00,
2013-03-18 11:24:00,34.5,33.8,28.61,East,87,0.0,0.0,97,0.00,,---,0.04,VWS V14.01,2013-03-18 15:24:00,
2013-03-18 11:25:00,27.5,2.2,28.85,WNW,295,16.8,17.2,33,0.00,,---,0.00,VWS V14.01,2013-03-18 15:25:00,
2013-03-18 11:26:00,27.7,1.7,28.85,WNW,301,18.6,18.6,32,0.00,,---,0.00,VWS V14.01,2013-03-18 15:26:00,
2013-03-18 11:27:00,27.5,1.5,28.85,West,280,8.7,18.6,32,0.00,,---,0.00,VWS V14.01,2013-03-18 15:27:00,
2013-03-18 11:28:00,27.7,1.7,28.85,WNW,282,16.8,19.5,32,0.00,,---,0.00,VWS V14.01,2013-03-18 15:28:00,
2013-03-18 11:29:00,34.5,33.8,28.59,ESE,111,0.0,0.0,97,0.00,,---,0.04,VWS V14.01,2013-03-18 15:29:00,
2013-03-18 11:30:00,27.5,0.8,28.85,West,276,10.5,21.5,31,0.00,,---,0.00,VWS V14.01,2013-03-18 15:30:00,
2013-03-18 11:34:00,34.7,33.9,28.59,East,92,0.0,0.0,97,0.00,,---,0.04,VWS V14.01,2013-03-18 15:34:00,
2013-03-18 11:35:00,27.5,0.8,28.85,West,276,10.5,10.5,31,0.00,,---,0.00,VWS V14.01,2013-03-18 15:35:00,
2013-03-18 11:36:00,27.3,1.4,28.85,WNW,299,14.8,22.8,32,0.00,,---,0.00,VWS V14.01,2013-03-18 15:36:00,
2013-03-18 11:37:00,27.5,1.5,28.85,WSW,243,12.5,24.2,32,0.00,,---,0.00,VWS V14.01,2013-03-18 15:37:00,
2013-03-18 11:38:00,27.5,0.8,28.85,WSW,253,20.1,22.4,31,0.00,,---,0.00,VWS V14.01,2013-03-18 15:38:00,
2013-03-18 11:39:00,34.7,33.9,28.59,ESE,123,0.0,0.0,97,0.00,,---,0.04,VWS V14.01,2013-03-18 15:39:00,
2013-03-18 11:40:00,27.7,1.0,28.85,NW,305,19.5,19.5,31,0.00,,---,0.00,VWS V14.01,2013-03-18 15:40:00,
2013-03-18 11:41:00,27.5,0.8,28.85,NW,306,15.9,19.5,31,0.00,,---,0.00,VWS V14.01,2013-03-18 15:41:00,
2013-03-18 11:42:00,27.5,0.8,28.85,West,268,12.5,21.5,31,0.00,,---,0.00,VWS V14.01,2013-03-18 15:42:00,
2013-03-18 11:43:00,27.5,0.8,28.85,West,267,13.4,19.0,31,0.00,,---,0.00,VWS V14.01,2013-03-18 15:43:00,
2013-03-18 11:44:00,34.9,34.1,28.59,ESE,120,0.0,0.0,97,0.00,,---,0.04,VWS V14.01,2013-03-18 15:44:00,
2013-03-18 11:45:00,27.5,0.8,28.85,NW,313,13.0,25.3,31,0.00,,---,0.00,VWS V14.01,2013-03-18 15:45:00,
2013-03-18 11:46:00,27.7,1.0,28.85,WSW,254,8.7,19.0,31,0.00,,---,0.00,VWS V14.01,2013-03-18 15:46:00,
2013-03-18 11:47:00,27.7,1.0,28.85,West,276,13.9,20.1,31,0.00,,---,0.00,VWS V14.01,2013-03-18 15:47:00,
2013-03-18 11:48:00,28.0,1.3,28.85,NW,307,7.8,15.2,31,0.00,,---,0.00,VWS V14.01,2013-03-18 15:48:00,
2013-03-18 11:49:00,34.9,34.1,28.59,ESE,118,0.0,0.0,97,0.00,,---,0.04,VWS V14.01,2013-03-18 15:49:00,
2013-03-18 11:50:00,28.6,1.8,28.85,NW,304,10.1,19.0,31,0.00,,---,0.00,VWS V14.01,2013-03-18 15:50:00,
2013-03-18 11:51:00,28.4,1.6,28.85,West,264,16.8,20.1,31,0.00,,---,0.00,VWS V14.01,2013-03-18 15:51:00,
2013-03-18 11:52:00,28.2,1.5,28.85,WNW,287,12.5,19.5,31,0.00,,---,0.00,VWS V14.01,2013-03-18 15:52:00,
2013-03-18 11:53:00,28.6,2.5,28.85,NW,307,14.8,15.2,32,0.00,,---,0.00,VWS V14.01,2013-03-18 15:53:00,
2013-03-18 11:54:00,34.9,34.1,28.59,ESE,119,0.0,0.0,97,0.00,,---,0.04,VWS V14.01,2013-03-18 15:54:00,
2013-03-18 11:55:00,28.8,2.6,28.85,WNW,289,20.6,20.6,32,0.00,,---,0.00,VWS V14.01,2013-03-18 15:55:00,
2013-03-18 11:56:00,28.9,2.8,28.85,West,265,15.9,20.6,32,0.00,,---,0.00,VWS V14.01,2013-03-18 15:56:00,
2013-03-18 11:57:00,28.8,3.3,28.85,WSW,237,10.5,21.9,33,0.00,,---,0.00,VWS V14.01,2013-03-18 15:57:00,
2013-03-18 11:58:00,28.8,3.3,28.85,NW,315,8.7,13.4,33,0.00,,---,0.00,VWS V14.01,2013-03-18 15:58:00,
2013-03-18 11:59:00,35.1,34.3,28.59,ESE,118,0.0,0.0,97,0.00,,---,0.04,VWS V14.01,2013-03-18 15:59:00,
2013-03-18 12:00:00,28.4,3.0,28.85,West,267,16.8,16.8,33,0.00,,---,0.00,VWS V14.01,2013-03-18 16:00:00,
2013-03-18 12:01:00,28.6,3.1,28.85,West,259,14.3,17.7,33,0.00,,---,0.00,VWS V14.01,2013-03-18 16:01:00,
2013-03-18 12:02:00,28.4,3.0,28.85,WNW,282,16.8,16.8,33,0.00,,---,0.00,VWS V14.01,2013-03-18 16:02:00,
2013-03-18 12:03:00,28.4,3.0,28.85,WSW,258,13.0,16.8,33,0.00,,---,0.00,VWS V14.01,2013-03-18 16:03:00,
2013-03-18 12:04:00,35.1,34.3,28.59,ESE,107,0.0,0.0,97,0.00,,---,0.04,VWS V14.01,2013-03-18 16:04:00,
2013-03-18 12:05:00,28.6,3.8,28.85,WNW,283,18.1,18.1,34,0.00,,---,0.00,VWS V14.01,2013-03-18 16:05:00,
2013-03-18 12:06:00,28.8,3.9,28.85,WNW,299,8.3,22.4,34,0.00,,---,0.00,VWS V14.01,2013-03-18 16:06:00,
2013-03-18 12:07:00,28.9,3.5,28.85,WSW,249,16.3,24.2,33,0.00,,---,0.00,VWS V14.01,2013-03-18 16:07:00,
2013-03-18 12:08:00,28.6,3.1,28.85,WNW,291,10.1,21.9,33,0.00,,---,0.00,VWS V14.01,2013-03-18 16:08:00,
2013-03-18 12:09:00,35.2,34.5,28.59,East,95,0.0,0.0,97,0.00,,---,0.04,VWS V14.01,2013-03-18 16:09:00,
2013-03-18 12:10:00,28.9,3.5,28.85,West,275,10.5,19.0,33,0.00,,---,0.00,VWS V14.01,2013-03-18 16:10:00,
2013-03-18 12:11:00,29.3,3.8,28.85,West,279,10.1,15.2,33,0.00,,---,0.00,VWS V14.01,2013-03-18 16:11:00,
2013-03-18 12:12:00,29.1,3.6,28.88,West,267,10.1,24.4,33,0.00,,---,0.00,VWS V14.01,2013-03-18 16:12:00,
2013-03-18 12:13:00,29.3,3.8,28.88,WNW,295,15.9,15.9,33,0.00,,---,0.00,VWS V14.01,2013-03-18 16:13:00,
2013-03-18 12:14:00,35.2,34.5,28.59,ESE,120,0.0,0.0,97,0.00,,---,0.04,VWS V14.01,2013-03-18 16:14:00,
2013-03-18 12:15:00,29.1,3.6,28.88,NW,322,12.1,18.6,33,0.00,,---,0.00,VWS V14.01,2013-03-18 16:15:00,
2013-03-18 12:16:00,29.5,3.3,28.88,WNW,287,12.5,15.2,32,0.00,,---,0.00,VWS V14.01,2013-03-18 16:16:00,
2013-03-18 12:17:00,29.7,3.4,28.88,West,275,16.8,21.5,32,0.00,,---,0.00,VWS V14.01,2013-03-18 16:17:00,
2013-03-18 12:18:00,29.7,3.4,28.88,West,272,12.1,19.9,32,0.00,,---,0.00,VWS V14.01,2013-03-18 16:18:00,
2013-03-18 12:19:00,35.4,34.7,28.59,ESE,106,0.0,0.0,97,0.00,,---,0.04,VWS V14.01,2013-03-18 16:19:00,
2013-03-18 12:20:00,29.7,2.7,28.88,NW,324,12.1,19.9,31,0.00,,---,0.00,VWS V14.01,2013-03-18 16:20:00,
2013-03-18 12:21:00,29.5,2.6,28.88,SW,235,9.6,24.2,31,0.00,,---,0.00,VWS V14.01,2013-03-18 16:21:00,
2013-03-18 12:22:00,29.8,3.6,28.88,WSW,249,12.1,13.0,32,0.00,,---,0.00,VWS V14.01,2013-03-18 16:22:00,
2013-03-18 12:23:00,30.2,3.9,28.88,WNW,282,11.6,17.7,32,0.00,,---,0.00,VWS V14.01,2013-03-18 16:23:00,
2013-03-18 12:24:00,35.4,34.7,28.59,ESE,106,0.0,0.0,97,0.00,,---,0.04,VWS V14.01,2013-03-18 16:24:00,
2013-03-18 12:25:00,30.4,4.1,28.88,West,267,13.9,14.8,32,0.00,,---,0.00,VWS V14.01,2013-03-18 16:25:00,
2013-03-18 12:26:00,30.6,4.2,28.88,NW,316,14.3,19.0,32,0.00,,---,0.00,VWS V14.01,2013-03-18 16:26:00,
2013-03-18 12:27:00,30.7,4.4,28.88,WSW,254,13.0,17.2,32,0.00,,---,0.00,VWS V14.01,2013-03-18 16:27:00,
2013-03-18 12:28:00,30.6,3.5,28.88,WSW,251,17.2,19.9,31,0.00,,---,0.00,VWS V14.01,2013-03-18 16:28:00,
2013-03-18 12:29:00,35.4,34.7,28.59,ESE,117,0.0,0.0,97,0.00,,---,0.04,VWS V14.01,2013-03-18 16:29:00,
2013-03-18 12:30:00,30.2,3.9,28.88,WSW,249,14.3,23.7,32,0.00,,---,0.00,VWS V14.01,2013-03-18 16:30:00,
2013-03-18 12:31:00,29.8,2.9,28.88,WSW,256,17.7,18.1,31,0.00,,---,0.00,VWS V14.01,2013-03-18 16:31:00,
2013-03-18 12:32:00,29.7,2.7,28.88,WNW,284,19.9,19.9,31,0.00,,---,0.00,VWS V14.01,2013-03-18 16:32:00,
2013-03-18 12:33:00,29.5,2.6,28.88,NW,308,11.6,23.3,31,0.00,,---,0.00,VWS V14.01,2013-03-18 16:33:00,
2013-03-18 12:34:00,35.6,34.8,28.59,SE,129,0.0,0.0,97,0.00,,---,0.04,VWS V14.01,2013-03-18 16:34:00,
2013-03-18 12:35:00,29.7,2.7,28.88,West,266,11.0,21.5,31,0.00,,---,0.00,VWS V14.01,2013-03-18 16:35:00,
2013-03-18 12:36:00,29.7,2.7,28.88,SSW,200,13.4,18.1,31,0.00,,---,0.00,VWS V14.01,2013-03-18 16:36:00,
2013-03-18 12:37:00,29.7,2.7,28.88,West,263,14.3,18.6,31,0.00,,---,0.00,VWS V14.01,2013-03-18 16:37:00,
2013-03-18 12:38:00,29.8,3.6,28.88,NW,311,19.0,19.0,32,0.00,,---,0.00,VWS V14.01,2013-03-18 16:38:00,
2013-03-18 12:39:00,35.6,34.8,28.59,ESE,118,0.0,0.0,97,0.00,,---,0.04,VWS V14.01,2013-03-18 16:39:00,
2013-03-18 12:40:00,29.7,2.7,28.88,West,278,14.8,19.9,31,0.00,,---,0.00,VWS V14.01,2013-03-18 16:40:00,
2013-03-18 12:41:00,29.3,3.1,28.88,WSW,243,9.2,16.8,32,0.00,,---,0.00,VWS V14.01,2013-03-18 16:41:00,
2013-03-18 12:42:00,29.7,3.4,28.88,WSW,237,13.4,17.7,32,0.00,,---,0.00,VWS V14.01,2013-03-18 16:42:00,
2013-03-18 12:43:00,30.2,3.9,28.88,NW,317,13.0,15.2,32,0.00,,---,0.00,VWS V14.01,2013-03-18 16:43:00,
2013-03-18 12:44:00,35.4,34.7,28.59,ESE,118,0.0,0.0,97,0.00,,---,0.04,VWS V14.01,2013-03-18 16:44:00,
2013-03-18 12:45:00,30.4,4.1,28.88,WSW,254,13.0,20.6,32,0.00,,---,0.00,VWS V14.01,2013-03-18 16:45:00,
2013-03-18 12:46:00,30.4,4.1,28.88,WSW,251,9.6,20.6,32,0.00,,---,0.00,VWS V14.01,2013-03-18 16:46:00,
2013-03-18 12:47:00,30.7,4.4,28.88,NW,310,18.6,18.6,32,0.00,,---,0.00,VWS V14.01,2013-03-18 16:47:00,
2013-03-18 12:48:00,30.7,4.4,28.88,West,271,9.6,19.5,32,0.00,,---,0.00,VWS V14.01,2013-03-18 16:48:00,
2013-03-18 12:49:00,35.6,34.8,28.59,ESE,115,0.0,0.0,97,0.04,,---,0.08,VWS V14.01,2013-03-18 16:49:00,
2013-03-18 12:50:00,30.4,4.1,28.88,WNW,298,19.9,19.9,32,0.00,,---,0.00,VWS V14.01,2013-03-18 16:50:00,
2013-03-18 12:51:00,30.2,3.9,28.88,WNW,294,11.0,20.6,32,0.00,,---,0.00,VWS V14.01,2013-03-18 16:51:00,
2013-03-18 12:52:00,30.2,3.9,28.88,West,271,17.7,18.6,32,0.00,,---,0.00,VWS V14.01,2013-03-18 16:52:00,
2013-03-18 12:53:00,30.4,4.1,28.88,West,268,12.5,19.9,32,0.00,,---,0.00,VWS V14.01,2013-03-18 16:53:00,
2013-03-18 12:54:00,35.6,34.8,28.59,ESE,106,3.6,4.0,97,0.04,,---,0.08,VWS V14.01,2013-03-18 16:54:00,
2013-03-18 12:55:00,29.8,2.9,28.88,West,273,15.2,18.6,31,0.00,,---,0.00,VWS V14.01,2013-03-18 16:55:00,
2013-03-18 12:56:00,30.0,3.1,28.88,WSW,253,13.9,18.1,31,0.00,,---,0.00,VWS V14.01,2013-03-18 16:56:00,
2013-03-18 12:57:00,30.4,4.1,28.88,West,272,16.8,17.2,32,0.00,,---,0.00,VWS V14.01,2013-03-18 16:57:00,
2013-03-18 12:58:00,30.4,3.4,28.88,WSW,238,22.4,22.4,31,0.00,,---,0.00,VWS V14.01,2013-03-18 16:58:00,
2013-03-18 12:59:00,35.8,35.0,28.59,East,96,0.0,4.9,97,0.04,,---,0.08,VWS V14.01,2013-03-18 16:59:00,
2013-03-18 13:00:00,30.9,3.8,28.88,WNW,298,13.4,19.5,31,0.00,,---,0.00,VWS V14.01,2013-03-18 17:00:00,
2013-03-18 13:01:00,30.4,3.4,28.88,SW,216,13.4,21.9,31,0.00,,---,0.00,VWS V14.01,2013-03-18 17:01:00,
2013-03-18 13:02:00,30.4,2.7,28.88,NW,307,7.4,13.4,30,0.00,,---,0.00,VWS V14.01,2013-03-18 17:02:00,
2013-03-18 13:03:00,30.4,3.4,28.88,NW,313,17.7,19.0,31,0.00,,---,0.00,VWS V14.01,2013-03-18 17:03:00,
2013-03-18 13:04:00,36.1,35.4,28.59,ESE,109,0.0,5.4,97,0.04,,---,0.08,VWS V14.01,2013-03-18 17:04:00,
2013-03-18 13:05:00,30.4,3.4,28.88,WSW,250,18.1,21.0,31,0.00,,---,0.00,VWS V14.01,2013-03-18 17:05:00,
2013-03-18 13:06:00,30.2,3.2,28.88,West,276,7.8,19.9,31,0.00,,---,0.00,VWS V14.01,2013-03-18 17:06:00,
2013-03-18 13:07:00,30.4,4.1,28.88,WSW,252,13.0,15.2,32,0.00,,---,0.00,VWS V14.01,2013-03-18 17:07:00,
2013-03-18 13:08:00,30.0,3.8,28.88,NW,307,17.7,21.0,32,0.00,,---,0.00,VWS V14.01,2013-03-18 17:08:00,
2013-03-18 13:09:00,36.1,35.4,28.59,ESE,116,3.1,4.5,97,0.04,,---,0.08,VWS V14.01,2013-03-18 17:09:00,
2013-03-18 13:10:00,28.8,2.6,28.88,WNW,291,14.3,22.8,32,0.00,,---,0.00,VWS V14.01,2013-03-18 17:10:00,
2013-03-18 13:11:00,28.9,2.8,28.88,NW,315,9.6,21.5,32,0.00,,---,0.00,VWS V14.01,2013-03-18 17:11:00,
2013-03-18 13:12:00,29.3,3.1,28.88,WNW,286,11.2,16.8,32,0.00,,---,0.00,VWS V14.01,2013-03-18 17:12:00,
2013-03-18 13:13:00,29.7,3.4,28.88,West,273,18.6,18.6,32,0.00,,---,0.00,VWS V14.01,2013-03-18 17:13:00,
2013-03-18 13:14:00,36.3,35.5,28.59,ESE,107,5.4,5.4,97,0.04,,---,0.08,VWS V14.01,2013-03-18 17:14:00,
2013-03-18 13:15:00,30.2,3.9,28.88,NW,308,18.1,23.3,32,0.00,,---,0.00,VWS V14.01,2013-03-18 17:15:00,
2013-03-18 13:16:00,30.0,3.1,28.88,West,271,14.8,24.4,31,0.00,,---,0.00,VWS V14.01,2013-03-18 17:16:00,
2013-03-18 13:17:00,30.2,3.2,28.88,NNW,339,11.0,17.2,31,0.00,,---,0.00,VWS V14.01,2013-03-18 17:17:00,
2013-03-18 13:18:00,30.4,3.4,28.88,West,276,8.7,13.4,31,0.00,,---,0.00,VWS V14.01,2013-03-18 17:18:00,
2013-03-18 13:19:00,36.5,35.7,28.59,East,100,3.6,3.6,97,0.04,,---,0.08,VWS V14.01,2013-03-18 17:19:00,
2013-03-18 13:20:00,30.7,3.7,28.88,WNW,293,18.1,18.1,31,0.00,,---,0.00,VWS V14.01,2013-03-18 17:20:00,
2013-03-18 13:21:00,30.2,2.5,28.88,WSW,256,13.9,18.6,30,0.00,,---,0.00,VWS V14.01,2013-03-18 17:21:00,
2013-03-18 13:22:00,29.8,2.2,28.88,West,278,7.4,17.2,30,0.00,,---,0.00,VWS V14.01,2013-03-18 17:22:00,
2013-03-18 13:23:00,30.4,3.4,28.88,West,267,9.2,13.9,31,0.00,,---,0.00,VWS V14.01,2013-03-18 17:23:00,
2013-03-18 13:24:00,30.7,4.4,28.88,NW,322,13.0,15.2,32,0.00,,---,0.00,VWS V14.01,2013-03-18 17:24:00,
2013-03-18 13:25:00,36.7,35.9,28.59,East,100,0.0,0.0,97,0.04,,---,0.08,VWS V14.01,2013-03-18 17:25:00,
2013-03-18 13:26:00,30.9,4.5,28.88,West,268,13.9,16.8,32,0.00,,---,0.00,VWS V14.01,2013-03-18 17:26:00,
2013-03-18 13:27:00,31.1,4.7,28.88,WNW,287,10.5,22.4,32,0.00,,---,0.00,VWS V14.01,2013-03-18 17:27:00,
2013-03-18 13:28:00,31.5,4.3,28.88,NW,307,7.4,17.2,31,0.00,,---,0.00,VWS V14.01,2013-03-18 17:28:00,
2013-03-18 13:29:00,31.5,4.3,28.88,West,270,12.5,25.7,31,0.00,,---,0.00,VWS V14.01,2013-03-18 17:29:00,
2013-03-18 13:30:00,36.7,35.9,28.59,ESE,111,5.8,6.3,97,0.04,,---,0.08,VWS V14.01,2013-03-18 17:30:00,
2013-03-18 13:31:00,32.0,4.8,28.88,West,265,12.1,20.1,31,0.00,,---,0.00,VWS V14.01,2013-03-18 17:31:00,
2013-03-18 13:32:00,31.8,4.6,28.88,WSW,253,17.7,22.8,31,0.00,,---,0.00,VWS V14.01,2013-03-18 17:32:00,
2013-03-18 13:33:00,31.3,3.5,28.88,WNW,290,17.7,17.7,30,0.00,,---,0.00,VWS V14.01,2013-03-18 17:33:00,
2013-03-18 13:34:00,31.6,4.5,28.88,NW,305,20.6,21.5,31,0.00,,---,0.00,VWS V14.01,2013-03-18 17:34:00,
2013-03-18 13:35:00,36.7,35.9,28.59,SE,129,3.1,3.6,97,0.08,,---,0.12,VWS V14.01,2013-03-18 17:35:00,
2013-03-18 13:36:00,31.5,3.6,28.88,NNW,331,12.5,22.4,30,0.00,,---,0.00,VWS V14.01,2013-03-18 17:36:00,
2013-03-18 13:37:00,31.5,3.6,28.88,West,270,10.1,17.7,30,0.00,,---,0.00,VWS V14.01,2013-03-18 17:37:00,
2013-03-18 13:38:00,31.6,3.8,28.88,NW,315,13.9,13.9,30,0.00,,---,0.00,VWS V14.01,2013-03-18 17:38:00,
2013-03-18 13:39:00,31.5,4.3,28.88,WSW,254,17.7,17.7,31,0.00,,---,0.00,VWS V14.01,2013-03-18 17:39:00,
2013-03-18 13:40:00,37.0,36.3,28.59,ESE,117,4.9,5.4,97,0.08,,---,0.12,VWS V14.01,2013-03-18 17:40:00,
2013-03-18 13:41:00,30.9,4.5,28.88,West,281,15.2,15.9,32,0.00,,---,0.00,VWS V14.01,2013-03-18 17:41:00,
2013-03-18 13:42:00,30.9,4.5,28.91,WNW,291,11.6,17.7,32,0.00,,---,0.00,VWS V14.01,2013-03-18 17:42:00,
2013-03-18 13:43:00,30.6,4.2,28.91,WSW,252,20.6,20.6,32,0.00,,---,0.00,VWS V14.01,2013-03-18 17:43:00,
2013-03-18 13:44:00,30.2,3.9,28.91,WNW,293,23.7,23.7,32,0.00,,---,0.00,VWS V14.01,2013-03-18 17:44:00,
2013-03-18 13:45:00,37.4,36.6,28.56,ESE,111,4.9,5.8,97,0.08,,---,0.12,VWS V14.01,2013-03-18 17:45:00,
2013-03-18 13:46:00,29.7,4.1,28.91,WNW,287,11.2,15.9,33,0.00,,---,0.00,VWS V14.01,2013-03-18 17:46:00,
2013-03-18 13:47:00,29.8,4.9,28.91,WNW,300,18.1,18.6,34,0.00,,---,0.00,VWS V14.01,2013-03-18 17:47:00,
2013-03-18 13:48:00,29.7,4.1,28.91,West,269,11.2,18.1,33,0.00,,---,0.00,VWS V14.01,2013-03-18 17:48:00,
2013-03-18 13:49:00,29.5,3.3,28.91,NW,310,21.5,22.4,32,0.00,,---,0.00,VWS V14.01,2013-03-18 17:49:00,
2013-03-18 13:50:00,37.6,36.8,28.56,East,97,6.7,7.8,97,0.04,,---,0.12,VWS V14.01,2013-03-18 17:50:00,
2013-03-18 13:51:00,30.2,4.6,28.91,WSW,249,9.2,20.1,33,0.00,,---,0.00,VWS V14.01,2013-03-18 17:51:00,
2013-03-18 13:52:00,30.7,5.1,28.91,West,276,18.1,19.5,33,0.00,,---,0.00,VWS V14.01,2013-03-18 17:52:00,
2013-03-18 13:53:00,30.7,4.4,28.91,NW,320,19.9,22.8,32,0.00,,---,0.00,VWS V14.01,2013-03-18 17:53:00,
2013-03-18 13:54:00,30.9,4.5,28.91,North,356,13.9,21.5,32,0.00,,---,0.00,VWS V14.01,2013-03-18 17:54:00,
2013-03-18 13:55:00,37.6,36.8,28.56,SE,131,6.3,6.3,97,0.04,,---,0.12,VWS V14.01,2013-03-18 17:55:00,
2013-03-18 13:56:00,31.5,4.3,28.91,WSW,250,18.6,23.3,31,0.00,,---,0.00,VWS V14.01,2013-03-18 17:56:00,
2013-03-18 13:57:00,31.6,4.5,28.91,NW,314,13.4,19.0,31,0.00,,---,0.00,VWS V14.01,2013-03-18 17:57:00,
2013-03-18 13:58:00,31.6,4.5,28.91,NW,307,18.1,21.0,31,0.00,,---,0.00,VWS V14.01,2013-03-18 17:58:00,
2013-03-18 13:59:00,31.6,4.5,28.91,West,276,18.6,19.9,31,0.00,,---,0.00,VWS V14.01,2013-03-18 17:59:00,
2013-03-18 14:00:00,37.8,37.0,28.56,ESE,110,3.6,6.7,97,0.04,,---,0.12,VWS V14.01,2013-03-18 18:00:00,
2013-03-18 14:01:00,32.2,4.2,28.91,West,268,17.7,17.7,30,0.00,,---,0.00,VWS V14.01,2013-03-18 18:01:00,
2013-03-18 14:02:00,32.5,4.6,28.91,NW,314,15.9,22.4,30,0.00,,---,0.00,VWS V14.01,2013-03-18 18:02:00,
2013-03-18 14:03:00,31.6,3.8,28.91,WSW,258,17.7,23.3,30,0.00,,---,0.00,VWS V14.01,2013-03-18 18:03:00,
2013-03-18 14:04:00,31.3,3.5,28.91,NW,313,8.3,19.0,30,0.00,,---,0.00,VWS V14.01,2013-03-18 18:04:00,
2013-03-18 14:05:00,38.1,37.3,28.56,ESE,108,6.3,6.3,97,0.04,,---,0.12,VWS V14.01,2013-03-18 18:05:00,
2013-03-18 14:06:00,32.5,5.3,28.91,WNW,290,15.2,15.9,31,0.00,,---,0.00,VWS V14.01,2013-03-18 18:06:00,
2013-03-18 14:07:00,32.7,5.4,28.91,WNW,290,22.8,22.8,31,0.00,,---,0.00,VWS V14.01,2013-03-18 18:07:00,
2013-03-18 14:08:00,32.9,5.6,28.91,WSW,251,15.9,22.8,31,0.00,,---,0.00,VWS V14.01,2013-03-18 18:08:00,
2013-03-18 14:09:00,33.6,6.2,28.91,West,279,12.5,15.9,31,0.00,,---,0.00,VWS V14.01,2013-03-18 18:09:00,
2013-03-18 14:10:00,38.3,37.5,28.56,ESE,110,5.4,5.4,97,0.04,,---,0.12,VWS V14.01,2013-03-18 18:10:00,
2013-03-18 14:11:00,33.8,5.7,28.91,WSW,258,12.5,24.2,30,0.00,,---,0.00,VWS V14.01,2013-03-18 18:11:00,
2013-03-18 14:12:00,33.6,5.5,28.91,West,281,10.5,19.9,30,0.00,,---,0.00,VWS V14.01,2013-03-18 18:12:00,
2013-03-18 14:13:00,33.3,5.2,28.91,WNW,287,11.2,26.6,30,0.00,,---,0.00,VWS V14.01,2013-03-18 18:13:00,
2013-03-18 14:14:00,33.3,5.2,28.91,West,276,15.4,19.9,30,0.00,,---,0.00,VWS V14.01,2013-03-18 18:14:00,
2013-03-18 14:15:00,38.3,37.5,28.53,SE,132,0.0,3.6,97,0.04,,---,0.12,VWS V14.01,2013-03-18 18:15:00,
2013-03-18 14:16:00,34.0,5.8,28.91,WNW,288,11.0,18.1,30,0.00,,---,0.00,VWS V14.01,2013-03-18 18:16:00,
2013-03-18 14:17:00,33.8,5.7,28.91,WSW,258,12.1,17.7,30,0.00,,---,0.00,VWS V14.01,2013-03-18 18:17:00,
2013-03-18 14:18:00,33.8,5.7,28.91,WNW,290,19.5,19.5,30,0.00,,---,0.00,VWS V14.01,2013-03-18 18:18:00,
2013-03-18 14:19:00,33.8,5.7,28.91,West,268,21.9,21.9,30,0.00,,---,0.00,VWS V14.01,2013-03-18 18:19:00,
2013-03-18 14:20:00,38.7,37.9,28.53,SE,130,0.0,4.0,97,0.04,,---,0.12,VWS V14.01,2013-03-18 18:20:00,
2013-03-18 14:21:00,33.3,5.2,28.91,NNW,333,15.2,17.7,30,0.00,,---,0.00,VWS V14.01,2013-03-18 18:21:00,
2013-03-18 14:22:00,33.1,5.0,28.91,NNW,330,17.2,17.2,30,0.00,,---,0.00,VWS V14.01,2013-03-18 18:22:00,
2013-03-18 14:23:00,32.7,3.2,28.91,West,274,11.0,20.1,28,0.00,,---,0.00,VWS V14.01,2013-03-18 18:23:00,
2013-03-18 14:24:00,32.7,4.7,28.91,WNW,282,11.0,15.2,30,0.00,,---,0.00,VWS V14.01,2013-03-18 18:24:00,
2013-03-18 14:25:00,38.7,37.9,28.53,ESE,105,4.5,4.5,97,0.04,,---,0.12,VWS V14.01,2013-03-18 18:25:00,
2013-03-18 14:26:00,33.1,5.0,28.91,SW,229,11.6,21.0,30,0.00,,---,0.00,VWS V14.01,2013-03-18 18:26:00,
2013-03-18 14:27:00,33.1,5.0,28.91,WSW,251,19.5,19.5,30,0.00,,---,0.00,VWS V14.01,2013-03-18 18:27:00,
2013-03-18 14:28:00,33.1,5.0,28.91,WNW,303,7.4,19.5,30,0.00,,---,0.00,VWS V14.01,2013-03-18 18:28:00,
2013-03-18 14:29:00,33.4,5.3,28.91,WNW,292,13.4,15.4,30,0.00,,---,0.00,VWS V14.01,2013-03-18 18:29:00,
2013-03-18 14:30:00,38.8,38.1,28.53,SE,130,0.0,3.6,97,0.04,,---,0.12,VWS V14.01,2013-03-18 18:30:00,
2013-03-18 14:31:00,33.3,5.2,28.91,WNW,296,19.5,21.9,30,0.00,,---,0.00,VWS V14.01,2013-03-18 18:31:00,
2013-03-18 14:32:00,32.7,4.7,28.91,West,280,11.2,20.1,30,0.00,,---,0.00,VWS V14.01,2013-03-18 18:32:00,
2013-03-18 14:33:00,32.7,5.4,28.91,West,277,12.1,17.7,31,0.00,,---,0.00,VWS V14.01,2013-03-18 18:33:00,
2013-03-18 14:34:00,32.7,5.4,28.91,WNW,300,14.3,19.0,31,0.00,,---,0.00,VWS V14.01,2013-03-18 18:34:00,
2013-03-18 14:35:00,38.8,38.1,28.53,SE,138,3.6,5.4,97,0.04,,---,0.12,VWS V14.01,2013-03-18 18:35:00,
2013-03-18 14:36:00,32.5,5.3,28.91,West,271,23.7,28.6,31,0.00,,---,0.00,VWS V14.01,2013-03-18 18:36:00,
2013-03-18 14:37:00,32.5,5.3,28.91,West,259,12.1,23.7,31,0.00,,---,0.00,VWS V14.01,2013-03-18 18:37:00,
2013-03-18 14:38:00,33.1,5.8,28.91,WNW,285,16.3,20.6,31,0.00,,---,0.00,VWS V14.01,2013-03-18 18:38:00,
2013-03-18 14:39:00,33.4,5.3,28.91,WSW,250,16.3,19.5,30,0.00,,---,0.00,VWS V14.01,2013-03-18 18:39:00,
2013-03-18 14:40:00,39.2,38.4,28.53,SE,138,3.6,4.5,97,0.00,,---,0.12,VWS V14.01,2013-03-18 18:40:00,
2013-03-18 14:41:00,33.1,5.0,28.91,NW,316,13.9,18.1,30,0.00,,---,0.00,VWS V14.01,2013-03-18 18:41:00,
2013-03-18 14:42:00,33.4,6.1,28.91,WSW,258,13.0,13.9,31,0.00,,---,0.00,VWS V14.01,2013-03-18 18:42:00,
2013-03-18 14:43:00,34.2,6.0,28.91,WNW,298,17.7,24.8,30,0.00,,---,0.00,VWS V14.01,2013-03-18 18:43:00,
2013-03-18 14:44:00,34.0,5.8,28.91,WSW,238,14.8,20.1,30,0.00,,---,0.00,VWS V14.01,2013-03-18 18:44:00,
2013-03-18 14:45:00,39.6,38.8,28.50,SSE,151,4.0,4.9,97,0.00,,---,0.12,VWS V14.01,2013-03-18 18:45:00,
2013-03-18 14:46:00,33.6,3.2,28.91,WNW,287,13.0,22.8,27,0.00,,---,0.00,VWS V14.01,2013-03-18 18:46:00,
2013-03-18 14:47:00,33.8,3.4,28.91,NW,316,19.9,21.9,27,0.00,,---,0.00,VWS V14.01,2013-03-18 18:47:00,
2013-03-18 14:48:00,34.0,3.5,28.91,NW,311,12.1,19.9,27,0.00,,---,0.00,VWS V14.01,2013-03-18 18:48:00,
2013-03-18 14:49:00,34.2,3.7,28.91,West,261,15.9,19.9,27,0.00,,---,0.00,VWS V14.01,2013-03-18 18:49:00,
2013-03-18 14:50:00,39.9,39.1,28.50,SSW,213,4.0,6.7,97,0.00,,---,0.12,VWS V14.01,2013-03-18 18:50:00,
2013-03-18 14:51:00,34.0,3.5,28.91,NW,321,11.6,23.7,27,0.00,,---,0.00,VWS V14.01,2013-03-18 18:51:00,
2013-03-18 14:52:00,34.2,3.7,28.91,NW,311,16.3,19.9,27,0.00,,---,0.00,VWS V14.01,2013-03-18 18:52:00,
2013-03-18 14:53:00,34.0,3.5,28.91,NW,308,11.6,17.7,27,0.00,,---,0.00,VWS V14.01,2013-03-18 18:53:00,
2013-03-18 14:55:00,39.9,39.1,28.50,SW,226,3.6,4.9,97,0.00,,---,0.12,VWS V14.01,2013-03-18 18:55:00,
2013-03-18 14:56:00,34.3,6.1,28.91,NW,311,19.5,22.4,30,0.00,,---,0.00,VWS V14.01,2013-03-18 18:56:00,
2013-03-18 14:57:00,34.0,5.8,28.91,SW,232,17.7,20.6,30,0.00,,---,0.00,VWS V14.01,2013-03-18 18:57:00,
2013-03-18 14:58:00,33.8,5.7,28.91,WNW,301,21.9,23.3,30,0.00,,---,0.00,VWS V14.01,2013-03-18 18:58:00,
2013-03-18 14:59:00,33.3,2.9,28.91,NW,310,14.8,24.2,27,0.00,,---,0.00,VWS V14.01,2013-03-18 18:59:00,
2013-03-18 15:00:00,39.7,39.0,28.53,West,261,3.1,6.9,97,0.00,,---,0.12,VWS V14.01,2013-03-18 19:00:00,
2013-03-18 15:01:00,33.3,5.2,28.91,West,270,13.4,19.5,30,0.00,,---,0.00,VWS V14.01,2013-03-18 19:01:00,
2013-03-18 15:02:00,33.4,5.3,28.91,NW,305,13.0,19.0,30,0.00,,---,0.00,VWS V14.01,2013-03-18 19:02:00,
2013-03-18 15:03:00,33.8,5.7,28.91,WNW,299,11.0,19.5,30,0.00,,---,0.00,VWS V14.01,2013-03-18 19:03:00,
2013-03-18 15:04:00,34.2,6.0,28.91,West,274,11.2,13.4,30,0.00,,---,0.00,VWS V14.01,2013-03-18 19:04:00,
2013-03-18 15:05:00,39.7,39.0,28.53,West,259,4.9,4.9,97,0.00,,---,0.12,VWS V14.01,2013-03-18 19:05:00,
2013-03-18 15:06:00,34.2,6.0,28.91,NNW,331,10.5,16.8,30,0.00,,---,0.00,VWS V14.01,2013-03-18 19:06:00,
2013-03-18 15:07:00,34.3,6.1,28.91,NW,304,14.8,15.4,30,0.00,,---,0.00,VWS V14.01,2013-03-18 19:07:00,
2013-03-18 15:08:00,34.3,3.8,28.91,NW,311,14.3,16.3,27,0.00,,---,0.00,VWS V14.01,2013-03-18 19:08:00,
2013-03-18 15:09:00,34.3,3.8,28.91,WNW,298,13.4,15.2,27,0.00,,---,0.00,VWS V14.01,2013-03-18 19:09:00,
2013-03-18 15:10:00,39.7,39.0,28.53,West,272,4.9,5.4,97,0.00,,---,0.12,VWS V14.01,2013-03-18 19:10:00,
2013-03-18 15:11:00,34.9,5.9,28.91,WNW,299,13.0,24.2,29,0.00,,---,0.00,VWS V14.01,2013-03-18 19:11:00,
2013-03-18 15:12:00,35.1,6.0,28.91,WSW,242,18.6,18.6,29,0.00,,---,0.00,VWS V14.01,2013-03-18 19:12:00,
2013-03-18 15:13:00,35.1,6.0,28.91,WNW,286,9.6,24.2,29,0.00,,---,0.00,VWS V14.01,2013-03-18 19:13:00,
2013-03-18 15:14:00,34.9,5.9,28.91,WNW,301,24.4,24.4,29,0.00,,---,0.00,VWS V14.01,2013-03-18 19:14:00,
2013-03-18 15:15:00,39.7,39.0,28.56,West,265,5.8,7.8,97,0.00,,---,0.12,VWS V14.01,2013-03-18 19:15:00,
2013-03-18 15:16:00,34.9,4.3,28.91,NW,311,14.3,22.8,27,0.00,,---,0.00,VWS V14.01,2013-03-18 19:16:00,
2013-03-18 15:17:00,34.9,4.3,28.91,West,260,14.3,25.7,27,0.00,,---,0.00,VWS V14.01,2013-03-18 19:17:00,
2013-03-18 15:18:00,34.9,4.3,28.91,West,273,17.7,24.8,27,0.00,,---,0.00,VWS V14.01,2013-03-18 19:18:00,
2013-03-18 15:19:00,35.1,4.5,28.91,WSW,251,18.1,23.3,27,0.00,,---,0.00,VWS V14.01,2013-03-18 19:19:00,
2013-03-18 15:20:00,39.7,39.0,28.56,WSW,250,5.8,6.7,97,0.00,,---,0.12,VWS V14.01,2013-03-18 19:20:00,
2013-03-18 15:21:00,34.7,2.5,28.91,NW,312,11.2,26.6,25,0.00,,---,0.00,VWS V14.01,2013-03-18 19:21:00,
2013-03-18 15:22:00,35.2,4.6,28.91,WNW,297,11.2,20.6,27,0.00,,---,0.00,VWS V14.01,2013-03-18 19:22:00,
2013-03-18 15:23:00,35.4,4.8,28.91,WNW,291,13.9,17.2,27,0.00,,---,0.00,VWS V14.01,2013-03-18 19:23:00,
2013-03-18 15:24:00,35.6,4.9,28.91,West,271,11.0,17.2,27,0.00,,---,0.00,VWS V14.01,2013-03-18 19:24:00,
2013-03-18 15:25:00,40.1,39.3,28.56,West,266,2.7,5.8,97,0.00,,---,0.12,VWS V14.01,2013-03-18 19:25:00,
2013-03-18 15:26:00,35.8,5.1,28.91,WNW,293,13.4,20.1,27,0.00,,---,0.00,VWS V14.01,2013-03-18 19:26:00,
2013-03-18 15:27:00,35.8,5.1,28.91,WNW,284,13.0,21.0,27,0.00,,---,0.00,VWS V14.01,2013-03-18 19:27:00,
2013-03-18 15:28:00,35.8,5.1,28.91,WSW,249,11.6,18.6,27,0.00,,---,0.00,VWS V14.01,2013-03-18 19:28:00,
2013-03-18 15:29:00,35.8,5.1,28.91,WNW,285,17.7,17.7,27,0.00,,---,0.00,VWS V14.01,2013-03-18 19:29:00,
2013-03-18 15:30:00,40.3,39.5,28.53,West,266,2.7,7.8,97,0.00,,---,0.12,VWS V14.01,2013-03-18 19:30:00,
2013-03-18 15:31:00,35.2,2.1,28.91,NW,309,12.1,21.5,24,0.00,,---,0.00,VWS V14.01,2013-03-18 19:31:00,
2013-03-18 15:32:00,35.4,4.8,28.91,WNW,303,6.3,14.3,27,0.00,,---,0.00,VWS V14.01,2013-03-18 19:32:00,
2013-03-18 15:33:00,35.8,6.7,28.91,WNW,299,14.8,17.7,29,0.00,,---,0.00,VWS V14.01,2013-03-18 19:33:00,
2013-03-18 15:34:00,35.4,4.8,28.91,WNW,283,13.4,21.9,27,0.00,,---,0.00,VWS V14.01,2013-03-18 19:34:00,
2013-03-18 15:35:00,40.5,39.7,28.53,West,261,4.0,4.5,97,0.00,,---,0.12,VWS V14.01,2013-03-18 19:35:00,
2013-03-18 15:36:00,35.4,4.8,28.91,West,275,6.7,16.8,27,0.00,,---,0.00,VWS V14.01,2013-03-18 19:36:00,
2013-03-18 15:37:00,35.8,5.1,28.91,West,280,18.6,18.6,27,0.00,,---,0.00,VWS V14.01,2013-03-18 19:37:00,
2013-03-18 15:38:00,35.8,5.1,28.91,NW,311,9.2,18.6,27,0.00,,---,0.00,VWS V14.01,2013-03-18 19:38:00,
2013-03-18 15:39:00,35.2,4.6,28.91,West,267,15.4,20.6,27,0.00,,---,0.00,VWS V14.01,2013-03-18 19:39:00,
2013-03-18 15:40:00,40.6,39.9,28.53,West,280,6.7,6.7,97,0.00,,---,0.12,VWS V14.01,2013-03-18 19:40:00,
2013-03-18 15:41:00,35.4,6.3,28.91,NW,317,13.9,14.8,29,0.00,,---,0.00,VWS V14.01,2013-03-18 19:41:00,
2013-03-18 15:42:00,35.1,6.0,28.91,West,281,13.0,20.1,29,0.00,,---,0.00,VWS V14.01,2013-03-18 19:42:00,
2013-03-18 15:43:00,35.1,6.0,28.91,NW,304,19.0,19.0,29,0.00,,---,0.00,VWS V14.01,2013-03-18 19:43:00,
2013-03-18 15:44:00,34.9,5.9,28.91,NW,305,21.0,21.0,29,0.00,,---,0.00,VWS V14.01,2013-03-18 19:44:00,
2013-03-18 15:45:00,41.0,40.2,28.53,WSW,244,6.7,6.7,97,0.00,,---,0.12,VWS V14.01,2013-03-18 19:45:00,
2013-03-18 15:46:00,34.3,3.8,28.91,WNW,293,13.0,18.1,27,0.00,,---,0.00,VWS V14.01,2013-03-18 19:46:00,
2013-03-18 15:47:00,34.7,6.4,28.91,NNW,328,13.0,17.7,30,0.00,,---,0.00,VWS V14.01,2013-03-18 19:47:00,
2013-03-18 15:48:00,34.5,4.0,28.91,North,1,11.6,22.4,27,0.00,,---,0.00,VWS V14.01,2013-03-18 19:48:00,
2013-03-18 15:49:00,34.7,4.2,28.91,NNW,327,16.8,17.2,27,0.00,,---,0.00,VWS V14.01,2013-03-18 19:49:00,
2013-03-18 15:50:00,41.2,40.4,28.53,West,278,6.3,9.6,97,0.00,,---,0.12,VWS V14.01,2013-03-18 19:50:00,
2013-03-18 15:51:00,35.8,6.7,28.91,SW,235,15.2,22.4,29,0.00,,---,0.00,VWS V14.01,2013-03-18 19:51:00,
2013-03-18 15:52:00,35.6,4.9,28.91,NW,311,12.5,21.9,27,0.00,,---,0.00,VWS V14.01,2013-03-18 19:52:00,
2013-03-18 15:53:00,35.2,4.6,28.91,NW,320,14.3,20.6,27,0.00,,---,0.00,VWS V14.01,2013-03-18 19:53:00,
2013-03-18 15:54:00,35.1,4.5,28.91,West,281,11.6,15.4,27,0.00,,---,0.00,VWS V14.01,2013-03-18 19:54:00,
2013-03-18 15:55:00,41.5,40.8,28.53,West,274,6.7,10.5,97,0.00,,---,0.12,VWS V14.01,2013-03-18 19:55:00,
2013-03-18 15:56:00,35.8,5.1,28.91,West,262,15.2,16.3,27,0.00,,---,0.00,VWS V14.01,2013-03-18 19:56:00,
2013-03-18 15:57:00,35.6,4.9,28.91,NNW,327,17.2,26.2,27,0.00,,---,0.00,VWS V14.01,2013-03-18 19:57:00,
2013-03-18 15:58:00,35.8,5.1,28.91,WNW,289,15.9,19.9,27,0.00,,---,0.00,VWS V14.01,2013-03-18 19:58:00,
2013-03-18 15:59:00,36.0,5.2,28.91,SW,233,11.6,19.5,27,0.00,,---,0.00,VWS V14.01,2013-03-18 19:59:00,
2013-03-18 16:00:00,41.7,40.9,28.53,WSW,245,11.0,11.6,97,0.00,,---,0.12,VWS V14.01,2013-03-18 20:00:00,
2013-03-18 16:01:00,36.3,5.6,28.91,West,267,11.2,19.9,27,0.00,,---,0.00,VWS V14.01,2013-03-18 20:01:00,
2013-03-18 16:02:00,36.3,3.0,28.91,WNW,286,13.9,18.1,24,0.00,,---,0.00,VWS V14.01,2013-03-18 20:02:00,
2013-03-18 16:03:00,36.3,3.0,28.91,WSW,240,9.2,18.6,24,0.00,,---,0.00,VWS V14.01,2013-03-18 20:03:00,
2013-03-18 16:04:00,36.7,3.3,28.91,WSW,249,13.9,20.1,24,0.00,,---,0.00,VWS V14.01,2013-03-18 20:04:00,
2013-03-18 16:05:00,41.7,40.9,28.53,West,262,6.3,12.1,97,0.00,,---,0.12,VWS V14.01,2013-03-18 20:05:00,
2013-03-18 16:06:00,36.5,3.2,28.91,WNW,286,14.8,15.2,24,0.00,,---,0.00,VWS V14.01,2013-03-18 20:06:00,
2013-03-18 16:07:00,36.1,2.8,28.91,WNW,283,13.9,22.4,24,0.00,,---,0.00,VWS V14.01,2013-03-18 20:07:00,
2013-03-18 16:08:00,36.3,3.0,28.91,WSW,257,11.0,17.7,24,0.00,,---,0.00,VWS V14.01,2013-03-18 20:08:00,
2013-03-18 16:09:00,36.5,3.2,28.91,WSW,248,13.9,20.1,24,0.00,,---,0.00,VWS V14.01,2013-03-18 20:09:00,
2013-03-18 16:10:00,41.7,40.9,28.53,WSW,252,6.7,9.2,97,0.00,,---,0.12,VWS V14.01,2013-03-18 20:10:00,
2013-03-18 16:11:00,36.7,3.3,28.91,NW,326,13.0,24.2,24,0.00,,---,0.00,VWS V14.01,2013-03-18 20:11:00,
2013-03-18 16:12:00,36.5,3.2,28.91,NW,304,22.4,22.4,24,0.00,,---,0.00,VWS V14.01,2013-03-18 20:12:00,
2013-03-18 16:13:00,36.3,3.0,28.91,West,277,11.6,22.4,24,0.00,,---,0.00,VWS V14.01,2013-03-18 20:13:00,
2013-03-18 16:14:00,36.5,4.9,28.91,North,0,17.2,17.2,26,0.00,,---,0.00,VWS V14.01,2013-03-18 20:14:00,
2013-03-18 16:15:00,41.7,40.9,28.53,WSW,245,5.4,9.6,97,0.00,,---,0.12,VWS V14.01,2013-03-18 20:15:00,
2013-03-18 16:16:00,36.3,5.6,28.91,West,261,7.8,19.0,27,0.00,,---,0.00,VWS V14.01,2013-03-18 20:16:00,
2013-03-18 16:17:00,36.5,3.2,28.91,West,281,7.4,19.5,24,0.00,,---,0.00,VWS V14.01,2013-03-18 20:17:00,
2013-03-18 16:18:00,36.5,3.2,28.91,West,273,13.0,19.9,24,0.00,,---,0.00,VWS V14.01,2013-03-18 20:18:00,
2013-03-18 16:19:00,36.5,3.2,28.91,West,273,18.6,24.4,24,0.00,,---,0.00,VWS V14.01,2013-03-18 20:19:00,
2013-03-18 16:20:00,41.7,40.9,28.53,West,262,5.8,10.5,97,0.00,,---,0.12,VWS V14.01,2013-03-18 20:20:00,
2013-03-18 16:21:00,36.3,3.0,28.91,WNW,293,10.5,20.1,24,0.00,,---,0.00,VWS V14.01,2013-03-18 20:21:00,
2013-03-18 16:22:00,36.1,2.8,28.91,WSW,240,20.1,27.1,24,0.00,,---,0.00,VWS V14.01,2013-03-18 20:22:00,
2013-03-18 16:23:00,36.0,0.8,28.91,WNW,291,16.3,24.8,22,0.00,,---,0.00,VWS V14.01,2013-03-18 20:23:00,
2013-03-18 16:24:00,36.1,2.8,28.91,WNW,283,10.1,16.3,24,0.00,,---,0.00,VWS V14.01,2013-03-18 20:24:00,
2013-03-18 16:25:00,41.7,40.9,28.53,WSW,241,7.8,12.1,97,0.00,,---,0.12,VWS V14.01,2013-03-18 20:25:00,
2013-03-18 16:26:00,36.3,3.0,28.91,WNW,290,13.9,19.9,24,0.00,,---,0.00,VWS V14.01,2013-03-18 20:26:00,
2013-03-18 16:27:00,36.5,3.2,28.91,NNW,342,8.3,16.3,24,0.00,,---,0.00,VWS V14.01,2013-03-18 20:27:00,
2013-03-18 16:28:00,36.7,3.3,28.91,West,268,17.2,21.5,24,0.00,,---,0.00,VWS V14.01,2013-03-18 20:28:00,
2013-03-18 16:29:00,36.9,3.5,28.91,SW,236,11.6,17.2,24,0.00,,---,0.00,VWS V14.01,2013-03-18 20:29:00,
2013-03-18 16:30:00,41.7,40.9,28.53,West,279,7.8,11.0,97,0.00,,---,0.12,VWS V14.01,2013-03-18 20:30:00,
2013-03-18 16:31:00,37.6,4.1,28.91,NNW,336,11.2,11.2,24,0.00,,---,0.00,VWS V14.01,2013-03-18 20:31:00,
2013-03-18 16:32:00,37.6,4.1,28.91,West,281,9.2,19.9,24,0.00,,---,0.00,VWS V14.01,2013-03-18 20:32:00,
2013-03-18 16:33:00,37.9,4.4,28.91,WNW,290,12.5,14.3,24,0.00,,---,0.00,VWS V14.01,2013-03-18 20:33:00,
2013-03-18 16:34:00,37.4,3.9,28.91,NW,323,14.8,17.2,24,0.00,,---,0.00,VWS V14.01,2013-03-18 20:34:00,
2013-03-18 16:35:00,37.4,1.0,28.91,NNW,330,8.3,14.8,21,0.00,,---,0.00,VWS V14.01,2013-03-18 20:35:00,
2013-03-18 16:36:00,37.4,3.9,28.91,WNW,296,11.6,12.5,24,0.00,,---,0.00,VWS V14.01,2013-03-18 20:36:00,
2013-03-18 16:37:00,41.7,40.9,28.53,WSW,246,6.9,7.8,97,0.00,,---,0.12,VWS V14.01,2013-03-18 20:37:00,
2013-03-18 16:38:00,37.4,1.0,28.91,NNW,343,7.4,21.9,21,0.00,,---,0.00,VWS V14.01,2013-03-18 20:38:00,
2013-03-18 16:39:00,37.4,1.0,28.91,NW,318,8.7,16.3,21,0.00,,---,0.00,VWS V14.01,2013-03-18 20:39:00,
2013-03-18 16:40:00,37.6,4.1,28.91,NNW,331,11.2,15.4,24,0.00,,---,0.00,VWS V14.01,2013-03-18 20:40:00,
2013-03-18 16:41:00,37.4,3.9,28.91,WNW,284,17.2,24.2,24,0.00,,---,0.00,VWS V14.01,2013-03-18 20:41:00,
2013-03-18 16:42:00,41.7,40.9,28.53,West,280,7.4,11.0,97,0.00,,---,0.12,VWS V14.01,2013-03-18 20:42:00,
2013-03-18 16:43:00,37.0,3.6,28.91,South,176,10.5,20.6,24,0.00,,---,0.00,VWS V14.01,2013-03-18 20:43:00,
2013-03-18 16:44:00,37.0,3.6,28.91,WNW,292,16.8,21.5,24,0.00,,---,0.00,VWS V14.01,2013-03-18 20:44:00,
2013-03-18 16:45:00,37.2,3.8,28.91,WNW,290,16.8,18.6,24,0.00,,---,0.00,VWS V14.01,2013-03-18 20:45:00,
2013-03-18 16:46:00,37.2,0.9,28.91,WSW,252,13.0,26.6,21,0.00,,---,0.00,VWS V14.01,2013-03-18 20:46:00,
2013-03-18 16:47:00,41.5,40.8,28.56,West,264,9.6,15.9,97,0.00,,---,0.12,VWS V14.01,2013-03-18 20:47:00,
2013-03-18 16:48:00,37.6,1.2,28.91,NNW,340,9.2,19.0,21,0.00,,---,0.00,VWS V14.01,2013-03-18 20:48:00,
2013-03-18 16:49:00,37.9,1.5,28.91,WNW,296,12.5,21.0,21,0.00,,---,0.00,VWS V14.01,2013-03-18 20:49:00,
2013-03-18 16:50:00,37.6,1.2,28.91,NW,323,7.8,18.1,21,0.00,,---,0.00,VWS V14.01,2013-03-18 20:50:00,
2013-03-18 16:51:00,37.8,1.4,28.91,West,268,8.7,17.2,21,0.00,,---,0.00,VWS V14.01,2013-03-18 20:51:00,
2013-03-18 16:52:00,41.4,40.6,28.56,West,259,10.5,11.2,97,0.00,,---,0.12,VWS V14.01,2013-03-18 20:52:00,
2013-03-18 16:53:00,38.1,1.6,28.91,WNW,288,7.4,15.4,21,0.00,,---,0.00,VWS V14.01,2013-03-18 20:53:00,
2013-03-18 16:54:00,38.1,1.6,28.91,West,261,13.9,19.0,21,0.00,,---,0.00,VWS V14.01,2013-03-18 20:54:00,
2013-03-18 16:55:00,37.9,1.5,28.91,WNW,287,14.3,18.1,21,0.00,,---,0.00,VWS V14.01,2013-03-18 20:55:00,
2013-03-18 16:56:00,37.9,1.5,28.91,West,281,13.9,20.1,21,0.00,,---,0.00,VWS V14.01,2013-03-18 20:56:00,
2013-03-18 16:57:00,41.2,40.4,28.56,West,259,5.8,15.9,97,0.00,,---,0.12,VWS V14.01,2013-03-18 20:57:00,
2013-03-18 16:58:00,37.8,1.4,28.91,WNW,303,17.7,19.0,21,0.00,,---,0.00,VWS V14.01,2013-03-18 20:58:00,
2013-03-18 16:59:00,37.4,1.0,28.91,NNW,347,13.0,20.6,21,0.00,,---,0.00,VWS V14.01,2013-03-18 20:59:00,
2013-03-18 17:00:00,37.4,1.0,28.91,West,267,10.1,19.0,21,0.00,,---,0.00,VWS V14.01,2013-03-18 21:00:00,
2013-03-18 17:01:00,37.6,1.2,28.91,West,264,19.0,19.5,21,0.00,,---,0.00,VWS V14.01,2013-03-18 21:01:00,
2013-03-18 17:02:00,41.2,40.4,28.56,WSW,254,10.5,17.7,97,0.00,,---,0.12,VWS V14.01,2013-03-18 21:02:00,
2013-03-18 17:03:00,37.6,1.2,28.91,NW,307,11.2,21.9,21,0.00,,---,0.00,VWS V14.01,2013-03-18 21:03:00,
2013-03-18 17:04:00,37.6,1.2,28.91,NW,307,17.2,21.9,21,0.00,,---,0.00,VWS V14.01,2013-03-18 21:04:00,
2013-03-18 17:05:00,37.4,1.0,28.91,WSW,258,9.2,18.1,21,0.00,,---,0.00,VWS V14.01,2013-03-18 21:05:00,
2013-03-18 17:06:00,37.8,1.4,28.91,WNW,297,13.4,15.9,21,0.00,,---,0.00,VWS V14.01,2013-03-18 21:06:00,
2013-03-18 17:07:00,38.1,1.6,28.91,WNW,284,17.7,17.7,21,0.00,,---,0.00,VWS V14.01,2013-03-18 21:07:00,
2013-03-18 17:08:00,41.0,40.2,28.56,NW,308,5.8,15.9,97,0.00,,---,0.12,VWS V14.01,2013-03-18 21:08:00,
2013-03-18 17:09:00,37.6,1.2,28.91,West,271,17.2,21.9,21,0.00,,---,0.00,VWS V14.01,2013-03-18 21:09:00,
2013-03-18 17:10:00,37.6,1.2,28.91,West,259,11.6,19.9,21,0.00,,---,0.00,VWS V14.01,2013-03-18 21:10:00,
2013-03-18 17:11:00,37.8,1.4,28.91,NNW,337,14.8,14.8,21,0.00,,---,0.00,VWS V14.01,2013-03-18 21:11:00,
2013-03-18 17:12:00,37.8,1.4,28.94,WNW,302,18.1,18.1,21,0.00,,---,0.00,VWS V14.01,2013-03-18 21:12:00,
2013-03-18 17:13:00,40.8,40.0,28.56,West,262,13.9,15.2,97,0.00,,---,0.12,VWS V14.01,2013-03-18 21:13:00,
2013-03-18 17:14:00,37.9,1.5,28.94,West,279,9.6,20.1,21,0.00,,---,0.00,VWS V14.01,2013-03-18 21:14:00,
2013-03-18 17:15:00,37.9,1.5,28.94,NW,308,11.0,15.2,21,0.00,,---,0.00,VWS V14.01,2013-03-18 21:15:00,
2013-03-18 17:16:00,38.1,1.6,28.94,NW,313,10.1,13.4,21,0.00,,---,0.00,VWS V14.01,2013-03-18 21:16:00,
2013-03-18 17:17:00,38.3,1.8,28.94,NW,304,14.3,18.1,21,0.00,,---,0.00,VWS V14.01,2013-03-18 21:17:00,
2013-03-18 17:18:00,40.6,39.9,28.56,WNW,289,10.1,11.6,97,0.00,,---,0.12,VWS V14.01,2013-03-18 21:18:00,
2013-03-18 17:19:00,38.5,2.0,28.94,NNW,336,12.1,14.3,21,0.00,,---,0.00,VWS V14.01,2013-03-18 21:19:00,
2013-03-18 17:20:00,38.5,2.0,28.94,WNW,299,8.7,12.1,21,0.00,,---,0.00,VWS V14.01,2013-03-18 21:20:00,
2013-03-18 17:21:00,38.5,2.0,28.94,West,273,10.5,14.3,21,0.00,,---,0.00,VWS V14.01,2013-03-18 21:21:00,
2013-03-18 17:22:00,38.5,2.0,28.94,NW,310,11.6,15.9,21,0.00,,---,0.00,VWS V14.01,2013-03-18 21:22:00,
2013-03-18 17:23:00,40.6,39.9,28.56,West,269,9.2,15.2,97,0.00,,---,0.12,VWS V14.01,2013-03-18 21:23:00,
2013-03-18 17:24:00,38.5,2.0,28.94,West,271,15.2,15.2,21,0.00,,---,0.00,VWS V14.01,2013-03-18 21:24:00,
2013-03-18 17:25:00,38.5,2.0,28.94,NW,315,9.6,15.2,21,0.00,,---,0.00,VWS V14.01,2013-03-18 21:25:00,
2013-03-18 17:26:00,38.5,2.0,28.94,West,279,9.2,18.6,21,0.00,,---,0.00,VWS V14.01,2013-03-18 21:26:00,
2013-03-18 17:27:00,38.5,2.0,28.94,West,279,10.1,14.8,21,0.00,,---,0.00,VWS V14.01,2013-03-18 21:27:00,
2013-03-18 17:28:00,40.5,39.7,28.56,SW,231,12.1,16.3,97,0.00,,---,0.12,VWS V14.01,2013-03-18 21:28:00,
2013-03-18 17:29:00,38.5,2.0,28.94,WNW,289,12.1,16.8,21,0.00,,---,0.00,VWS V14.01,2013-03-18 21:29:00,
2013-03-18 17:30:00,38.3,1.8,28.94,West,266,14.8,19.0,21,0.00,,---,0.00,VWS V14.01,2013-03-18 21:30:00,
2013-03-18 17:31:00,38.3,1.8,28.94,NW,307,11.2,20.6,21,0.00,,---,0.00,VWS V14.01,2013-03-18 21:31:00,
2013-03-18 17:32:00,38.3,1.8,28.94,WSW,249,13.0,16.3,21,0.00,,---,0.00,VWS V14.01,2013-03-18 21:32:00,
2013-03-18 17:33:00,40.5,39.7,28.56,WSW,248,11.2,11.2,97,0.00,,---,0.12,VWS V14.01,2013-03-18 21:33:00,
2013-03-18 17:34:00,38.1,1.6,28.94,WSW,248,9.6,20.1,21,0.00,,---,0.00,VWS V14.01,2013-03-18 21:34:00,
2013-03-18 17:35:00,38.1,1.6,28.94,WNW,284,11.0,18.6,21,0.00,,---,0.00,VWS V14.01,2013-03-18 21:35:00,
2013-03-18 17:36:00,38.3,1.8,28.94,West,266,13.9,24.2,21,0.00,,---,0.00,VWS V14.01,2013-03-18 21:36:00,
2013-03-18 17:37:00,38.1,1.6,28.94,WNW,291,17.2,20.6,21,0.00,,---,0.00,VWS V14.01,2013-03-18 21:37:00,
2013-03-18 17:38:00,40.5,39.7,28.56,NW,312,10.1,13.4,97,0.00,,---,0.12,VWS V14.01,2013-03-18 21:38:00,
2013-03-18 17:39:00,37.9,1.5,28.94,West,267,8.7,18.6,21,0.00,,---,0.00,VWS V14.01,2013-03-18 21:39:00,
2013-03-18 17:40:00,38.1,1.6,28.94,West,276,11.0,16.8,21,0.00,,---,0.00,VWS V14.01,2013-03-18 21:40:00,
2013-03-18 17:41:00,38.1,1.6,28.94,WSW,240,9.2,18.1,21,0.00,,---,0.00,VWS V14.01,2013-03-18 21:41:00,
2013-03-18 17:42:00,38.1,1.6,28.94,WNW,289,12.1,17.2,21,0.00,,---,0.00,VWS V14.01,2013-03-18 21:42:00,
2013-03-18 17:43:00,40.3,39.5,28.59,West,272,14.3,14.8,97,0.00,,---,0.12,VWS V14.01,2013-03-18 21:43:00,
2013-03-18 17:44:00,38.1,1.6,28.94,NNW,332,11.6,15.4,21,0.00,,---,0.00,VWS V14.01,2013-03-18 21:44:00,
2013-03-18 17:45:00,38.1,1.6,28.94,WNW,295,11.6,17.7,21,0.00,,---,0.00,VWS V14.01,2013-03-18 21:45:00,
2013-03-18 17:46:00,38.1,1.6,28.94,NNW,329,7.4,13.0,21,0.00,,---,0.00,VWS V14.01,2013-03-18 21:46:00,
2013-03-18 17:47:00,38.1,1.6,28.94,NW,305,15.4,15.4,21,0.00,,---,0.00,VWS V14.01,2013-03-18 21:47:00,
2013-03-18 17:48:00,37.9,1.5,28.94,WNW,299,13.9,15.4,21,0.00,,---,0.00,VWS V14.01,2013-03-18 21:48:00,
2013-03-18 17:49:00,40.3,39.5,28.59,SW,229,6.9,10.1,97,0.00,,---,0.12,VWS V14.01,2013-03-18 21:49:00,
2013-03-18 17:50:00,37.8,1.4,28.94,WNW,285,10.5,15.9,21,0.00,,---,0.00,VWS V14.01,2013-03-18 21:50:00,
2013-03-18 17:51:00,37.9,1.5,28.94,West,277,19.5,19.5,21,0.00,,---,0.00,VWS V14.01,2013-03-18 21:51:00,
2013-03-18 17:52:00,38.1,1.6,28.94,NNW,347,8.7,19.5,21,0.00,,---,0.00,VWS V14.01,2013-03-18 21:52:00,
2013-03-18 17:53:00,38.1,1.6,28.94,West,273,17.2,22.8,21,0.00,,---,0.00,VWS V14.01,2013-03-18 21:53:00,
2013-03-18 17:54:00,40.3,39.5,28.59,NW,313,9.6,13.0,97,0.00,,---,0.12,VWS V14.01,2013-03-18 21:54:00,
2013-03-18 17:55:00,37.8,1.4,28.94,NW,307,11.2,20.1,21,0.00,,---,0.00,VWS V14.01,2013-03-18 21:55:00,
2013-03-18 17:56:00,37.9,1.5,28.94,WNW,294,12.1,18.6,21,0.00,,---,0.00,VWS V14.01,2013-03-18 21:56:00,
2013-03-18 17:57:00,37.9,1.5,28.94,WSW,254,19.9,19.9,21,0.00,,---,0.00,VWS V14.01,2013-03-18 21:57:00,
2013-03-18 17:58:00,37.9,1.5,28.94,WSW,242,16.3,19.9,21,0.00,,---,0.00,VWS V14.01,2013-03-18 21:58:00,
2013-03-18 17:59:00,40.1,39.3,28.59,WNW,303,9.6,13.0,97,0.00,,---,0.12,VWS V14.01,2013-03-18 21:59:00,
2013-03-18 18:00:00,37.8,1.4,28.94,NNW,341,7.8,24.2,21,0.00,,---,0.00,VWS V14.01,2013-03-18 22:00:00,
2013-03-18 18:01:00,37.9,1.5,28.94,NW,320,8.3,19.5,21,0.00,,---,0.00,VWS V14.01,2013-03-18 22:01:00,
2013-03-18 18:02:00,37.9,1.5,28.94,WNW,295,12.5,12.5,21,0.00,,---,0.00,VWS V14.01,2013-03-18 22:02:00,
2013-03-18 18:03:00,37.9,1.5,28.94,NNW,342,6.3,21.0,21,0.00,,---,0.00,VWS V14.01,2013-03-18 22:03:00,
2013-03-18 18:04:00,39.7,39.0,28.59,WSW,253,7.4,14.8,97,0.00,,---,0.12,VWS V14.01,2013-03-18 22:04:00,
2013-03-18 18:05:00,37.6,1.2,28.94,NW,309,13.0,15.9,21,0.00,,---,0.00,VWS V14.01,2013-03-18 22:05:00,
2013-03-18 18:06:00,37.6,1.2,28.94,NW,312,9.2,14.8,21,0.00,,---,0.00,VWS V14.01,2013-03-18 22:06:00,
2013-03-18 18:07:00,37.9,1.5,28.94,WNW,295,8.3,10.5,21,0.00,,---,0.00,VWS V14.01,2013-03-18 22:07:00,
2013-03-18 18:08:00,37.9,1.5,28.94,NW,305,13.0,17.7,21,0.00,,---,0.00,VWS V14.01,2013-03-18 22:08:00,
2013-03-18 18:09:00,39.7,39.0,28.59,West,260,6.3,11.0,97,0.00,,---,0.12,VWS V14.01,2013-03-18 22:09:00,
2013-03-18 18:10:00,37.8,1.4,28.94,West,270,10.1,14.8,21,0.00,,---,0.00,VWS V14.01,2013-03-18 22:10:00,
2013-03-18 18:11:00,37.8,1.4,28.94,West,278,11.2,24.2,21,0.00,,---,0.00,VWS V14.01,2013-03-18 22:11:00,
2013-03-18 18:12:00,37.8,1.4,28.94,WSW,255,10.5,13.9,21,0.00,,---,0.00,VWS V14.01,2013-03-18 22:12:00,
2013-03-18 18:13:00,37.8,1.4,28.94,WNW,290,13.9,16.3,21,0.00,,---,0.00,VWS V14.01,2013-03-18 22:13:00,
2013-03-18 18:14:00,39.6,38.8,28.59,WNW,299,9.6,13.4,97,0.00,,---,0.12,VWS V14.01,2013-03-18 22:14:00,
2013-03-18 18:15:00,37.6,1.2,28.94,NNW,340,10.5,15.4,21,0.00,,---,0.00,VWS V14.01,2013-03-18 22:15:00,
2013-03-18 18:16:00,37.8,1.4,28.94,NW,305,9.2,15.2,21,0.00,,---,0.00,VWS V14.01,2013-03-18 22:16:00,
2013-03-18 18:17:00,37.6,1.2,28.94,WNW,285,15.9,19.5,21,0.00,,---,0.00,VWS V14.01,2013-03-18 22:17:00,
2013-03-18 18:18:00,37.6,1.2,28.94,NW,315,10.5,21.9,21,0.00,,---,0.00,VWS V14.01,2013-03-18 22:18:00,
2013-03-18 18:19:00,39.4,38.6,28.59,WNW,292,6.3,8.3,97,0.00,,---,0.12,VWS V14.01,2013-03-18 22:19:00,
2013-03-18 18:20:00,37.6,1.2,28.94,West,280,19.0,19.0,21,0.00,,---,0.00,VWS V14.01,2013-03-18 22:20:00,
2013-03-18 18:21:00,37.6,1.2,28.94,WNW,299,13.9,19.0,21,0.00,,---,0.00,VWS V14.01,2013-03-18 22:21:00,
2013-03-18 18:22:00,37.6,1.2,28.94,WNW,303,13.0,19.0,21,0.00,,---,0.00,VWS V14.01,2013-03-18 22:22:00,
2013-03-18 18:23:00,37.4,1.0,28.94,West,263,15.2,16.8,21,0.00,,---,0.00,VWS V14.01,2013-03-18 22:23:00,
2013-03-18 18:24:00,39.4,38.6,28.59,WNW,299,6.7,10.1,97,0.00,,---,0.12,VWS V14.01,2013-03-18 22:24:00,
2013-03-18 18:25:00,37.6,1.2,28.94,NW,310,13.4,13.9,21,0.00,,---,0.00,VWS V14.01,2013-03-18 22:25:00,
2013-03-18 18:26:00,37.6,1.2,28.94,NW,313,10.5,13.9,21,0.00,,---,0.00,VWS V14.01,2013-03-18 22:26:00,
2013-03-18 18:27:00,37.8,1.4,28.94,WNW,292,15.9,17.7,21,0.00,,---,0.00,VWS V14.01,2013-03-18 22:27:00,
2013-03-18 18:28:00,37.6,1.2,28.94,NW,309,17.2,18.6,21,0.00,,---,0.00,VWS V14.01,2013-03-18 22:28:00,
2013-03-18 18:29:00,39.2,38.4,28.59,West,276,13.4,13.4,97,0.00,,---,0.12,VWS V14.01,2013-03-18 22:29:00,
2013-03-18 18:30:00,37.4,1.0,28.94,WNW,298,14.3,19.9,21,0.00,,---,0.00,VWS V14.01,2013-03-18 22:30:00,
2013-03-18 18:31:00,37.2,0.9,28.94,West,266,11.6,17.2,21,0.00,,---,0.00,VWS V14.01,2013-03-18 22:31:00,
2013-03-18 18:32:00,37.0,0.7,28.94,NNW,332,7.8,19.0,21,0.00,,---,0.00,VWS V14.01,2013-03-18 22:32:00,
2013-03-18 18:33:00,37.2,0.9,28.94,NW,313,7.8,15.2,21,0.00,,---,0.00,VWS V14.01,2013-03-18 22:33:00,
2013-03-18 18:34:00,38.7,37.9,28.59,WNW,299,6.9,13.4,97,0.00,,---,0.12,VWS V14.01,2013-03-18 22:34:00,
2013-03-18 18:35:00,37.4,1.0,28.94,WNW,287,13.0,17.7,21,0.00,,---,0.00,VWS V14.01,2013-03-18 22:35:00,
2013-03-18 18:36:00,37.2,0.9,28.94,WNW,286,13.4,16.8,21,0.00,,---,0.00,VWS V14.01,2013-03-18 22:36:00,
2013-03-18 18:37:00,37.2,0.9,28.94,West,260,14.8,16.3,21,0.00,,---,0.00,VWS V14.01,2013-03-18 22:37:00,
2013-03-18 18:38:00,37.0,0.7,28.94,NW,310,12.5,18.1,21,0.00,,---,0.00,VWS V14.01,2013-03-18 22:38:00,
2013-03-18 18:39:00,38.5,37.7,28.59,West,261,11.2,11.2,97,0.00,,---,0.12,VWS V14.01,2013-03-18 22:39:00,
2013-03-18 18:40:00,37.0,0.7,28.94,WNW,283,11.0,16.8,21,0.00,,---,0.00,VWS V14.01,2013-03-18 22:40:00,
2013-03-18 18:41:00,37.0,0.7,28.94,WNW,302,18.6,18.6,21,0.00,,---,0.00,VWS V14.01,2013-03-18 22:41:00,
2013-03-18 18:42:00,36.9,0.6,28.94,WNW,283,8.7,18.6,21,0.00,,---,0.00,VWS V14.01,2013-03-18 22:42:00,
2013-03-18 18:43:00,37.0,0.7,28.94,WNW,292,11.0,14.8,21,0.00,,---,0.00,VWS V14.01,2013-03-18 22:43:00,
2013-03-18 18:44:00,38.1,37.3,28.61,WNW,297,6.3,14.8,97,0.00,,---,0.12,VWS V14.01,2013-03-18 22:44:00,
2013-03-18 18:45:00,37.0,0.7,28.94,WNW,293,12.5,13.0,21,0.00,,---,0.00,VWS V14.01,2013-03-18 22:45:00,
2013-03-18 18:46:00,36.9,0.6,28.94,WNW,303,8.3,16.3,21,0.00,,---,0.00,VWS V14.01,2013-03-18 22:46:00,
2013-03-18 18:47:00,37.0,0.7,28.94,West,278,5.8,9.2,21,0.00,,---,0.00,VWS V14.01,2013-03-18 22:47:00,
2013-03-18 18:48:00,37.0,0.7,28.94,WNW,301,14.3,14.8,21,0.00,,---,0.00,VWS V14.01,2013-03-18 22:48:00,
2013-03-18 18:49:00,38.1,37.3,28.61,WNW,303,7.8,12.5,97,0.00,,---,0.12,VWS V14.01,2013-03-18 22:49:00,
2013-03-18 18:50:00,37.0,0.7,28.94,WNW,297,4.9,9.6,21,0.00,,---,0.00,VWS V14.01,2013-03-18 22:50:00,
2013-03-18 18:51:00,37.0,0.7,28.94,WNW,290,9.6,9.6,21,0.00,,---,0.00,VWS V14.01,2013-03-18 22:51:00,
2013-03-18 18:52:00,37.0,0.7,28.94,West,277,11.0,16.3,21,0.00,,---,0.00,VWS V14.01,2013-03-18 22:52:00,
2013-03-18 18:53:00,37.0,0.7,28.94,NW,305,10.1,11.0,21,0.00,,---,0.00,VWS V14.01,2013-03-18 22:53:00,
2013-03-18 18:54:00,37.9,37.2,28.61,WNW,286,8.3,11.6,97,0.00,,---,0.12,VWS V14.01,2013-03-18 22:54:00,
2013-03-18 18:55:00,37.0,0.7,28.94,NW,307,7.4,12.5,21,0.00,,---,0.00,VWS V14.01,2013-03-18 22:55:00,
2013-03-18 18:56:00,36.9,0.6,28.94,West,278,6.7,14.3,21,0.00,,---,0.00,VWS V14.01,2013-03-18 22:56:00,
2013-03-18 18:57:00,36.9,0.6,28.97,West,266,11.6,11.6,21,0.00,,---,0.00,VWS V14.01,2013-03-18 22:57:00,
2013-03-18 18:58:00,36.9,0.6,28.97,WNW,284,8.7,13.9,21,0.00,,---,0.00,VWS V14.01,2013-03-18 22:58:00,
2013-03-18 18:59:00,37.9,37.2,28.61,WSW,239,10.5,10.5,97,0.00,,---,0.12,VWS V14.01,2013-03-18 22:59:00,
2013-03-18 19:00:00,36.7,0.4,28.97,NW,310,13.4,14.8,21,0.00,,---,0.00,VWS V14.01,2013-03-18 23:00:00,
2013-03-18 19:01:00,36.7,0.4,28.97,NNW,347,11.0,15.9,21,0.00,,---,0.00,VWS V14.01,2013-03-18 23:01:00,
2013-03-18 19:02:00,36.7,0.4,28.97,NW,306,6.9,12.1,21,0.00,,---,0.00,VWS V14.01,2013-03-18 23:02:00,
2013-03-18 19:03:00,36.7,0.4,28.97,WNW,282,18.1,18.6,21,0.00,,---,0.00,VWS V14.01,2013-03-18 23:03:00,
2013-03-18 19:04:00,37.9,37.2,28.61,West,271,9.2,11.0,97,0.00,,---,0.12,VWS V14.01,2013-03-18 23:04:00,
2013-03-18 19:05:00,36.3,1.1,28.97,WNW,286,15.4,15.4,22,0.00,,---,0.00,VWS V14.01,2013-03-18 23:05:00,
2013-03-18 19:06:00,36.1,1.0,28.97,West,279,7.8,21.9,22,0.00,,---,0.00,VWS V14.01,2013-03-18 23:06:00,
2013-03-18 19:07:00,36.1,1.0,28.97,NW,311,11.2,11.2,22,0.00,,---,0.00,VWS V14.01,2013-03-18 23:07:00,
2013-03-18 19:08:00,36.1,1.0,28.97,West,279,10.5,12.5,22,0.00,,---,0.00,VWS V14.01,2013-03-18 23:08:00,
2013-03-18 19:09:00,37.8,37.0,28.61,West,272,9.2,12.5,97,0.00,,---,0.12,VWS V14.01,2013-03-18 23:09:00,
2013-03-18 19:10:00,36.1,1.0,28.97,NW,307,11.0,13.4,22,0.00,,---,0.00,VWS V14.01,2013-03-18 23:10:00,
2013-03-18 19:11:00,36.1,1.0,28.97,SW,236,8.3,11.0,22,0.00,,---,0.00,VWS V14.01,2013-03-18 23:11:00,
2013-03-18 19:12:00,36.0,0.8,28.97,West,270,12.1,12.1,22,0.00,,---,0.00,VWS V14.01,2013-03-18 23:12:00,
2013-03-18 19:13:00,36.0,0.8,28.97,WNW,299,8.7,17.2,22,0.00,,---,0.00,VWS V14.01,2013-03-18 23:13:00,
2013-03-18 19:14:00,37.6,36.8,28.61,WNW,303,11.6,14.8,97,0.00,,---,0.12,VWS V14.01,2013-03-18 23:14:00,
2013-03-18 19:15:00,36.0,0.8,28.97,NW,311,6.7,9.2,22,0.00,,---,0.00,VWS V14.01,2013-03-18 23:15:00,
2013-03-18 19:16:00,35.8,0.7,28.97,West,281,7.8,10.1,22,0.00,,---,0.00,VWS V14.01,2013-03-18 23:16:00,
2013-03-18 19:17:00,35.8,0.7,28.97,WNW,293,11.0,15.4,22,0.00,,---,0.00,VWS V14.01,2013-03-18 23:17:00,
2013-03-18 19:18:00,35.8,0.7,28.97,WNW,289,6.3,11.0,22,0.00,,---,0.00,VWS V14.01,2013-03-18 23:18:00,
2013-03-18 19:19:00,37.4,36.6,28.61,NNW,336,9.6,13.0,97,0.00,,---,0.12,VWS V14.01,2013-03-18 23:19:00,
2013-03-18 19:20:00,35.8,0.7,28.97,WNW,294,11.2,12.1,22,0.00,,---,0.00,VWS V14.01,2013-03-18 23:20:00,
2013-03-18 19:21:00,35.8,0.7,28.97,West,281,10.1,16.3,22,0.00,,---,0.00,VWS V14.01,2013-03-18 23:21:00,
2013-03-18 19:22:00,35.8,0.7,28.97,WNW,287,16.3,16.3,22,0.00,,---,0.00,VWS V14.01,2013-03-18 23:22:00,
2013-03-18 19:23:00,35.8,0.7,28.97,West,264,14.3,17.7,22,0.00,,---,0.00,VWS V14.01,2013-03-18 23:23:00,
2013-03-18 19:24:00,35.8,0.7,28.97,NW,310,9.2,14.3,22,0.00,,---,0.00,VWS V14.01,2013-03-18 23:24:00,
2013-03-18 19:25:00,37.2,36.5,28.61,WNW,295,6.3,10.5,97,0.00,,---,0.12,VWS V14.01,2013-03-18 23:25:00,
2013-03-18 19:26:00,35.6,0.5,28.97,NW,315,8.7,12.1,22,0.00,,---,0.00,VWS V14.01,2013-03-18 23:26:00,
2013-03-18 19:27:00,35.6,0.5,28.97,WNW,297,10.5,12.1,22,0.00,,---,0.00,VWS V14.01,2013-03-18 23:27:00,
2013-03-18 19:28:00,35.6,0.5,28.97,WSW,254,16.8,16.8,22,0.00,,---,0.00,VWS V14.01,2013-03-18 23:28:00,
2013-03-18 19:29:00,35.6,0.5,28.97,WNW,292,7.4,16.8,22,0.00,,---,0.00,VWS V14.01,2013-03-18 23:29:00,
2013-03-18 19:30:00,37.0,36.3,28.64,WNW,301,11.2,11.2,97,0.00,,---,0.12,VWS V14.01,2013-03-18 23:30:00,
2013-03-18 19:31:00,35.6,0.5,28.97,WNW,287,11.6,20.6,22,0.00,,---,0.00,VWS V14.01,2013-03-18 23:31:00,
2013-03-18 19:32:00,35.6,0.5,28.97,West,279,8.7,13.4,22,0.00,,---,0.00,VWS V14.01,2013-03-18 23:32:00,
2013-03-18 19:33:00,35.6,0.5,28.97,West,271,5.8,15.9,22,0.00,,---,0.00,VWS V14.01,2013-03-18 23:33:00,
2013-03-18 19:34:00,35.4,0.4,28.97,West,280,13.4,15.9,22,0.00,,---,0.00,VWS V14.01,2013-03-18 23:34:00,
2013-03-18 19:35:00,36.9,36.1,28.64,West,267,11.0,13.0,97,0.00,,---,0.12,VWS V14.01,2013-03-18 23:35:00,
2013-03-18 19:36:00,35.4,0.4,28.97,WNW,292,7.4,7.4,22,0.00,,---,0.00,VWS V14.01,2013-03-18 23:36:00,
2013-03-18 19:37:00,35.4,0.4,28.97,WSW,254,6.7,10.5,22,0.00,,---,0.00,VWS V14.01,2013-03-18 23:37:00,
2013-03-18 19:38:00,35.2,0.2,28.97,NW,310,11.2,16.8,22,0.00,,---,0.00,VWS V14.01,2013-03-18 23:38:00,
2013-03-18 19:39:00,35.2,0.2,28.97,WNW,299,7.4,11.2,22,0.00,,---,0.00,VWS V14.01,2013-03-18 23:39:00,
2013-03-18 19:40:00,36.7,35.9,28.64,NW,312,11.2,13.9,97,0.00,,---,0.12,VWS V14.01,2013-03-18 23:40:00,
2013-03-18 19:41:00,35.1,0.1,28.97,WNW,297,10.1,15.4,22,0.00,,---,0.00,VWS V14.01,2013-03-18 23:41:00,
2013-03-18 19:42:00,35.2,0.2,28.97,NW,310,12.1,14.8,22,0.00,,---,0.00,VWS V14.01,2013-03-18 23:42:00,
2013-03-18 19:43:00,35.2,0.2,28.97,WSW,245,10.5,12.1,22,0.00,,---,0.00,VWS V14.01,2013-03-18 23:43:00,
2013-03-18 19:44:00,35.2,0.2,28.97,WNW,284,11.2,13.4,22,0.00,,---,0.00,VWS V14.01,2013-03-18 23:44:00,
2013-03-18 19:45:00,36.7,35.9,28.64,WNW,292,7.4,12.5,97,0.00,,---,0.12,VWS V14.01,2013-03-18 23:45:00,
2013-03-18 19:46:00,35.1,0.1,28.97,NW,319,8.7,11.0,22,0.00,,---,0.00,VWS V14.01,2013-03-18 23:46:00,
2013-03-18 19:47:00,35.1,0.1,28.97,NW,310,6.7,13.4,22,0.00,,---,0.00,VWS V14.01,2013-03-18 23:47:00,
2013-03-18 19:48:00,35.1,0.1,28.97,WNW,288,6.9,11.0,22,0.00,,---,0.00,VWS V14.01,2013-03-18 23:48:00,
2013-03-18 19:49:00,34.9,-0.1,28.97,NW,312,9.6,13.4,22,0.00,,---,0.00,VWS V14.01,2013-03-18 23:49:00,
2013-03-18 19:50:00,36.7,35.9,28.64,NW,308,7.4,8.7,97,0.00,,---,0.12,VWS V14.01,2013-03-18 23:50:00,
2013-03-18 19:51:00,34.9,-0.1,28.97,WNW,294,13.4,15.4,22,0.00,,---,0.00,VWS V14.01,2013-03-18 23:51:00,
2013-03-18 19:52:00,34.9,-0.1,28.97,NW,317,10.1,13.4,22,0.00,,---,0.00,VWS V14.01,2013-03-18 23:52:00,
2013-03-18 19:53:00,34.9,-0.1,28.97,West,271,4.9,15.2,22,0.00,,---,0.00,VWS V14.01,2013-03-18 23:53:00,
2013-03-18 19:54:00,34.9,-0.1,28.97,WNW,299,7.8,13.0,22,0.00,,---,0.00,VWS V14.01,2013-03-18 23:54:00,
2013-03-18 19:55:00,36.5,35.7,28.64,WNW,299,5.8,13.4,97,0.00,,---,0.12,VWS V14.01,2013-03-18 23:55:00,
2013-03-18 19:56:00,34.9,-0.1,28.97,West,266,13.0,13.0,22,0.00,,---,0.00,VWS V14.01,2013-03-18 23:56:00,
2013-03-18 19:57:00,34.9,-0.1,28.97,NNW,340,8.3,14.8,22,0.00,,---,0.00,VWS V14.01,2013-03-18 23:57:00,
2013-03-18 19:58:00,34.9,-0.1,28.97,WNW,296,12.5,15.9,22,0.00,,---,0.00,VWS V14.01,2013-03-18 23:58:00,
2013-03-18 19:59:00,34.7,-0.2,28.97,WNW,284,3.6,12.5,22,0.00,,---,0.00,VWS V14.01,2013-03-18 23:59:00,
2013-03-18 20:00:00,36.3,35.5,28.64,WSW,238,8.3,12.5,97,0.00,,---,0.12,VWS V14.01,2013-03-19 00:00:00,
2013-03-18 20:01:00,34.5,-0.4,28.97,West,270,4.9,13.9,22,0.00,,---,0.00,VWS V14.01,2013-03-19 00:01:00,
2013-03-18 20:02:00,34.5,-0.4,28.97,NW,306,11.6,11.6,22,0.00,,---,0.00,VWS V14.01,2013-03-19 00:02:00,
2013-03-18 20:03:00,34.5,-0.4,28.97,WNW,300,4.9,11.6,22,0.00,,---,0.00,VWS V14.01,2013-03-19 00:03:00,
2013-03-18 20:04:00,34.5,-0.4,28.97,West,261,6.3,11.2,22,0.00,,---,0.00,VWS V14.01,2013-03-19 00:04:00,
2013-03-18 20:05:00,34.5,-0.4,28.97,NW,309,6.9,7.8,22,0.00,,---,0.00,VWS V14.01,2013-03-19 00:05:00,
2013-03-18 20:06:00,36.1,35.4,28.64,West,262,8.3,11.2,97,0.00,,---,0.12,VWS V14.01,2013-03-19 00:06:00,
2013-03-18 20:07:00,34.3,-0.6,28.97,WSW,248,8.3,10.5,22,0.00,,---,0.00,VWS V14.01,2013-03-19 00:07:00,
2013-03-18 20:08:00,34.3,-0.6,28.97,West,260,11.2,11.2,22,0.00,,---,0.00,VWS V14.01,2013-03-19 00:08:00,
2013-03-18 20:09:00,34.2,-0.7,28.97,WNW,295,8.3,11.2,22,0.00,,---,0.00,VWS V14.01,2013-03-19 00:09:00,
2013-03-18 20:10:00,34.2,2.0,28.97,WSW,239,7.8,11.0,25,0.00,,---,0.00,VWS V14.01,2013-03-19 00:10:00,
2013-03-18 20:11:00,36.3,35.5,28.64,WNW,299,7.4,13.0,97,0.00,,---,0.12,VWS V14.01,2013-03-19 00:11:00,
2013-03-18 20:12:00,34.0,1.9,28.97,West,271,6.9,10.1,25,0.00,,---,0.00,VWS V14.01,2013-03-19 00:12:00,
2013-03-18 20:13:00,34.0,1.9,28.97,West,265,6.7,10.5,25,0.00,,---,0.00,VWS V14.01,2013-03-19 00:13:00,
2013-03-18 20:14:00,34.0,1.9,28.97,West,277,8.7,10.1,25,0.00,,---,0.00,VWS V14.01,2013-03-19 00:14:00,
2013-03-18 20:15:00,34.2,2.0,28.97,NW,308,7.4,16.3,25,0.00,,---,0.00,VWS V14.01,2013-03-19 00:15:00,
2013-03-18 20:16:00,36.3,35.5,28.67,West,272,10.1,17.2,97,0.00,,---,0.12,VWS V14.01,2013-03-19 00:16:00,
2013-03-18 20:17:00,34.2,2.0,28.97,WNW,290,4.9,11.6,25,0.00,,---,0.00,VWS V14.01,2013-03-19 00:17:00,
2013-03-18 20:18:00,34.0,1.9,28.97,West,267,6.3,11.0,25,0.00,,---,0.00,VWS V14.01,2013-03-19 00:18:00,
2013-03-18 20:19:00,34.0,1.9,28.97,NW,307,4.0,7.8,25,0.00,,---,0.00,VWS V14.01,2013-03-19 00:19:00,
2013-03-18 20:20:00,34.0,1.9,28.97,WNW,286,5.8,10.5,25,0.00,,---,0.00,VWS V14.01,2013-03-19 00:20:00,
2013-03-18 20:21:00,36.3,35.5,28.67,WSW,251,9.6,12.1,97,0.00,,---,0.12,VWS V14.01,2013-03-19 00:21:00,
2013-03-18 20:22:00,33.8,3.4,28.97,WNW,298,6.7,8.3,27,0.00,,---,0.00,VWS V14.01,2013-03-19 00:22:00,
2013-03-18 20:23:00,33.8,3.4,28.97,WNW,291,6.3,9.6,27,0.00,,---,0.00,VWS V14.01,2013-03-19 00:23:00,
2013-03-18 20:24:00,33.8,3.4,28.97,WNW,301,10.5,10.5,27,0.00,,---,0.00,VWS V14.01,2013-03-19 00:24:00,
2013-03-18 20:25:00,33.8,3.4,28.97,WNW,293,5.8,10.5,27,0.00,,---,0.00,VWS V14.01,2013-03-19 00:25:00,
2013-03-18 20:26:00,36.3,35.5,28.67,WNW,284,8.3,9.2,97,0.00,,---,0.12,VWS V14.01,2013-03-19 00:26:00,
2013-03-18 20:27:00,33.8,1.7,28.97,WNW,303,5.8,14.8,25,0.00,,---,0.00,VWS V14.01,2013-03-19 00:27:00,
2013-03-18 20:28:00,33.8,1.7,28.97,WNW,287,7.8,14.8,25,0.00,,---,0.00,VWS V14.01,2013-03-19 00:28:00,
2013-03-18 20:29:00,33.8,1.7,28.97,WNW,286,4.9,11.0,25,0.00,,---,0.00,VWS V14.01,2013-03-19 00:29:00,
2013-03-18 20:30:00,33.8,1.7,28.97,WNW,297,13.4,14.8,25,0.00,,---,0.00,VWS V14.01,2013-03-19 00:30:00,
2013-03-18 20:31:00,36.3,35.5,28.67,NW,308,6.7,8.7,97,0.00,,---,0.12,VWS V14.01,2013-03-19 00:31:00,
2013-03-18 20:32:00,34.0,1.9,28.97,West,266,10.1,10.1,25,0.00,,---,0.00,VWS V14.01,2013-03-19 00:32:00,
2013-03-18 20:33:00,34.0,1.9,28.97,WNW,286,4.5,10.1,25,0.00,,---,0.00,VWS V14.01,2013-03-19 00:33:00,
2013-03-18 20:34:00,33.8,1.7,28.97,WNW,284,7.8,9.6,25,0.00,,---,0.00,VWS V14.01,2013-03-19 00:34:00,
2013-03-18 20:35:00,33.8,1.7,28.97,West,267,12.5,13.0,25,0.00,,---,0.00,VWS V14.01,2013-03-19 00:35:00,
2013-03-18 20:36:00,33.8,1.7,28.97,WNW,303,6.7,13.4,25,0.00,,---,0.00,VWS V14.01,2013-03-19 00:36:00,
2013-03-18 20:37:00,36.3,35.5,28.67,West,261,8.3,12.1,97,0.00,,---,0.12,VWS V14.01,2013-03-19 00:37:00,
2013-03-18 20:38:00,33.8,1.7,28.97,NW,306,6.7,8.7,25,0.00,,---,0.00,VWS V14.01,2013-03-19 00:38:00,
2013-03-18 20:39:00,33.6,1.6,28.97,WNW,303,8.7,9.2,25,0.00,,---,0.00,VWS V14.01,2013-03-19 00:39:00,
2013-03-18 20:40:00,33.6,1.6,28.97,NW,307,7.4,13.0,25,0.00,,---,0.00,VWS V14.01,2013-03-19 00:40:00,
2013-03-18 20:41:00,33.6,1.6,28.97,West,281,7.8,11.6,25,0.00,,---,0.00,VWS V14.01,2013-03-19 00:41:00,
2013-03-18 20:42:00,36.5,35.7,28.67,West,271,8.7,12.1,97,0.00,,---,0.12,VWS V14.01,2013-03-19 00:42:00,
2013-03-18 20:43:00,33.6,1.6,28.97,WSW,242,10.1,10.1,25,0.00,,---,0.00,VWS V14.01,2013-03-19 00:43:00,
2013-03-18 20:44:00,33.6,1.6,28.97,NNW,338,6.3,11.2,25,0.00,,---,0.00,VWS V14.01,2013-03-19 00:44:00,
2013-03-18 20:45:00,33.6,1.6,28.97,NW,317,5.8,10.1,25,0.00,,---,0.00,VWS V14.01,2013-03-19 00:45:00,
2013-03-18 20:46:00,33.6,1.6,28.97,WNW,283,9.2,9.6,25,0.00,,---,0.00,VWS V14.01,2013-03-19 00:46:00,
2013-03-18 20:47:00,33.6,1.6,28.97,West,272,6.7,12.5,25,0.00,,---,0.00,VWS V14.01,2013-03-19 00:47:00,
2013-03-18 20:48:00,36.5,35.7,28.67,WNW,282,8.7,13.0,97,0.00,,---,0.12,VWS V14.01,2013-03-19 00:48:00,
2013-03-18 20:49:00,33.4,3.1,28.97,WNW,301,9.2,11.6,27,0.00,,---,0.00,VWS V14.01,2013-03-19 00:49:00,
2013-03-18 20:50:00,33.4,3.1,28.97,SW,227,11.2,11.2,27,0.00,,---,0.00,VWS V14.01,2013-03-19 00:50:00,
2013-03-18 20:51:00,33.6,3.2,28.97,WNW,299,9.2,12.5,27,0.00,,---,0.00,VWS V14.01,2013-03-19 00:51:00,
2013-03-18 20:52:00,33.6,3.2,28.97,WSW,237,4.9,11.2,27,0.00,,---,0.00,VWS V14.01,2013-03-19 00:52:00,
2013-03-18 20:53:00,36.5,35.5,28.67,WSW,256,6.3,10.5,96,0.00,,---,0.12,VWS V14.01,2013-03-19 00:53:00,
2013-03-18 20:54:00,33.6,1.6,28.97,WNW,294,11.6,11.6,25,0.00,,---,0.00,VWS V14.01,2013-03-19 00:54:00,
2013-03-18 20:55:00,33.6,1.6,28.97,West,270,11.2,11.6,25,0.00,,---,0.00,VWS V14.01,2013-03-19 00:55:00,
2013-03-18 20:56:00,33.6,1.6,28.97,NNW,335,4.5,11.2,25,0.00,,---,0.00,VWS V14.01,2013-03-19 00:56:00,
2013-03-18 20:57:00,33.6,1.6,28.97,WNW,302,4.9,13.0,25,0.00,,---,0.00,VWS V14.01,2013-03-19 00:57:00,
2013-03-18 20:58:00,36.5,35.5,28.67,WNW,298,8.7,13.9,96,0.00,,---,0.12,VWS V14.01,2013-03-19 00:58:00,
2013-03-18 20:59:00,33.6,1.6,28.97,WSW,248,6.3,13.9,25,0.00,,---,0.00,VWS V14.01,2013-03-19 00:59:00,
2013-03-18 21:00:00,33.6,3.2,28.97,WNW,301,7.4,11.0,27,0.00,,---,0.00,VWS V14.01,2013-03-19 01:00:00,
2013-03-18 21:01:00,33.6,3.2,28.97,WNW,291,12.1,12.1,27,0.00,,---,0.00,VWS V14.01,2013-03-19 01:01:00,
2013-03-18 21:02:00,33.4,3.1,28.97,WNW,290,14.8,14.8,27,0.00,,---,0.00,VWS V14.01,2013-03-19 01:02:00,
2013-03-18 21:03:00,36.5,35.5,28.67,West,279,5.8,9.2,96,0.00,,---,0.12,VWS V14.01,2013-03-19 01:03:00,
2013-03-18 21:04:00,33.6,3.2,28.97,NW,305,5.8,8.3,27,0.00,,---,0.00,VWS V14.01,2013-03-19 01:04:00,
2013-03-18 21:05:00,33.6,3.2,28.97,WNW,303,6.9,12.5,27,0.00,,---,0.00,VWS V14.01,2013-03-19 01:05:00,
2013-03-18 21:06:00,33.4,3.1,28.97,WNW,296,5.8,11.6,27,0.00,,---,0.00,VWS V14.01,2013-03-19 01:06:00,
2013-03-18 21:07:00,33.4,3.1,28.97,NW,322,14.3,14.3,27,0.00,,---,0.00,VWS V14.01,2013-03-19 01:07:00,
2013-03-18 21:08:00,36.5,35.5,28.67,WSW,246,12.5,12.5,96,0.00,,---,0.12,VWS V14.01,2013-03-19 01:08:00,
2013-03-18 21:09:00,33.4,3.1,28.97,WSW,248,7.8,14.3,27,0.00,,---,0.00,VWS V14.01,2013-03-19 01:09:00,
2013-03-18 21:10:00,33.6,1.6,28.97,WSW,242,7.8,14.8,25,0.00,,---,0.00,VWS V14.01,2013-03-19 01:10:00,
2013-03-18 21:11:00,33.6,3.2,28.97,NW,308,9.6,12.1,27,0.00,,---,0.00,VWS V14.01,2013-03-19 01:11:00,
2013-03-18 21:12:00,33.6,1.6,29.00,WNW,290,11.0,19.5,25,0.00,,---,0.00,VWS V14.01,2013-03-19 01:12:00,
2013-03-18 21:13:00,36.5,35.7,28.67,West,269,5.8,8.7,97,0.00,,---,0.12,VWS V14.01,2013-03-19 01:13:00,
2013-03-18 21:14:00,33.6,1.6,29.00,NW,315,11.2,14.3,25,0.00,,---,0.00,VWS V14.01,2013-03-19 01:14:00,
2013-03-18 21:15:00,33.6,1.6,29.00,WNW,293,9.6,14.8,25,0.00,,---,0.00,VWS V14.01,2013-03-19 01:15:00,
2013-03-18 21:16:00,33.6,1.6,29.00,NW,313,11.6,11.6,25,0.00,,---,0.00,VWS V14.01,2013-03-19 01:16:00,
2013-03-18 21:17:00,33.6,1.6,29.00,WNW,286,9.2,13.4,25,0.00,,---,0.00,VWS V14.01,2013-03-19 01:17:00,
2013-03-18 21:18:00,36.7,35.9,28.67,West,280,8.7,9.6,97,0.00,,---,0.12,VWS V14.01,2013-03-19 01:18:00,
2013-03-18 21:19:00,33.8,1.7,29.00,WNW,295,11.0,18.1,25,0.00,,---,0.00,VWS V14.01,2013-03-19 01:19:00,
2013-03-18 21:20:00,33.8,1.7,29.00,WNW,299,8.7,11.6,25,0.00,,---,0.00,VWS V14.01,2013-03-19 01:20:00,
2013-03-18 21:21:00,33.6,1.6,29.00,SW,234,11.2,14.3,25,0.00,,---,0.00,VWS V14.01,2013-03-19 01:21:00,
2013-03-18 21:22:00,33.6,3.2,29.00,NW,310,7.4,12.5,27,0.00,,---,0.00,VWS V14.01,2013-03-19 01:22:00,
2013-03-18 21:23:00,36.7,35.9,28.67,NW,308,9.2,9.6,97,0.00,,---,0.12,VWS V14.01,2013-03-19 01:23:00,
2013-03-18 21:24:00,33.6,3.2,29.00,NW,310,4.9,8.7,27,0.00,,---,0.00,VWS V14.01,2013-03-19 01:24:00,
2013-03-18 21:25:00,33.6,3.2,29.00,SW,225,8.7,11.2,27,0.00,,---,0.00,VWS V14.01,2013-03-19 01:25:00,
2013-03-18 21:26:00,33.6,3.2,29.00,NNW,335,7.8,10.1,27,0.00,,---,0.00,VWS V14.01,2013-03-19 01:26:00,
2013-03-18 21:27:00,33.6,3.2,29.00,WNW,303,11.2,14.3,27,0.00,,---,0.00,VWS V14.01,2013-03-19 01:27:00,
2013-03-18 21:28:00,36.7,35.9,28.67,WSW,250,10.5,10.5,97,0.00,,---,0.12,VWS V14.01,2013-03-19 01:28:00,
2013-03-18 21:29:00,33.6,3.2,29.00,WNW,291,14.3,14.3,27,0.00,,---,0.00,VWS V14.01,2013-03-19 01:29:00,
2013-03-18 21:30:00,33.6,3.2,29.00,NW,310,5.8,14.3,27,0.00,,---,0.00,VWS V14.01,2013-03-19 01:30:00,
2013-03-18 21:31:00,33.6,3.2,29.00,WNW,298,9.2,13.9,27,0.00,,---,0.00,VWS V14.01,2013-03-19 01:31:00,
2013-03-18 21:32:00,33.6,3.2,29.00,WSW,241,6.3,9.2,27,0.00,,---,0.00,VWS V14.01,2013-03-19 01:32:00,
2013-03-18 21:33:00,36.7,35.9,28.67,WSW,257,5.4,11.2,97,0.00,,---,0.12,VWS V14.01,2013-03-19 01:33:00,
2013-03-18 21:34:00,33.4,3.1,29.00,West,277,12.5,13.0,27,0.00,,---,0.00,VWS V14.01,2013-03-19 01:34:00,
2013-03-18 21:35:00,33.4,3.1,29.00,West,267,6.3,12.5,27,0.00,,---,0.00,VWS V14.01,2013-03-19 01:35:00,
2013-03-18 21:36:00,33.4,3.1,29.00,WNW,300,5.8,7.4,27,0.00,,---,0.00,VWS V14.01,2013-03-19 01:36:00,
2013-03-18 21:37:00,33.4,3.1,29.00,WNW,293,5.4,12.5,27,0.00,,---,0.00,VWS V14.01,2013-03-19 01:37:00,
2013-03-18 21:38:00,36.7,35.9,28.67,SW,221,6.9,13.0,97,0.00,,---,0.12,VWS V14.01,2013-03-19 01:38:00,
2013-03-18 21:39:00,33.3,5.2,29.00,WNW,301,7.4,13.0,30,0.00,,---,0.00,VWS V14.01,2013-03-19 01:39:00,
2013-03-18 21:40:00,33.3,5.2,29.00,WNW,296,6.9,11.0,30,0.00,,---,0.00,VWS V14.01,2013-03-19 01:40:00,
2013-03-18 21:41:00,33.3,5.2,29.00,WNW,287,8.7,14.3,30,0.00,,---,0.00,VWS V14.01,2013-03-19 01:41:00,
2013-03-18 21:42:00,33.4,5.3,29.00,WNW,289,10.1,12.1,30,0.00,,---,0.00,VWS V14.01,2013-03-19 01:42:00,
2013-03-18 21:43:00,33.4,5.3,29.00,NW,306,14.3,15.2,30,0.00,,---,0.00,VWS V14.01,2013-03-19 01:43:00,
2013-03-18 21:44:00,36.7,35.9,28.67,West,263,10.1,11.2,97,0.00,,---,0.12,VWS V14.01,2013-03-19 01:44:00,
2013-03-18 21:45:00,33.3,5.2,29.00,WNW,294,7.4,8.7,30,0.00,,---,0.00,VWS V14.01,2013-03-19 01:45:00,
2013-03-18 21:46:00,33.3,5.2,29.00,NNW,328,11.0,13.9,30,0.00,,---,0.00,VWS V14.01,2013-03-19 01:46:00,
2013-03-18 21:47:00,33.4,5.3,29.00,WNW,292,10.1,13.0,30,0.00,,---,0.00,VWS V14.01,2013-03-19 01:47:00,
2013-03-18 21:48:00,33.4,5.3,29.00,WSW,252,13.4,16.3,30,0.00,,---,0.00,VWS V14.01,2013-03-19 01:48:00,
2013-03-18 21:49:00,36.7,35.9,28.67,WSW,257,4.9,11.6,97,0.00,,---,0.12,VWS V14.01,2013-03-19 01:49:00,
2013-03-18 21:50:00,33.4,5.3,29.00,West,271,12.5,15.9,30,0.00,,---,0.00,VWS V14.01,2013-03-19 01:50:00,
2013-03-18 21:51:00,33.4,5.3,29.00,WNW,297,7.8,14.8,30,0.00,,---,0.00,VWS V14.01,2013-03-19 01:51:00,
2013-03-18 21:52:00,33.4,5.3,29.00,West,270,8.3,11.6,30,0.00,,---,0.00,VWS V14.01,2013-03-19 01:52:00,
2013-03-18 21:53:00,33.4,5.3,29.00,WNW,282,13.0,13.0,30,0.00,,---,0.00,VWS V14.01,2013-03-19 01:53:00,
2013-03-18 21:54:00,36.7,35.9,28.67,WSW,251,6.9,10.5,97,0.00,,---,0.12,VWS V14.01,2013-03-19 01:54:00,
2013-03-18 21:55:00,33.4,5.3,29.00,West,263,3.6,13.0,30,0.00,,---,0.00,VWS V14.01,2013-03-19 01:55:00,
2013-03-18 21:56:00,33.3,5.2,29.00,NW,322,6.7,6.7,30,0.00,,---,0.00,VWS V14.01,2013-03-19 01:56:00,
2013-03-18 21:57:00,33.3,5.2,29.00,WNW,284,11.6,13.0,30,0.00,,---,0.00,VWS V14.01,2013-03-19 01:57:00,
2013-03-18 21:58:00,33.3,5.2,29.00,West,270,6.7,11.6,30,0.00,,---,0.00,VWS V14.01,2013-03-19 01:58:00,
2013-03-18 21:59:00,36.7,35.9,28.70,West,270,7.8,10.1,97,0.00,,---,0.12,VWS V14.01,2013-03-19 01:59:00,
2013-03-18 22:00:00,33.3,5.2,29.00,West,259,8.7,10.1,30,0.00,,---,0.00,VWS V14.01,2013-03-19 02:00:00,
2013-03-18 22:01:00,33.3,5.2,29.00,WNW,294,7.8,15.9,30,0.00,,---,0.00,VWS V14.01,2013-03-19 02:01:00,
2013-03-18 22:02:00,33.3,5.2,29.00,NW,315,11.0,12.1,30,0.00,,---,0.00,VWS V14.01,2013-03-19 02:02:00,
2013-03-18 22:03:00,33.3,5.2,29.00,WNW,302,4.9,12.1,30,0.00,,---,0.00,VWS V14.01,2013-03-19 02:03:00,
2013-03-18 22:04:00,36.7,35.9,28.70,West,268,4.9,10.1,97,0.00,,---,0.12,VWS V14.01,2013-03-19 02:04:00,
2013-03-18 22:05:00,33.1,5.0,29.00,WNW,290,8.7,13.0,30,0.00,,---,0.00,VWS V14.01,2013-03-19 02:05:00,
2013-03-18 22:06:00,33.1,5.0,29.00,SW,233,7.4,12.1,30,0.00,,---,0.00,VWS V14.01,2013-03-19 02:06:00,
2013-03-18 22:07:00,33.1,5.0,29.00,WNW,286,6.9,10.5,30,0.00,,---,0.00,VWS V14.01,2013-03-19 02:07:00,
2013-03-18 22:08:00,33.1,5.0,29.00,West,268,9.6,12.5,30,0.00,,---,0.00,VWS V14.01,2013-03-19 02:08:00,
2013-03-18 22:09:00,36.7,35.9,28.70,West,266,6.7,11.2,97,0.00,,---,0.12,VWS V14.01,2013-03-19 02:09:00,
2013-03-18 22:10:00,32.9,5.6,29.00,WNW,289,7.4,8.3,31,0.00,,---,0.00,VWS V14.01,2013-03-19 02:10:00,
2013-03-18 22:11:00,32.7,5.4,29.00,WNW,296,5.4,7.4,31,0.00,,---,0.00,VWS V14.01,2013-03-19 02:11:00,
2013-03-18 22:12:00,32.7,5.4,29.00,WNW,288,4.5,7.4,31,0.00,,---,0.00,VWS V14.01,2013-03-19 02:12:00,
2013-03-18 22:13:00,32.5,5.3,29.00,West,261,9.2,11.0,31,0.00,,---,0.00,VWS V14.01,2013-03-19 02:13:00,
2013-03-18 22:14:00,36.7,35.9,28.70,WSW,252,9.6,11.2,97,0.00,,---,0.12,VWS V14.01,2013-03-19 02:14:00,
2013-03-18 22:15:00,32.5,5.3,29.00,NW,311,7.4,10.1,31,0.00,,---,0.00,VWS V14.01,2013-03-19 02:15:00,
2013-03-18 22:16:00,32.5,5.3,29.00,WNW,297,6.3,8.7,31,0.00,,---,0.00,VWS V14.01,2013-03-19 02:16:00,
2013-03-18 22:17:00,32.5,5.3,29.00,WNW,293,8.3,10.1,31,0.00,,---,0.00,VWS V14.01,2013-03-19 02:17:00,
2013-03-18 22:18:00,32.5,5.3,29.00,West,268,9.6,12.5,31,0.00,,---,0.00,VWS V14.01,2013-03-19 02:18:00,
2013-03-18 22:19:00,36.7,35.9,28.70,WSW,255,11.0,13.4,97,0.00,,---,0.12,VWS V14.01,2013-03-19 02:19:00,
2013-03-18 22:20:00,32.7,5.4,29.00,WNW,295,7.4,11.0,31,0.00,,---,0.00,VWS V14.01,2013-03-19 02:20:00,
2013-03-18 22:21:00,32.7,5.4,29.00,West,263,6.3,9.2,31,0.00,,---,0.00,VWS V14.01,2013-03-19 02:21:00,
2013-03-18 22:22:00,32.5,5.3,29.00,WNW,298,10.5,11.2,31,0.00,,---,0.00,VWS V14.01,2013-03-19 02:22:00,
2013-03-18 22:23:00,32.5,5.3,29.00,West,276,8.7,12.1,31,0.00,,---,0.00,VWS V14.01,2013-03-19 02:23:00,
2013-03-18 22:24:00,36.7,35.9,28.70,WSW,253,5.8,10.5,97,0.00,,---,0.12,VWS V14.01,2013-03-19 02:24:00,
2013-03-18 22:25:00,32.7,5.4,29.00,WNW,296,7.8,11.2,31,0.00,,---,0.00,VWS V14.01,2013-03-19 02:25:00,
2013-03-18 22:26:00,32.7,5.4,29.00,WNW,287,7.4,9.6,31,0.00,,---,0.00,VWS V14.01,2013-03-19 02:26:00,
2013-03-18 22:27:00,32.5,5.3,29.00,NW,318,9.6,10.1,31,0.00,,---,0.00,VWS V14.01,2013-03-19 02:27:00,
2013-03-18 22:28:00,32.5,5.3,29.00,WNW,287,10.5,11.6,31,0.00,,---,0.00,VWS V14.01,2013-03-19 02:28:00,
2013-03-18 22:29:00,36.7,35.9,28.70,NW,305,4.5,10.1,97,0.00,,---,0.12,VWS V14.01,2013-03-19 02:29:00,
2013-03-18 22:30:00,32.7,5.4,29.00,WNW,303,8.7,13.4,31,0.00,,---,0.00,VWS V14.01,2013-03-19 02:30:00,
2013-03-18 22:31:00,32.7,5.4,29.00,NW,304,7.8,10.1,31,0.00,,---,0.00,VWS V14.01,2013-03-19 02:31:00,
2013-03-18 22:32:00,32.7,5.4,29.00,West,263,5.8,11.0,31,0.00,,---,0.00,VWS V14.01,2013-03-19 02:32:00,
2013-03-18 22:33:00,32.5,5.3,29.00,WSW,250,6.9,10.5,31,0.00,,---,0.00,VWS V14.01,2013-03-19 02:33:00,
2013-03-18 22:34:00,36.7,35.7,28.70,NW,304,6.9,9.2,96,0.00,,---,0.12,VWS V14.01,2013-03-19 02:34:00,
2013-03-18 22:35:00,32.5,5.3,29.00,WSW,256,4.5,13.4,31,0.00,,---,0.00,VWS V14.01,2013-03-19 02:35:00,
2013-03-18 22:36:00,32.5,5.3,29.00,WNW,302,6.3,9.6,31,0.00,,---,0.00,VWS V14.01,2013-03-19 02:36:00,
2013-03-18 22:37:00,32.4,5.1,29.00,WNW,293,6.3,9.6,31,0.00,,---,0.00,VWS V14.01,2013-03-19 02:37:00,
2013-03-18 22:38:00,32.4,5.1,29.00,WNW,296,7.8,7.8,31,0.00,,---,0.00,VWS V14.01,2013-03-19 02:38:00,
2013-03-18 22:39:00,36.7,35.4,28.70,WSW,252,6.9,12.5,95,0.00,,---,0.12,VWS V14.01,2013-03-19 02:39:00,
2013-03-18 22:40:00,32.4,5.1,29.00,WSW,247,11.6,13.9,31,0.00,,---,0.00,VWS V14.01,2013-03-19 02:40:00,
2013-03-18 22:41:00,32.2,5.0,29.00,NW,306,6.7,11.6,31,0.00,,---,0.00,VWS V14.01,2013-03-19 02:41:00,
2013-03-18 22:42:00,32.2,5.0,29.00,West,276,5.4,8.7,31,0.00,,---,0.00,VWS V14.01,2013-03-19 02:42:00,
2013-03-18 22:43:00,32.2,5.0,29.00,WNW,291,5.8,11.2,31,0.00,,---,0.00,VWS V14.01,2013-03-19 02:43:00,
2013-03-18 22:44:00,36.7,35.1,28.70,WNW,288,8.3,10.1,94,0.00,,---,0.12,VWS V14.01,2013-03-19 02:44:00,
2013-03-18 22:45:00,32.2,5.7,29.00,NW,316,3.1,8.3,32,0.00,,---,0.00,VWS V14.01,2013-03-19 02:45:00,
2013-03-18 22:46:00,32.2,5.7,29.00,WNW,293,5.8,12.1,32,0.00,,---,0.00,VWS V14.01,2013-03-19 02:46:00,
2013-03-18 22:47:00,32.2,5.7,29.00,WNW,302,5.8,11.2,32,0.00,,---,0.00,VWS V14.01,2013-03-19 02:47:00,
2013-03-18 22:48:00,32.2,5.7,29.00,WNW,294,7.8,8.7,32,0.00,,---,0.00,VWS V14.01,2013-03-19 02:48:00,
2013-03-18 22:49:00,36.7,34.6,28.70,WNW,301,6.7,8.7,92,0.00,,---,0.12,VWS V14.01,2013-03-19 02:49:00,
2013-03-18 22:50:00,32.2,5.7,29.00,West,268,7.4,11.2,32,0.00,,---,0.00,VWS V14.01,2013-03-19 02:50:00,
2013-03-18 22:51:00,32.0,5.5,29.00,West,262,9.6,9.6,32,0.00,,---,0.00,VWS V14.01,2013-03-19 02:51:00,
2013-03-18 22:52:00,32.0,5.5,29.00,WNW,302,4.5,10.1,32,0.00,,---,0.00,VWS V14.01,2013-03-19 02:52:00,
2013-03-18 22:53:00,32.0,6.2,29.00,NW,311,4.5,7.4,33,0.00,,---,0.00,VWS V14.01,2013-03-19 02:53:00,
2013-03-18 22:54:00,36.7,34.0,28.70,West,274,6.7,6.7,90,0.00,,---,0.12,VWS V14.01,2013-03-19 02:54:00,
2013-03-18 22:55:00,31.8,6.0,29.00,WNW,296,5.4,11.2,33,0.00,,---,0.00,VWS V14.01,2013-03-19 02:55:00,
2013-03-18 22:56:00,32.0,6.2,29.00,West,268,5.4,9.2,33,0.00,,---,0.00,VWS V14.01,2013-03-19 02:56:00,
2013-03-18 22:57:00,31.8,6.0,29.00,NW,312,5.4,6.9,33,0.00,,---,0.00,VWS V14.01,2013-03-19 02:57:00,
2013-03-18 22:58:00,31.8,6.0,29.00,WNW,303,5.4,7.8,33,0.00,,---,0.00,VWS V14.01,2013-03-19 02:58:00,
2013-03-18 22:59:00,36.7,33.5,28.70,West,279,7.8,7.8,88,0.00,,---,0.12,VWS V14.01,2013-03-19 02:59:00,
2013-03-18 23:00:00,31.8,6.0,29.00,WNW,291,8.7,8.7,33,0.00,,---,0.00,VWS V14.01,2013-03-19 03:00:00,
2013-03-18 23:01:00,31.8,6.0,29.00,West,266,6.7,11.6,33,0.00,,---,0.00,VWS V14.01,2013-03-19 03:01:00,
2013-03-18 23:02:00,31.8,6.7,29.00,NW,304,7.8,8.7,34,0.00,,---,0.00,VWS V14.01,2013-03-19 03:02:00,
2013-03-18 23:03:00,31.8,6.7,29.00,WNW,293,6.3,9.2,34,0.00,,---,0.00,VWS V14.01,2013-03-19 03:03:00,
2013-03-18 23:04:00,36.7,33.2,28.70,SW,231,7.4,11.6,87,0.00,,---,0.12,VWS V14.01,2013-03-19 03:04:00,
2013-03-18 23:05:00,31.6,6.5,29.00,WNW,299,8.3,9.6,34,0.00,,---,0.00,VWS V14.01,2013-03-19 03:05:00,
2013-03-18 23:06:00,31.6,6.5,29.00,NW,319,6.3,8.3,34,0.00,,---,0.00,VWS V14.01,2013-03-19 03:06:00,
2013-03-18 23:07:00,31.6,6.5,29.00,WNW,295,8.7,10.5,34,0.00,,---,0.00,VWS V14.01,2013-03-19 03:07:00,
2013-03-18 23:08:00,31.6,5.8,29.00,West,276,9.6,10.1,33,0.00,,---,0.00,VWS V14.01,2013-03-19 03:08:00,
2013-03-18 23:09:00,36.5,32.4,28.70,WNW,285,7.8,9.6,85,0.00,,---,0.12,VWS V14.01,2013-03-19 03:09:00,
2013-03-18 23:10:00,32.0,5.5,29.00,NW,321,6.3,11.0,32,0.00,,---,0.00,VWS V14.01,2013-03-19 03:10:00,
2013-03-18 23:11:00,32.0,5.5,29.00,WNW,297,4.9,9.2,32,0.00,,---,0.00,VWS V14.01,2013-03-19 03:11:00,
2013-03-18 23:12:00,32.0,5.5,29.00,West,270,7.8,8.7,32,0.00,,---,0.00,VWS V14.01,2013-03-19 03:12:00,
2013-03-18 23:13:00,32.0,5.5,29.00,NNW,327,10.1,10.1,32,0.00,,---,0.00,VWS V14.01,2013-03-19 03:13:00,
2013-03-18 23:14:00,36.3,30.4,28.70,WNW,292,10.5,13.4,79,0.00,,---,0.12,VWS V14.01,2013-03-19 03:14:00,
2013-03-18 23:15:00,32.2,5.0,29.00,WNW,293,10.1,15.4,31,0.00,,---,0.00,VWS V14.01,2013-03-19 03:15:00,
2013-03-18 23:16:00,32.2,5.0,29.00,WNW,294,8.7,11.6,31,0.00,,---,0.00,VWS V14.01,2013-03-19 03:16:00,
2013-03-18 23:17:00,32.4,5.1,29.00,WSW,245,7.8,13.4,31,0.00,,---,0.00,VWS V14.01,2013-03-19 03:17:00,
2013-03-18 23:18:00,32.2,5.0,29.00,West,275,9.2,9.2,31,0.00,,---,0.00,VWS V14.01,2013-03-19 03:18:00,
2013-03-18 23:19:00,36.3,28.5,28.70,NNW,340,7.8,7.8,73,0.00,,---,0.12,VWS V14.01,2013-03-19 03:19:00,
2013-03-18 23:20:00,32.2,5.0,29.00,WNW,301,10.1,11.2,31,0.00,,---,0.00,VWS V14.01,2013-03-19 03:20:00,
2013-03-18 23:21:00,32.2,5.0,29.00,WNW,285,5.8,10.1,31,0.00,,---,0.00,VWS V14.01,2013-03-19 03:21:00,
2013-03-18 23:22:00,32.2,5.0,29.00,WNW,294,7.8,11.0,31,0.00,,---,0.00,VWS V14.01,2013-03-19 03:22:00,
2013-03-18 23:23:00,32.2,5.0,29.00,NW,318,8.3,11.0,31,0.00,,---,0.00,VWS V14.01,2013-03-19 03:23:00,
2013-03-18 23:24:00,36.1,28.3,28.70,WNW,294,8.3,11.2,73,0.00,,---,0.12,VWS V14.01,2013-03-19 03:24:00,
2013-03-18 23:25:00,32.2,5.0,29.00,West,275,8.7,12.1,31,0.00,,---,0.00,VWS V14.01,2013-03-19 03:25:00,
2013-03-18 23:26:00,32.2,5.0,29.00,WNW,297,9.6,11.2,31,0.00,,---,0.00,VWS V14.01,2013-03-19 03:26:00,
2013-03-18 23:27:00,32.2,5.0,29.00,West,272,7.4,9.6,31,0.00,,---,0.00,VWS V14.01,2013-03-19 03:27:00,
2013-03-18 23:28:00,32.2,5.0,29.00,NW,309,6.3,13.0,31,0.00,,---,0.00,VWS V14.01,2013-03-19 03:28:00,
2013-03-18 23:29:00,36.0,27.5,28.70,WSW,240,4.9,12.5,71,0.00,,---,0.12,VWS V14.01,2013-03-19 03:29:00,
2013-03-18 23:30:00,32.2,5.0,29.00,WNW,297,10.1,10.1,31,0.00,,---,0.00,VWS V14.01,2013-03-19 03:30:00,
2013-03-18 23:31:00,32.2,5.0,29.00,WNW,290,6.3,10.1,31,0.00,,---,0.00,VWS V14.01,2013-03-19 03:31:00,
2013-03-18 23:32:00,32.0,4.8,29.00,NW,320,6.3,9.6,31,0.00,,---,0.00,VWS V14.01,2013-03-19 03:32:00,
2013-03-18 23:33:00,32.0,4.8,29.00,NW,306,6.3,8.7,31,0.00,,---,0.00,VWS V14.01,2013-03-19 03:33:00,
2013-03-18 23:34:00,35.8,27.3,28.70,WNW,283,7.8,11.6,71,0.00,,---,0.12,VWS V14.01,2013-03-19 03:34:00,
2013-03-18 23:35:00,32.0,4.8,29.00,WNW,297,10.1,11.6,31,0.00,,---,0.00,VWS V14.01,2013-03-19 03:35:00,
2013-03-18 23:36:00,32.2,5.0,29.00,WNW,291,7.8,16.8,31,0.00,,---,0.00,VWS V14.01,2013-03-19 03:36:00,
2013-03-18 23:37:00,32.0,4.8,29.00,WNW,296,7.8,8.7,31,0.00,,---,0.00,VWS V14.01,2013-03-19 03:37:00,
2013-03-18 23:38:00,32.0,4.8,29.00,NW,318,11.6,11.6,31,0.00,,---,0.00,VWS V14.01,2013-03-19 03:38:00,
2013-03-18 23:39:00,35.6,27.5,28.70,WNW,292,6.9,9.2,72,0.00,,---,0.12,VWS V14.01,2013-03-19 03:39:00,
2013-03-18 23:40:00,32.0,4.8,29.00,West,267,13.0,13.4,31,0.00,,---,0.00,VWS V14.01,2013-03-19 03:40:00,
2013-03-18 23:41:00,32.2,4.2,29.00,WNW,300,9.2,16.8,30,0.00,,---,0.00,VWS V14.01,2013-03-19 03:41:00,
2013-03-18 23:42:00,32.2,4.2,29.00,WNW,291,11.2,14.8,30,0.00,,---,0.00,VWS V14.01,2013-03-19 03:42:00,
2013-03-18 23:43:00,32.2,4.2,29.00,NW,304,6.7,13.4,30,0.00,,---,0.00,VWS V14.01,2013-03-19 03:43:00,
2013-03-18 23:44:00,35.2,27.5,28.73,NW,312,2.7,8.3,73,0.00,,---,0.12,VWS V14.01,2013-03-19 03:44:00,
2013-03-18 23:45:00,32.2,4.2,29.00,WNW,290,13.4,14.8,30,0.00,,---,0.00,VWS V14.01,2013-03-19 03:45:00,
2013-03-18 23:46:00,32.2,4.2,29.00,NW,319,9.2,13.4,30,0.00,,---,0.00,VWS V14.01,2013-03-19 03:46:00,
2013-03-18 23:47:00,32.2,4.2,29.00,West,277,5.8,11.6,30,0.00,,---,0.00,VWS V14.01,2013-03-19 03:47:00,
2013-03-18 23:48:00,32.2,4.2,29.00,North,1,8.3,8.3,30,0.00,,---,0.00,VWS V14.01,2013-03-19 03:48:00,
2013-03-18 23:49:00,34.9,27.1,28.73,NW,304,9.6,11.2,73,0.00,,---,0.12,VWS V14.01,2013-03-19 03:49:00,
2013-03-18 23:50:00,32.0,4.1,29.00,WNW,296,11.2,15.2,30,0.00,,---,0.00,VWS V14.01,2013-03-19 03:50:00,
2013-03-18 23:51:00,32.0,4.1,29.00,SW,222,13.4,16.3,30,0.00,,---,0.00,VWS V14.01,2013-03-19 03:51:00,
2013-03-18 23:52:00,32.0,4.1,29.00,WNW,300,5.4,13.4,30,0.00,,---,0.00,VWS V14.01,2013-03-19 03:52:00,
2013-03-18 23:53:00,32.0,4.1,29.00,NNW,333,6.9,9.6,30,0.00,,---,0.00,VWS V14.01,2013-03-19 03:53:00,
2013-03-18 23:54:00,34.7,27.0,28.73,NNW,327,6.9,14.3,73,0.00,,---,0.12,VWS V14.01,2013-03-19 03:54:00,
2013-03-18 23:55:00,32.0,4.1,29.00,WNW,299,10.5,15.4,30,0.00,,---,0.00,VWS V14.01,2013-03-19 03:55:00,
2013-03-18 23:56:00,32.2,4.2,29.00,NW,310,6.7,19.5,30,0.00,,---,0.00,VWS V14.01,2013-03-19 03:56:00,
2013-03-18 23:57:00,32.2,4.2,29.00,WNW,298,9.2,12.5,30,0.00,,---,0.00,VWS V14.01,2013-03-19 03:57:00,
2013-03-18 23:58:00,32.2,4.2,29.00,WNW,300,10.5,14.3,30,0.00,,---,0.00,VWS V14.01,2013-03-19 03:58:00,
2013-03-18 23:59:00,34.5,26.1,28.73,WNW,284,6.7,13.0,71,0.00,,---,0.12,VWS V14.01,2013-03-19 03:59:00,